GEFSSGP_500_meanwind_000.txt.gz
Wind_Speed
2 2 1 1 3 5 7 8 9 10 12 13 14 16 18 19 20 21 20 20 21 21 21 23 24 26 28 29 30 30 31 31 32 32 31 30 29 28 27 25 24 23 22 23 24 24 24 24 24
3 2 2 2 2 2 4 6 6 7 9 10 12 13 14 14 16 16 16 16 17 18 20 22 23 24 26 29 30 31 32 33 34 35 34 33 32 31 31 29 28 27 27 27 28 28 29 30 29
8 8 7 5 3 2 1 1 1 3 5 7 8 9 10 10 11 12 13 13 15 17 19 21 23 24 26 27 28 30 31 33 34 34 34 33 33 33 33 33 31 31 31 30 31 31 32 34 33
13 14 11 10 9 7 6 6 5 5 6 7 8 8 9 10 11 13 14 14 16 18 20 22 24 26 28 29 31 31 32 34 35 36 36 36 36 36 36 35 35 34 34 34 34 34 35 36 37
13 13 9 9 9 8 8 7 7 6 6 6 8 9 11 12 13 15 17 18 19 21 23 25 28 29 31 32 34 35 35 37 37 38 39 39 39 40 39 39 38 38 38 38 38 38 37 37 38
11 9 7 7 7 6 6 6 6 7 8 9 10 11 12 14 15 17 19 21 22 23 25 27 29 31 33 35 36 37 39 41 42 43 43 43 43 43 43 43 42 40 39 40 40 40 40 40 40
10 8 8 7 7 8 8 7 7 7 7 8 9 10 12 14 16 18 19 20 22 23 25 27 30 32 34 36 37 38 39 40 42 44 45 46 47 47 47 48 47 46 44 43 43 42 43 43 43
9 9 8 8 8 8 7 7 8 9 11 13 14 15 16 17 18 21 22 24 26 28 30 32 34 36 38 41 42 43 44 44 43 43 44 45 47 49 50 50 51 50 51 49 48 47 46 46 45
10 9 8 7 7 6 6 7 9 12 14 16 16 17 18 19 21 23 25 28 30 31 33 35 36 38 39 41 44 46 48 48 49 49 49 49 49 49 51 51 52 52 53 53 52 51 50 50 49
10 8 7 6 6 5 6 7 8 10 12 13 16 18 20 23 25 27 30 32 35 37 39 41 42 43 45 47 48 50 52 53 53 52 52 53 54 54 53 52 53 54 54 54 54 53 54 53 51
9 8 8 9 9 8 9 9 9 11 14 17 19 20 22 24 27 29 31 34 37 40 43 45 48 50 53 55 56 57 58 58 59 59 58 57 57 56 57 57 57 56 55 55 54 54 54 54 53
9 10 9 9 9 9 10 11 14 17 19 21 22 24 26 29 33 36 38 41 45 48 52 54 56 58 60 62 64 65 65 66 65 65 64 64 63 62 60 59 60 60 58 56 54 55 55 55 54
7 8 7 8 9 10 13 17 19 20 20 21 23 26 29 33 37 41 44 48 51 54 57 61 63 64 66 69 71 72 72 72 72 71 70 69 67 66 66 65 63 63 62 60 58 57 57 57 57
7 8 8 9 10 12 14 16 17 18 20 22 26 32 38 43 48 52 54 57 60 64 67 69 70 72 73 75 77 79 80 78 77 76 76 75 74 71 69 68 68 67 66 65 64 63 62 61 59
8 9 10 11 12 14 13 15 17 21 24 27 34 40 45 50 55 59 62 65 66 69 73 75 76 77 78 79 80 82 82 81 80 80 79 79 79 78 76 72 70 71 71 69 68 68 67 66 65
7 7 9 11 12 14 15 16 20 25 30 35 40 45 50 56 61 65 70 72 75 77 78 79 80 80 81 81 80 81 80 80 79 79 80 81 82 82 81 80 76 74 74 74 72 70 69 69 69
7 9 10 13 15 17 20 24 28 33 37 42 46 51 56 61 67 71 74 76 78 79 80 83 85 86 85 81 78 77 76 75 73 73 74 79 84 85 84 83 83 82 79 78 76 74 71 70 70
10 12 14 15 19 22 26 29 32 36 41 46 50 54 60 65 70 73 75 77 80 82 83 84 84 81 75 69 67 67 66 60 57 58 59 63 71 82 88 87 85 86 86 84 82 80 77 73 71
13 15 15 16 20 23 27 30 34 39 43 47 53 59 64 70 74 76 78 80 82 82 83 79 71 60 58 60 59 57 49 45 43 44 47 48 52 60 76 90 91 89 89 88 86 85 82 79 74
16 18 18 20 23 27 32 34 38 42 47 53 58 63 69 74 75 76 78 82 84 83 79 70 58 55 57 56 55 51 45 43 43 43 45 47 49 51 56 68 86 95 93 92 91 88 85 81 79
17 20 22 25 28 31 36 38 42 47 51 57 62 68 72 75 77 78 79 82 81 77 70 58 52 54 57 58 58 55 51 49 48 46 45 46 47 49 50 55 66 84 96 96 94 92 90 85 81
20 23 26 28 30 32 37 44 44 49 54 60 65 70 73 75 76 79 81 81 77 74 63 53 53 57 61 63 63 61 57 56 55 52 48 45 45 47 49 49 50 63 81 93 97 96 94 91 86
23 26 28 30 31 35 40 44 48 53 59 65 70 73 76 79 79 82 80 77 73 67 56 52 56 61 65 67 66 64 60 60 61 58 52 46 44 44 44 43 43 45 59 73 85 94 95 94 91
24 26 29 32 35 39 43 48 53 58 65 70 73 76 78 80 82 81 77 71 65 58 53 55 60 65 67 68 66 62 58 56 57 56 52 46 42 40 39 39 38 38 41 51 63 75 86 91 92
23 27 32 36 41 43 46 51 56 63 68 72 76 77 79 82 82 77 71 64 58 55 56 61 65 67 67 66 64 61 56 53 52 51 50 47 42 38 35 35 36 35 34 36 46 56 65 78 86
23 27 32 37 42 46 49 55 59 66 71 75 77 78 80 82 78 73 65 59 57 58 62 65 66 66 64 59 56 53 50 49 48 47 47 45 43 40 35 32 33 33 33 32 34 40 49 57 68
26 30 33 39 45 51 54 57 63 69 74 75 75 77 80 80 74 66 61 61 62 65 66 65 63 59 55 51 49 49 48 46 45 44 44 42 41 40 38 34 30 31 32 32 31 33 37 43 51
27 32 36 41 47 52 57 62 69 74 76 75 75 78 83 77 68 62 62 65 67 67 64 61 56 52 50 50 50 49 48 46 44 44 44 43 41 39 40 39 34 32 33 34 34 34 36 37 40
30 33 37 43 47 53 61 65 71 76 77 75 77 79 79 71 64 63 66 68 68 65 61 55 52 49 48 48 48 48 50 50 48 47 46 45 44 41 39 40 40 37 35 35 37 35 35 36 37
30 35 41 46 50 55 63 67 74 76 75 76 77 77 72 66 64 66 68 68 64 59 55 52 49 49 51 51 50 50 51 52 52 50 48 45 44 43 41 39 41 42 41 38 37 36 34 36 37

GEFSSGP_500_meanwind_006.txt.gz
Wind_Speed
2 3 5 5 5 5 3 2 3 3 3 4 6 9 13 15 15 15 16 18 20 23 24 26 27 29 31 32 34 35 35 36 38 38 39 38 38 37 36 36 35 34 33 32 31 29 28 28 28
6 2 2 2 1 3 3 3 2 2 1 1 3 5 7 9 10 11 11 13 15 17 19 20 22 24 25 27 28 30 31 33 35 36 37 38 39 40 40 40 39 38 38 36 35 34 32 32 32
9 9 7 8 9 9 8 7 6 7 5 3 2 2 3 6 8 10 12 13 15 17 18 20 21 22 24 25 27 28 30 32 34 35 36 38 39 39 40 41 42 41 41 40 39 38 37 36 36
12 12 12 13 13 12 11 9 7 5 3 3 3 4 6 8 10 13 15 17 18 19 20 21 23 24 26 28 29 31 33 34 36 37 38 40 41 41 41 41 42 43 43 43 42 41 40 39 39
11 11 10 10 10 9 7 7 6 7 6 6 7 7 9 10 12 14 16 17 18 20 21 23 25 26 28 30 32 34 36 37 38 40 41 43 44 45 46 45 45 45 45 46 45 44 43 42 42
9 10 10 10 9 8 8 8 8 8 8 9 9 10 10 11 12 14 15 18 20 23 25 27 29 31 33 35 36 38 40 41 42 43 44 45 46 47 48 49 50 50 50 48 48 48 47 45 44
11 11 11 11 10 10 10 11 12 12 11 11 11 11 11 12 14 16 19 22 25 28 31 33 35 38 40 42 44 45 46 47 47 48 49 49 50 51 51 52 52 52 53 53 52 51 51 50 48
11 11 12 11 11 13 14 13 13 12 12 12 13 14 15 17 20 23 26 29 32 35 38 40 43 46 48 50 52 53 54 55 55 55 55 55 55 55 56 56 56 56 56 55 55 55 55 54 53
12 12 13 13 14 15 15 15 15 16 16 18 19 21 22 24 26 29 32 35 38 42 45 48 51 54 57 59 61 62 64 64 65 65 65 64 63 62 62 62 61 61 60 59 59 58 57 57 56
12 13 14 14 14 15 15 15 16 16 17 19 20 22 25 27 31 34 38 42 45 49 52 55 58 61 64 66 68 70 70 71 72 73 73 72 70 69 69 68 68 67 65 64 62 62 61 60 58
12 12 12 11 11 11 11 11 13 14 17 21 24 27 30 33 38 42 45 48 52 55 58 62 65 67 70 72 74 76 76 77 76 76 76 76 74 71 70 70 71 72 72 70 68 66 66 64 62
9 8 8 8 8 9 10 11 14 17 21 26 29 33 36 39 43 46 49 52 56 59 63 67 70 73 75 77 78 80 82 82 81 81 81 80 78 74 72 70 71 72 74 75 75 72 71 69 67
5 5 5 7 8 10 13 15 18 22 26 30 33 36 40 43 46 48 52 55 59 63 67 71 74 77 79 80 81 83 84 85 85 87 88 87 84 82 79 76 74 74 74 75 77 78 77 74 73
4 5 6 8 10 13 16 19 21 24 28 31 34 38 41 45 48 52 56 60 64 69 73 77 79 80 81 83 86 87 87 87 88 89 88 87 86 86 86 84 82 80 78 78 78 79 80 79 77
6 7 9 11 13 15 16 19 24 27 30 34 37 41 45 48 51 56 60 65 69 74 77 80 82 83 86 89 90 90 90 90 87 82 79 76 75 75 78 79 80 80 79 78 80 82 82 83 82
8 10 12 14 15 17 20 20 26 30 33 37 41 45 49 53 56 61 66 70 74 77 80 82 85 88 90 90 89 88 85 79 72 65 61 59 58 58 59 62 65 69 72 73 75 80 84 85 85
12 13 13 17 19 20 23 26 30 33 37 41 45 49 53 57 61 65 69 73 76 78 81 85 88 89 90 87 83 77 70 63 58 55 56 57 57 56 56 56 57 59 62 64 67 72 81 86 88
14 16 17 18 21 23 25 28 31 35 41 45 48 52 56 60 65 69 73 76 78 81 85 88 88 88 84 77 70 65 61 59 58 58 59 60 61 61 60 59 57 57 56 55 56 62 72 83 89
14 16 17 20 23 25 26 28 32 38 42 45 50 55 60 65 70 73 76 79 82 85 87 87 86 82 76 72 68 66 64 64 64 65 65 65 65 64 62 60 58 58 57 55 54 53 57 71 85
15 17 18 17 21 26 28 29 32 39 43 48 53 59 64 70 74 76 79 81 84 85 86 85 81 77 75 73 72 70 68 66 65 64 63 63 63 63 62 62 60 59 59 58 56 53 50 54 69
18 20 21 22 23 27 33 32 35 41 46 52 57 63 69 74 77 78 81 83 84 84 83 81 79 78 75 70 65 60 55 52 51 50 50 50 50 51 53 56 58 59 58 59 59 56 52 49 53
19 19 20 24 27 28 31 38 40 45 51 57 62 67 74 78 78 80 83 85 85 84 82 81 79 74 66 60 56 53 51 50 49 48 48 47 46 45 45 46 48 52 54 56 60 60 55 52 49
19 20 23 26 28 29 33 41 46 51 56 61 66 72 77 79 80 82 84 86 85 82 81 79 72 64 59 56 54 53 53 55 55 53 51 48 47 45 44 44 44 44 47 51 56 60 58 54 51
20 21 23 28 32 37 42 45 49 53 59 65 71 76 78 80 81 83 85 84 82 82 80 72 65 60 57 56 55 56 57 58 57 55 52 49 47 46 46 44 44 44 43 46 51 56 58 55 52
22 25 29 33 37 40 43 45 50 57 63 68 72 76 79 81 82 84 84 82 81 81 74 66 62 60 58 57 57 58 59 60 58 55 51 48 46 45 45 44 43 43 43 43 46 52 55 54 51
23 25 28 33 36 38 44 49 54 59 63 68 72 77 79 81 82 84 83 81 81 76 68 64 62 61 60 59 58 60 61 59 55 51 48 46 45 44 44 43 42 41 41 41 42 46 51 53 50
24 26 28 33 38 44 47 51 55 60 65 69 74 78 79 81 83 83 81 81 78 70 65 64 63 61 60 59 59 61 61 56 51 48 48 47 46 46 45 43 41 39 38 39 40 42 46 50 48
25 28 32 35 41 46 49 52 57 61 66 72 76 77 80 81 82 80 80 80 73 66 64 64 63 62 60 59 61 61 57 52 50 50 50 48 46 45 43 41 40 37 35 37 38 40 42 45 45
26 29 33 37 41 46 51 54 58 62 67 73 77 78 80 80 80 79 80 76 68 64 63 63 63 62 61 61 60 58 55 52 51 51 50 49 47 45 42 40 39 37 33 34 36 38 38 40 43
27 32 35 38 41 44 49 55 59 63 68 74 77 77 78 79 79 80 78 71 65 63 63 63 63 63 62 61 58 56 54 53 52 52 51 51 49 47 45 43 40 38 34 32 33 35 35 36 40

GEFSSGP_500_meanwind_012.txt.gz
Wind_Speed
5 6 6 4 5 3 6 9 8 5 2 5 7 8 8 7 7 7 7 8 10 11 12 14 16 18 20 22 23 25 26 28 30 33 35 38 40 42 43 44 44 44 44 43 42 41 40 38 37
10 10 9 7 9 10 9 10 12 8 4 2 4 6 7 7 7 9 9 10 11 13 14 16 18 20 21 23 25 26 28 29 30 32 33 35 37 39 41 42 43 44 45 46 46 45 44 43 42
12 13 11 11 11 12 12 12 11 7 4 2 3 5 8 10 12 12 13 13 13 14 15 17 18 20 22 24 25 27 29 31 32 33 34 36 37 38 40 41 42 44 45 46 46 47 48 47 46
15 15 12 13 13 13 13 12 11 8 6 6 7 9 11 11 11 11 13 14 16 17 19 21 23 25 27 29 31 32 34 35 36 37 38 39 40 41 42 43 44 44 45 46 47 48 49 50 50
14 12 11 11 11 11 11 12 11 10 10 10 10 10 11 11 12 13 16 18 20 22 25 27 30 32 35 37 39 41 42 43 44 45 46 46 47 47 47 48 48 48 48 47 47 48 49 51 51
12 11 13 13 14 15 15 15 14 13 12 10 9 10 11 13 15 18 20 23 25 28 31 34 37 40 42 45 47 49 51 53 54 55 56 56 55 56 55 55 55 54 54 53 51 50 49 50 53
16 18 19 18 19 19 17 15 13 12 10 10 12 12 14 16 18 21 24 27 30 34 37 40 43 46 49 52 55 57 60 62 63 64 65 65 65 65 64 63 62 60 59 59 58 56 55 53 53
21 21 21 19 18 17 15 12 11 9 9 11 13 15 17 20 23 26 30 33 36 40 43 46 49 52 56 59 62 65 68 70 71 73 73 73 73 72 71 70 70 68 66 64 63 62 61 60 58
20 19 17 16 14 13 11 9 9 10 10 13 16 19 22 25 28 32 35 38 42 46 49 52 55 59 62 65 69 72 75 77 79 79 80 80 80 79 78 77 75 74 72 70 68 67 66 65 64
15 14 13 12 11 9 9 9 11 12 14 17 20 23 26 29 32 36 39 43 46 49 53 56 59 62 65 69 72 75 78 80 82 83 84 84 84 84 84 82 80 78 77 75 74 72 70 69 69
11 10 9 8 8 8 8 10 12 15 17 20 23 26 29 32 36 39 42 46 49 52 56 60 63 67 71 74 77 80 81 83 85 87 88 88 88 88 88 88 86 84 82 80 78 77 74 73 72
5 5 5 6 7 8 10 12 14 16 19 22 25 28 31 35 38 42 45 49 53 57 60 64 68 72 76 80 82 85 86 88 90 92 92 93 93 92 92 92 91 90 88 86 84 82 79 77 76
2 4 6 8 10 12 13 14 17 19 21 24 26 30 33 37 41 45 49 53 56 60 64 68 73 77 80 83 86 89 92 94 97 98 97 97 96 96 94 94 93 92 91 90 88 86 84 82 80
7 8 9 11 12 14 16 18 19 21 23 25 28 32 35 39 43 47 52 56 60 64 68 73 76 80 83 87 91 94 97 98 98 96 94 91 89 87 86 84 84 84 85 86 86 86 84 84 83
11 13 14 13 13 15 17 20 22 23 25 27 31 35 38 42 47 51 55 59 64 68 72 76 79 83 87 91 95 97 95 91 86 82 77 74 72 70 70 70 71 72 73 75 77 79 81 81 83
14 16 16 15 15 16 18 20 22 24 27 31 35 39 43 47 51 54 58 63 67 72 75 79 83 87 91 95 96 91 83 77 71 68 66 65 64 64 63 63 62 63 65 67 68 70 73 76 79
15 16 17 16 15 16 18 20 24 26 30 35 39 43 46 50 54 57 61 67 72 75 78 83 88 91 93 94 88 79 73 69 68 67 66 65 64 63 63 62 61 60 61 63 66 67 68 70 73
12 13 14 14 15 16 18 22 26 30 34 38 41 45 49 53 57 61 67 72 76 78 82 87 90 92 92 86 77 71 69 68 68 66 65 64 63 62 61 60 59 59 59 60 63 67 69 69 69
13 14 14 15 16 18 21 24 28 33 36 38 42 46 51 55 60 66 72 76 78 81 85 88 90 90 87 79 72 68 67 68 67 66 64 62 60 59 58 57 57 57 57 57 59 63 68 71 72
14 14 14 14 16 18 21 24 29 32 35 39 44 48 53 58 63 69 74 76 79 83 86 88 89 86 80 74 71 70 70 68 65 62 59 57 55 54 52 51 50 50 51 53 55 57 62 68 73
13 13 13 13 16 20 22 22 28 33 38 43 47 50 54 60 66 71 74 77 80 83 86 87 86 81 75 71 70 70 69 64 58 53 51 51 49 48 47 45 44 43 43 44 47 51 55 60 66
12 13 13 14 18 23 25 27 32 37 42 46 49 52 57 62 68 72 74 77 81 84 86 86 82 76 72 71 72 71 65 58 52 49 48 49 49 48 47 45 44 42 41 41 41 43 48 52 58
12 14 15 18 21 24 27 32 36 40 45 48 50 54 59 64 69 71 74 78 82 85 85 83 77 72 71 72 72 69 61 53 49 49 50 51 51 51 50 48 46 44 43 42 41 40 42 45 51
15 16 18 21 23 26 30 34 37 42 46 49 52 56 61 65 69 71 75 79 83 84 83 78 73 71 72 72 71 66 56 50 49 51 52 53 53 53 52 51 49 47 45 43 42 41 40 41 44
18 20 22 24 26 29 32 35 38 42 47 50 54 57 62 66 69 73 77 80 82 83 80 75 71 71 72 71 69 62 54 50 52 55 56 56 55 55 54 53 51 50 47 45 43 41 40 39 40
20 22 25 28 30 30 33 36 39 44 48 52 55 58 63 67 71 74 77 80 82 81 78 73 70 71 72 70 67 59 53 53 56 59 60 60 59 58 57 55 53 51 49 46 43 42 40 37 37
23 24 27 30 33 34 36 38 42 46 50 53 56 60 65 69 72 74 77 80 81 80 75 71 70 72 71 70 65 58 54 56 59 62 64 64 64 62 61 58 56 52 50 47 44 42 40 37 35
26 28 31 34 38 41 41 41 43 47 51 54 58 62 66 70 72 74 77 79 80 77 73 70 71 72 71 69 65 59 56 59 62 65 66 67 67 67 65 62 58 55 51 49 45 42 39 36 33
29 31 33 36 38 42 45 43 44 47 51 55 59 63 67 70 72 74 77 79 79 75 70 68 70 70 69 68 64 59 59 61 64 67 69 70 72 71 66 61 54 49 45 43 41 40 37 34 32
29 32 35 37 40 41 44 44 44 47 52 55 59 63 66 69 71 74 77 78 77 73 69 68 69 69 68 67 63 60 60 62 65 69 71 74 74 70 61 49 39 32 27 28 30 31 31 30 29

GEFSSGP_500_meanwind_018.txt.gz
Wind_Speed
3 2 2 1 1 1 2 4 6 6 4 2 4 4 5 6 7 8 9 11 11 12 13 15 16 18 19 21 22 24 25 27 28 29 31 32 33 33 33 34 35 37 39 43 45 48 49 50 50
6 6 7 7 5 4 3 3 2 4 7 8 8 8 9 10 12 12 12 13 13 15 16 18 20 22 24 26 28 30 32 33 35 36 37 38 40 41 40 40 40 40 40 41 43 45 48 50 52
14 14 13 12 11 11 10 10 10 10 10 11 11 11 11 11 11 11 12 14 16 18 20 22 24 27 29 31 33 35 37 38 40 42 43 45 46 47 48 48 48 48 47 46 45 46 47 48 50
16 16 15 15 14 13 12 13 14 14 14 12 10 9 10 11 12 13 14 16 18 21 24 26 29 32 34 36 38 40 42 44 46 48 49 51 52 53 54 54 55 55 55 55 54 52 51 50 50
16 16 16 15 15 16 17 17 15 13 11 10 10 10 11 14 15 16 18 21 23 26 29 32 35 38 40 43 45 48 50 52 54 56 58 59 61 62 62 63 63 62 62 62 61 60 59 57 56
17 18 19 18 18 16 15 12 11 9 8 9 10 12 13 16 18 20 23 26 29 32 34 37 40 42 45 48 50 53 55 58 60 62 65 67 69 70 71 71 71 71 70 69 68 67 66 65 63
19 19 18 17 14 12 11 9 8 7 8 9 11 13 16 19 22 25 28 31 33 36 38 40 42 45 48 51 54 57 60 63 66 68 71 73 75 76 78 78 78 78 77 76 75 74 72 70 69
16 16 14 11 9 8 7 6 7 8 9 11 14 16 20 23 26 28 31 33 35 37 40 43 46 49 52 56 59 62 65 68 71 73 76 78 80 82 84 85 85 85 84 83 82 80 78 76 74
11 10 9 6 5 5 6 7 9 11 13 16 18 21 24 26 28 30 32 35 37 40 43 47 50 53 56 59 62 65 69 72 74 77 80 83 85 88 90 91 92 92 92 92 90 88 86 83 80
5 4 4 4 4 6 9 10 13 15 18 20 23 25 26 28 30 33 35 38 40 43 47 49 52 55 59 62 65 68 72 76 80 84 87 89 92 94 95 96 97 98 99 99 98 97 94 91 87
3 5 6 8 9 11 13 15 17 19 21 23 25 26 28 30 32 35 37 40 43 46 48 51 54 58 61 65 68 73 78 83 87 89 92 95 96 97 97 97 97 97 97 98 99 100 99 98 95
7 10 12 13 14 16 17 19 20 21 23 24 25 27 30 32 35 38 41 43 46 49 52 55 58 62 65 69 73 78 83 87 90 92 95 96 97 96 93 91 88 86 85 86 87 90 92 95 96
12 14 15 17 18 19 19 20 21 22 24 25 27 30 34 36 39 41 43 46 48 51 55 58 62 65 69 73 78 83 88 91 93 95 96 95 92 88 84 80 78 77 76 76 76 77 79 82 86
15 17 17 18 18 18 18 20 21 22 24 27 30 33 36 38 40 42 45 47 50 54 58 62 65 69 73 78 83 88 91 93 95 95 92 89 84 81 78 76 74 72 71 70 71 72 73 73 75
17 17 18 18 17 17 18 19 20 22 25 27 31 34 37 40 42 44 46 49 53 57 61 65 68 72 77 82 86 89 91 93 93 90 86 83 79 77 76 73 68 64 62 61 62 65 68 70 71
16 16 17 17 18 18 18 19 21 23 25 28 31 34 38 42 45 46 49 52 56 60 64 68 71 75 80 84 88 90 92 92 88 85 82 79 77 74 70 65 58 53 51 50 50 53 58 63 67
15 16 17 18 18 18 18 19 21 23 26 29 32 36 40 44 46 48 51 55 59 63 67 70 74 78 82 86 88 91 91 88 84 81 79 77 74 69 63 56 51 48 46 46 46 46 48 52 58
16 17 17 18 18 17 18 20 22 24 27 31 34 38 42 46 48 51 54 57 61 66 69 72 76 80 83 86 89 90 87 83 81 79 77 75 71 64 57 52 50 49 49 49 48 47 47 47 48
16 17 17 17 17 17 18 21 24 26 30 33 37 40 44 48 51 53 56 59 64 68 71 73 77 81 84 86 88 87 83 79 78 77 76 73 67 61 56 53 53 53 54 54 54 52 50 49 48
15 16 16 15 16 18 20 22 27 29 32 36 39 43 46 50 52 55 58 62 66 69 72 74 78 81 85 88 89 86 80 78 77 75 74 71 65 60 57 56 57 58 59 59 59 58 55 52 52
14 15 17 17 19 22 23 24 29 32 35 39 42 45 48 51 54 56 59 63 67 69 72 75 79 83 87 88 87 82 78 76 75 73 71 67 63 60 59 60 61 63 64 64 64 63 60 56 54
15 17 19 21 23 25 28 28 30 34 38 41 43 46 49 52 55 57 61 64 67 70 73 77 81 85 88 87 84 81 78 76 75 74 70 65 61 61 62 64 67 69 70 70 69 67 64 60 56
18 20 22 24 25 27 30 32 33 37 39 42 43 46 49 53 55 57 61 65 68 71 75 78 82 86 87 86 83 79 78 77 76 73 68 62 60 62 66 69 73 74 74 73 72 69 66 62 58
20 22 23 25 27 29 31 33 35 38 39 41 43 46 50 53 55 58 62 66 69 72 76 79 83 86 86 84 81 78 77 76 75 71 65 62 63 67 72 75 75 73 71 69 67 65 63 60 57
22 25 27 28 29 31 32 33 35 36 38 41 44 47 51 53 54 58 63 67 70 73 76 79 83 85 84 82 79 77 77 76 74 70 66 66 69 75 78 75 68 62 57 53 52 52 53 53 52
23 26 29 31 32 31 31 32 34 36 39 42 44 47 50 52 54 59 63 67 71 73 76 79 83 84 83 80 77 76 76 75 73 70 69 72 77 81 78 70 61 53 46 41 36 34 37 41 44
22 26 29 32 34 34 34 35 35 39 41 43 45 47 49 51 54 59 64 68 71 74 76 80 83 83 81 78 75 74 75 74 71 69 71 75 81 82 76 65 55 47 42 36 29 22 21 28 34
24 27 30 34 37 39 37 38 40 41 42 44 45 47 49 51 54 59 64 68 71 74 76 80 82 81 79 76 74 74 74 73 71 70 72 77 81 79 71 59 50 44 39 34 26 15 7 15 23
23 27 30 32 36 39 41 41 44 44 44 45 46 48 49 51 55 60 65 68 71 73 76 79 81 80 76 74 72 72 72 72 71 71 73 78 80 76 66 54 46 40 36 32 28 19 8 5 14
24 27 29 32 35 38 41 44 47 48 48 47 47 48 50 52 55 60 65 68 71 73 76 78 79 78 74 72 71 71 71 71 70 71 73 78 79 73 62 50 41 36 32 30 27 23 14 6 6

GEFSSGP_500_meanwind_024.txt.gz
Wind_Speed
7 7 6 6 5 4 3 4 4 4 5 5 5 5 4 4 4 4 4 6 7 9 11 13 15 17 19 21 23 25 26 28 29 30 32 33 34 36 37 38 39 40 41 42 42 42 42 43 44
13 12 11 10 10 9 9 9 9 9 8 7 6 6 4 4 5 6 7 10 11 13 15 17 19 21 23 25 26 28 29 30 32 33 34 35 37 38 39 40 42 43 44 45 46 47 48 48 48
17 16 15 14 14 13 12 11 11 11 9 8 7 5 4 5 7 9 12 14 16 17 19 21 22 24 25 26 28 29 31 32 34 36 37 38 39 40 41 43 44 45 47 48 49 50 51 52 53
18 18 16 15 15 14 14 14 12 10 8 6 4 4 5 8 11 13 16 17 19 20 22 24 25 26 28 29 31 33 35 37 39 40 42 43 44 45 46 48 49 51 52 54 55 56 57 57 58
18 17 17 16 15 14 13 11 9 7 5 4 5 7 9 13 16 18 19 20 22 23 25 26 28 30 32 34 36 38 40 43 45 47 49 50 51 53 55 56 58 59 61 62 63 64 64 64 64
18 16 16 14 13 11 9 7 5 4 5 8 11 12 14 17 19 20 21 23 24 26 28 29 32 34 36 38 41 44 46 49 52 54 56 58 60 61 63 65 67 68 69 70 71 72 72 72 72
15 14 12 10 9 7 6 5 6 8 10 12 14 16 17 19 20 21 23 25 26 28 30 32 34 37 39 42 45 48 51 54 57 59 61 64 66 69 71 74 75 77 79 80 81 81 81 80 80
11 9 7 6 6 6 6 7 9 11 13 15 17 18 19 20 21 23 25 28 29 31 33 36 38 41 43 46 50 52 55 58 61 64 66 69 72 75 78 80 83 85 87 89 90 90 90 89 88
7 5 5 6 7 8 10 11 13 14 16 17 18 19 20 21 22 25 27 30 32 34 37 40 43 46 49 52 55 58 61 64 67 70 72 75 78 81 84 87 90 92 94 95 96 97 97 96 95
5 5 7 9 11 12 14 15 15 16 16 17 18 19 19 21 23 26 28 31 34 37 40 43 46 50 53 56 59 62 65 68 72 74 77 81 84 87 90 93 96 98 99 100 100 100 100 99 98
9 9 11 13 14 15 16 16 16 16 16 17 18 18 20 22 25 28 31 35 38 41 44 47 50 53 55 58 61 64 68 71 74 77 81 84 88 92 96 99 100 101 101 100 99 99 99 98 97
12 13 14 15 15 16 15 15 15 15 16 16 18 20 22 25 27 31 34 38 41 45 48 50 52 54 56 60 63 66 70 73 76 80 84 88 93 97 100 102 103 102 100 98 96 94 93 92 91
13 14 14 14 14 14 14 14 14 14 16 18 21 23 25 28 31 34 38 41 45 47 49 51 53 55 58 62 65 69 72 75 79 84 89 93 98 101 102 101 100 97 94 91 89 87 86 84 84
12 12 13 13 13 14 14 14 14 16 18 21 24 26 29 31 34 37 41 44 46 48 50 52 54 57 61 64 68 71 74 78 83 88 93 97 100 100 99 95 91 88 85 83 82 81 80 79 78
11 11 12 13 14 14 15 16 17 19 22 25 28 30 32 35 37 40 43 45 47 49 51 52 55 59 63 67 70 73 77 81 87 91 95 98 98 95 90 86 83 81 80 79 79 77 76 74 73
11 12 13 14 15 16 17 19 21 23 26 28 31 33 35 37 40 42 44 45 47 49 51 53 57 62 65 69 72 76 80 85 90 93 96 96 92 87 83 80 79 79 78 77 74 71 68 67 66
12 13 14 15 17 18 20 22 24 26 28 31 33 35 37 39 40 41 43 45 47 49 52 56 60 64 67 71 74 78 83 88 92 95 95 90 85 81 79 79 79 79 76 73 69 66 64 62 62
13 14 16 17 18 19 21 24 27 29 31 32 33 35 36 37 39 40 43 45 48 51 54 58 61 65 69 72 76 81 85 89 93 94 90 84 80 79 79 79 78 76 73 71 70 69 68 66 64
13 15 17 18 19 20 22 25 28 30 31 31 32 33 34 36 38 41 43 46 49 52 56 59 63 67 70 73 77 82 86 90 93 90 85 80 78 78 78 78 75 73 74 75 75 74 73 73 72
14 15 17 18 21 22 23 25 28 28 28 29 29 31 33 36 39 42 45 47 51 54 57 61 64 68 71 75 79 82 87 90 90 86 81 78 78 78 78 76 74 75 76 73 70 68 67 67 71
13 15 17 19 20 21 23 23 25 26 26 27 29 32 35 38 40 43 45 48 52 55 58 62 66 69 72 76 80 83 88 90 87 82 78 77 78 79 77 75 76 77 73 68 64 61 59 58 60
12 15 17 19 20 22 23 23 25 27 28 30 31 34 36 39 41 43 46 49 53 55 59 63 67 70 73 76 80 84 87 87 84 79 77 77 78 77 75 76 77 75 68 62 57 53 50 48 48
11 14 16 17 19 21 23 24 27 29 31 32 33 35 38 39 41 44 47 50 53 56 59 64 68 70 73 77 80 84 86 85 81 77 76 76 77 75 74 76 76 70 62 57 54 49 43 38 36
10 13 14 16 19 21 24 26 29 32 33 35 37 38 40 41 42 45 48 51 53 56 60 64 68 71 73 77 81 84 85 82 79 76 75 75 75 73 74 76 73 64 57 53 50 46 39 32 26
9 11 13 17 20 22 24 28 31 33 36 39 41 42 43 44 45 47 49 51 53 56 60 65 68 70 73 77 81 84 83 80 77 74 74 74 73 72 73 75 70 59 52 47 44 40 36 31 23
8 11 14 17 19 21 25 29 32 35 39 41 43 45 47 48 49 50 51 53 54 57 61 65 68 70 73 77 80 83 82 79 75 73 73 73 72 71 73 75 68 56 48 42 37 33 32 30 26
8 10 13 14 17 20 24 28 32 36 39 42 44 47 50 53 54 55 55 55 55 58 61 65 68 70 73 76 80 82 80 77 74 72 72 72 71 70 73 74 68 54 45 38 33 28 26 25 23
7 10 12 15 19 22 25 28 32 36 39 42 46 49 53 56 58 59 58 57 57 59 62 66 68 69 72 76 79 81 79 75 72 71 71 71 70 69 72 74 69 55 45 36 30 25 20 18 16
9 11 13 16 20 24 27 29 31 35 38 42 47 51 54 58 60 62 62 61 59 60 63 66 68 69 72 76 79 79 78 74 71 70 69 69 69 68 70 73 70 57 46 37 30 25 20 16 12
11 13 14 17 19 22 25 29 32 35 39 43 47 51 55 59 62 64 66 65 63 62 64 66 68 69 72 75 78 78 77 73 70 68 68 68 68 67 69 72 71 61 49 40 32 26 22 19 15

GEFSSGP_500_meanwind_030.txt.gz
Wind_Speed
7 7 7 6 5 4 3 2 3 4 5 5 5 6 7 8 9 8 8 9 10 11 13 14 16 17 19 20 22 23 25 26 28 30 31 33 34 35 36 37 39 40 41 42 42 43 43 43 43
9 9 9 8 8 8 6 6 7 7 6 6 5 6 7 7 8 9 10 12 13 14 16 17 18 20 21 23 24 25 27 28 30 32 34 35 37 39 40 41 43 44 44 45 46 46 47 47 47
13 13 11 10 11 11 9 8 8 7 7 6 5 5 6 7 9 11 12 14 15 17 18 19 21 22 23 25 26 28 29 31 33 35 37 39 41 43 44 46 47 48 49 50 51 52 52 53 53
15 14 13 12 11 11 9 8 7 6 5 5 5 6 7 9 11 13 15 16 17 19 20 21 23 24 25 27 29 30 32 34 37 39 41 43 44 46 48 50 51 53 54 55 56 57 58 59 59
15 14 13 12 10 9 8 7 5 4 4 5 7 9 11 13 14 15 17 18 19 21 22 23 24 26 28 30 32 34 36 38 40 42 43 45 47 49 51 53 55 57 59 60 62 63 63 64 65
13 12 12 10 8 6 4 4 4 5 7 9 11 12 14 15 15 17 18 19 20 22 23 25 27 29 31 33 36 38 40 41 43 45 47 49 52 54 56 58 60 62 64 65 67 68 69 70 70
9 8 8 6 4 3 5 6 7 9 11 12 13 14 15 15 16 17 19 21 22 24 26 28 30 33 35 37 38 40 42 44 46 48 51 54 57 60 63 65 67 69 70 72 74 75 77 78 78
5 5 4 3 4 6 8 10 11 12 13 14 14 14 15 15 17 19 21 24 26 28 30 32 34 36 37 39 40 42 44 47 49 52 55 58 61 65 68 71 73 75 78 80 83 86 88 90 91
5 6 7 8 9 11 12 13 13 13 13 14 14 14 15 17 19 22 24 27 29 32 34 35 37 38 39 40 42 44 47 49 52 55 59 62 65 68 71 74 77 80 84 88 93 96 100 102 104
9 10 11 12 13 13 13 13 12 12 13 13 14 15 16 19 21 25 28 30 32 34 35 36 37 38 40 42 44 46 49 52 55 58 62 65 68 71 74 77 81 85 91 96 101 106 109 112 114
12 12 13 13 12 12 12 12 12 12 12 14 15 17 19 22 25 28 30 32 34 34 35 36 37 39 41 44 46 49 52 55 58 61 65 68 70 73 77 81 86 92 98 104 109 113 115 116 117
12 12 11 11 11 11 12 12 12 13 13 15 17 19 22 24 27 29 31 33 33 34 35 37 38 41 43 46 49 52 55 58 61 64 67 69 73 76 80 86 93 100 106 110 112 112 110 107 104
10 9 9 10 11 11 12 12 13 13 15 16 18 21 23 25 27 29 31 32 33 35 37 39 40 43 46 48 51 54 57 60 64 67 69 71 75 79 85 92 99 105 109 109 105 98 92 87 84
8 8 9 9 10 11 12 12 13 14 15 17 19 21 23 25 27 29 31 33 35 37 38 40 42 45 48 50 53 56 59 62 65 68 70 73 78 84 91 97 103 105 103 97 90 84 81 80 81
8 8 9 9 10 11 11 12 14 14 16 17 19 21 23 25 27 29 32 35 37 38 40 42 44 47 50 53 55 58 61 64 66 69 72 76 82 88 95 100 102 100 92 85 81 80 81 82 83
7 8 9 9 10 11 11 11 13 15 16 18 20 21 24 26 28 31 33 36 38 40 41 44 47 49 52 54 56 59 62 65 67 70 74 79 86 93 98 100 98 91 83 80 80 81 81 81 81
7 7 7 8 10 11 12 12 13 16 18 19 21 23 25 27 29 32 34 36 39 41 44 46 48 50 52 54 56 59 62 65 68 72 77 83 90 95 98 97 90 83 79 79 79 79 79 77 74
7 8 8 8 9 10 12 14 15 17 19 21 23 24 26 28 30 32 35 37 40 42 45 46 48 50 52 54 56 60 63 66 70 74 80 86 92 96 96 91 84 79 78 78 77 77 75 72 67
7 8 8 8 8 10 12 13 15 18 20 22 24 25 27 29 31 33 36 39 41 43 45 47 49 50 51 54 57 61 64 68 71 77 82 89 94 96 92 85 79 78 77 76 76 75 71 65 61
7 7 6 7 8 10 12 13 15 18 20 22 24 26 28 31 34 36 39 41 44 46 48 49 50 51 52 54 58 62 65 69 73 78 84 91 94 93 87 81 77 77 76 75 75 74 68 61 58
7 7 6 6 7 8 11 12 14 17 19 22 24 27 30 34 37 39 42 44 46 49 51 53 54 55 55 57 60 63 67 70 75 80 86 91 93 89 83 78 76 75 75 74 74 72 66 59 54
8 7 6 6 6 7 8 10 13 17 19 22 25 28 31 35 39 42 44 46 49 51 54 57 59 60 60 60 62 65 69 72 76 81 87 91 90 85 79 76 76 74 74 74 73 70 64 58 52
8 8 7 7 7 8 10 11 14 16 18 21 25 28 31 35 39 43 46 49 51 53 56 59 63 64 64 63 64 67 70 73 77 83 87 89 87 82 77 75 75 74 74 73 72 67 61 55 50
10 9 9 9 9 9 11 13 15 17 20 22 25 28 32 35 39 44 47 50 53 56 59 62 65 68 69 67 67 69 72 74 78 83 87 88 84 79 75 74 74 74 73 73 71 65 59 52 46
12 11 11 11 11 12 12 14 16 18 21 23 26 29 32 36 40 44 48 52 55 58 61 64 66 70 72 71 70 71 73 75 79 83 87 86 82 77 73 72 72 73 73 72 69 64 57 50 43
14 14 14 14 15 14 14 15 17 19 21 24 27 31 34 37 41 45 49 53 56 60 62 65 68 71 74 74 73 73 74 76 79 83 86 85 81 75 72 71 71 72 72 72 68 63 56 48 41
16 16 17 17 17 17 18 19 19 20 22 25 28 32 35 38 41 45 49 53 57 61 64 66 69 72 75 76 75 74 75 77 80 83 86 84 80 74 71 70 71 71 72 71 68 63 56 48 41
19 19 19 19 20 21 21 22 23 24 26 28 31 33 36 39 43 46 50 54 58 61 65 67 70 72 75 78 77 76 76 77 79 83 85 83 79 73 70 70 70 70 71 70 67 62 56 49 42
22 21 22 22 23 25 25 24 26 27 29 32 34 37 39 42 45 48 51 54 58 61 65 68 70 73 76 78 79 77 76 77 79 82 84 82 78 72 69 69 69 70 70 70 66 62 56 48 42
24 24 24 26 26 27 29 26 28 30 31 32 35 38 41 44 47 50 52 55 58 61 65 68 70 73 75 78 80 78 77 76 78 81 83 81 76 72 68 68 68 69 69 69 65 60 55 49 43

GEFSSGP_500_meanwind_036.txt.gz
Wind_Speed
6 5 5 4 5 6 7 8 9 11 12 12 12 10 9 8 6 6 6 7 8 9 10 11 12 13 14 15 16 17 18 19 21 22 24 25 26 28 29 30 31 32 34 35 36 37 38 39 40
11 11 11 10 10 11 11 11 12 11 11 10 9 7 6 5 5 6 8 9 10 11 11 12 13 14 15 17 18 19 21 23 24 26 27 28 29 30 32 33 33 34 35 36 38 39 40 42 43
15 15 15 14 13 12 12 12 11 9 8 7 5 4 4 4 6 8 9 10 11 11 12 13 14 16 18 19 21 23 24 26 27 28 29 30 31 32 34 35 36 37 38 39 40 41 43 44 45
15 15 14 13 12 11 10 9 7 5 4 3 2 3 5 6 8 10 10 11 11 12 13 15 17 19 21 22 24 25 26 28 28 29 30 32 33 34 35 36 38 39 41 43 44 46 47 49 50
13 12 11 9 8 7 6 4 3 1 2 3 5 6 8 9 10 11 11 11 12 13 15 17 20 22 23 25 26 27 28 28 29 30 31 33 34 36 37 39 40 42 44 47 49 50 52 54 55
9 8 6 4 4 3 2 2 3 4 6 7 8 9 9 10 10 11 12 13 14 16 19 21 23 25 26 26 27 28 29 29 30 31 33 35 36 38 39 41 43 45 48 50 52 54 56 59 61
5 5 3 4 5 5 5 7 7 8 8 10 10 9 9 9 10 11 13 15 17 20 22 24 25 25 26 27 28 29 29 31 32 34 36 37 39 41 42 44 46 48 51 54 56 59 62 65 67
4 4 4 7 8 8 8 8 8 8 8 8 9 8 8 10 11 13 16 18 20 22 23 24 24 25 26 27 28 29 31 33 35 37 39 40 42 43 45 47 49 52 55 58 61 64 67 71 74
9 8 8 9 9 9 8 7 6 6 6 7 8 8 9 11 14 16 18 20 21 21 22 23 23 25 26 28 29 31 33 36 38 40 41 43 44 46 48 50 53 55 58 62 66 69 73 77 82
10 10 9 9 8 7 6 5 5 5 5 7 8 10 12 13 15 17 18 19 19 20 21 23 24 26 28 30 32 34 37 39 40 42 44 45 47 48 50 53 56 59 62 66 70 74 79 83 87
9 8 7 7 6 5 4 3 4 5 6 8 10 12 14 15 15 15 16 17 18 20 22 24 26 28 30 32 34 36 38 40 42 43 45 47 49 51 53 56 59 62 66 70 74 79 84 89 94
7 6 5 5 4 4 4 4 5 7 8 10 11 12 12 12 12 13 15 16 18 20 22 25 27 29 31 33 35 37 39 41 43 45 47 49 51 53 56 58 62 65 69 73 78 83 88 95 101
6 5 5 5 4 5 5 6 6 7 10 11 11 11 10 10 11 13 14 16 18 21 23 25 27 29 31 33 35 37 39 41 43 45 47 49 52 55 57 60 64 67 72 76 81 87 93 100 105
6 6 5 5 5 5 6 6 6 6 8 8 9 9 9 10 11 13 15 17 19 22 24 26 27 29 31 33 35 37 39 41 43 45 47 50 53 56 58 61 65 69 74 79 84 91 98 102 104
6 6 6 6 5 6 5 4 4 5 5 6 6 7 8 9 11 13 15 18 21 23 25 27 29 30 32 34 36 38 40 42 44 46 48 51 53 56 59 63 67 71 76 82 88 95 100 101 99
7 7 6 6 6 5 5 4 3 4 5 4 5 6 7 8 11 14 16 19 22 24 27 29 31 32 33 35 37 40 42 44 47 49 51 53 55 57 61 64 68 73 79 85 92 97 98 96 93
9 8 7 6 6 5 5 4 4 4 4 4 5 5 7 8 11 14 16 19 22 25 28 31 33 35 36 38 39 42 44 47 49 52 54 55 57 59 62 66 71 76 82 88 94 97 95 91 88
9 9 9 8 7 7 6 5 5 5 4 5 6 7 7 9 10 14 17 20 23 26 29 32 35 38 39 41 42 44 46 49 52 54 57 59 60 62 65 69 73 79 85 91 95 94 91 87 84
11 11 11 11 10 9 8 8 7 7 7 7 7 8 10 10 12 15 18 21 24 27 30 34 37 40 42 45 46 48 49 52 54 57 60 62 63 65 67 71 76 81 87 92 93 91 86 83 80
14 14 14 13 12 12 11 10 10 10 9 10 10 10 11 13 15 18 21 24 26 29 32 35 38 42 45 47 49 51 53 54 57 59 62 64 66 67 70 73 78 84 89 91 90 87 83 80 77
17 16 15 15 15 15 15 14 13 13 13 13 14 14 14 15 18 20 23 26 28 31 34 37 40 43 46 49 52 54 55 57 59 62 65 67 69 70 72 76 80 86 89 89 87 84 81 77 74
18 18 18 18 18 18 18 17 16 16 16 17 17 18 18 18 20 23 25 28 30 33 36 39 41 45 48 51 53 56 58 59 61 64 67 69 71 72 74 77 82 86 88 87 84 80 78 76 73
20 21 21 21 21 21 21 21 18 19 19 20 22 22 22 22 24 26 28 30 33 36 38 41 43 46 49 52 55 57 59 61 63 65 68 71 72 74 76 79 83 86 87 84 80 78 76 74 73
21 23 24 24 24 23 23 24 20 21 22 23 25 25 26 27 27 29 31 33 36 38 41 43 45 48 50 53 55 58 60 63 65 67 69 72 74 75 77 80 83 85 84 81 78 75 73 72 70
23 24 27 28 28 26 26 28 21 23 25 26 27 28 29 30 31 32 34 36 38 41 43 45 47 49 51 54 56 58 60 63 66 68 70 73 74 76 78 81 83 84 82 78 75 73 71 70 68
24 26 28 32 32 30 30 31 24 26 27 28 29 30 32 33 34 34 36 38 40 43 45 47 49 51 53 55 57 58 61 63 66 69 71 73 75 76 78 80 82 82 80 76 73 71 70 68 66
27 28 30 34 35 36 34 33 28 27 29 31 32 33 35 36 36 37 38 40 42 45 47 49 51 53 54 55 57 59 61 63 66 69 71 73 75 77 78 80 82 81 78 74 71 69 68 66 64
29 30 32 35 38 39 38 34 30 29 31 33 34 35 37 38 39 40 41 42 45 47 50 51 53 55 56 56 57 59 61 63 65 69 72 73 75 77 78 79 81 80 77 73 69 68 66 64 62
30 31 33 36 39 42 43 37 30 31 34 36 37 39 41 42 41 42 44 45 47 49 52 54 56 57 58 57 58 59 60 62 65 68 72 73 75 76 77 78 79 78 76 71 68 66 65 63 60
30 31 33 37 39 42 46 38 29 32 35 38 40 43 45 45 44 45 47 48 50 52 54 56 58 59 59 58 58 59 60 62 64 67 71 73 74 75 76 77 78 77 74 70 67 65 64 61 58

GEFSSGP_500_meanwind_042.txt.gz
Wind_Speed
9 7 6 4 3 3 4 5 5 5 5 5 5 4 4 3 2 1 2 3 4 5 6 7 8 9 11 12 13 14 15 16 17 18 19 19 20 20 20 21 21 22 23 24 24 25 25 26 26
12 11 9 8 8 8 8 8 8 7 5 4 3 2 1 1 2 3 4 5 6 7 8 10 11 12 14 15 16 17 18 19 20 20 21 21 21 21 21 22 23 23 24 25 26 27 27 28 29
13 11 11 11 10 9 9 8 7 5 4 2 1 2 4 4 5 6 7 7 8 9 11 12 14 15 17 18 19 20 20 21 21 21 21 21 22 22 23 24 25 25 26 27 28 28 29 30 32
11 9 9 9 8 7 6 4 2 1 1 3 5 6 7 7 7 8 8 9 10 11 13 15 17 18 19 20 20 21 21 21 21 21 21 22 23 24 25 26 28 28 29 30 31 31 32 33 34
7 6 6 5 4 3 1 1 3 4 6 7 8 9 9 9 9 9 10 10 12 14 15 17 19 20 20 20 20 20 20 20 21 21 22 23 25 26 27 29 30 31 32 33 34 35 36 37 37
4 3 3 2 2 3 4 6 7 8 9 10 10 10 10 10 10 10 11 12 14 16 17 18 19 19 19 19 19 20 20 21 22 23 24 26 27 28 29 30 31 32 34 35 36 37 39 40 42
4 5 5 5 6 7 8 9 10 11 11 11 10 10 11 11 11 11 12 14 15 17 18 18 17 17 18 18 19 20 21 22 23 24 25 27 28 29 30 31 32 34 35 36 38 40 42 43 45
6 8 8 9 9 10 11 11 11 11 11 11 10 10 12 12 12 13 14 15 16 16 16 16 16 17 18 19 20 21 22 23 24 25 26 27 28 28 29 30 32 33 35 37 39 41 43 45 47
9 9 10 10 10 11 11 11 11 11 12 11 10 10 12 13 13 14 14 14 14 14 14 15 17 18 19 20 22 23 24 25 25 26 26 27 27 28 29 30 32 34 36 37 40 42 44 46 48
11 11 10 11 11 10 11 11 11 11 12 12 11 11 12 13 13 13 13 13 12 13 14 16 17 19 20 21 22 23 25 25 26 27 27 28 29 30 31 32 34 35 37 39 41 43 45 47 50
11 11 11 11 11 10 11 12 12 12 12 12 12 11 12 12 12 12 12 11 12 13 14 16 18 20 21 22 23 24 26 27 28 29 30 31 32 33 34 35 37 38 39 41 43 45 47 50 52
12 12 11 11 11 11 11 11 12 12 11 12 12 11 11 11 11 11 10 11 12 13 15 17 18 19 21 22 23 25 27 29 30 32 33 34 36 37 38 39 40 41 43 44 46 48 50 53 55
12 12 12 12 12 12 11 11 12 12 11 11 11 11 11 11 10 10 10 11 12 14 15 16 18 19 21 23 24 26 28 30 32 33 35 36 37 39 40 42 43 44 46 47 49 51 53 56 58
13 13 13 13 13 12 11 11 11 11 10 10 11 11 11 11 11 11 11 12 13 14 15 16 18 20 22 24 26 28 30 32 34 35 37 38 39 41 42 43 45 46 48 50 52 54 56 59 62
15 14 14 15 14 13 12 11 11 11 11 11 11 11 11 11 12 12 13 13 14 15 17 18 20 21 23 25 27 29 31 34 36 37 39 40 41 43 44 46 47 48 50 52 54 57 60 62 64
16 15 16 16 16 15 14 13 13 13 13 13 12 12 13 13 14 14 14 15 16 18 19 21 22 24 25 27 29 31 33 36 38 40 42 43 44 46 47 48 49 50 52 54 57 60 63 65 67
17 17 17 18 17 17 16 15 17 15 15 15 15 15 15 16 16 16 17 18 19 21 23 24 25 27 28 29 31 33 36 38 40 42 44 46 47 49 50 50 51 53 54 56 59 62 65 67 69
18 19 19 21 20 19 18 17 20 19 18 18 18 18 18 18 19 19 20 21 23 24 26 28 29 30 31 32 33 35 38 40 43 45 47 49 50 52 52 53 54 55 56 58 61 64 67 69 71
20 20 21 23 23 22 21 20 21 23 22 21 21 21 21 21 22 22 23 24 26 28 30 31 32 33 34 35 37 38 41 43 45 48 50 52 53 54 55 56 57 57 59 61 62 65 68 71 73
21 21 22 23 25 25 24 22 24 26 25 25 24 24 23 24 24 25 26 27 29 31 33 34 35 36 38 39 40 41 43 46 48 51 53 54 56 57 58 58 59 59 61 62 64 66 70 73 77
22 23 23 25 26 27 28 24 24 28 27 27 26 26 26 26 27 27 28 30 32 34 36 37 38 40 41 42 43 45 47 49 51 54 56 57 58 59 60 61 61 62 63 64 65 68 71 75 79
23 25 27 27 28 28 29 29 20 28 28 27 27 28 28 29 29 30 31 33 35 37 38 40 41 42 44 45 47 48 50 52 54 56 58 60 60 61 62 62 63 64 65 65 67 70 73 76 80
26 27 29 29 30 30 29 32 23 25 28 28 29 30 30 31 31 32 34 36 38 40 41 43 44 45 46 48 49 51 53 55 57 59 60 62 62 62 63 64 65 65 66 66 68 71 75 78 81
28 30 31 31 31 31 30 32 27 24 27 28 30 31 31 33 33 34 37 39 40 43 44 45 47 47 49 50 52 54 56 57 59 61 63 63 63 63 64 65 66 66 66 67 69 73 76 79 81
30 32 35 35 33 31 31 30 26 25 27 29 30 32 34 35 36 38 40 42 43 45 47 48 49 50 52 53 55 56 58 60 61 63 64 64 64 64 65 66 67 67 67 68 71 74 77 80 81
31 33 35 38 37 34 33 32 28 27 28 29 30 33 36 38 40 42 44 46 47 48 49 50 51 53 54 55 57 59 60 62 63 65 65 65 65 65 66 66 67 67 67 69 72 75 78 80 80
33 33 35 39 41 39 36 33 29 24 25 27 30 33 36 39 43 46 48 50 51 52 52 52 54 55 56 57 59 60 61 63 64 65 65 65 66 66 67 66 67 68 68 70 73 75 78 79 78
34 35 36 38 43 44 41 36 31 29 29 29 31 35 38 42 45 48 51 53 54 54 55 55 56 57 58 59 60 61 62 64 65 66 66 66 66 66 67 67 68 68 69 71 73 75 77 78 77
35 35 37 40 42 45 47 41 33 33 33 34 35 37 41 44 47 49 51 53 55 55 56 56 57 57 58 59 61 62 63 64 66 66 67 67 67 67 67 67 67 68 69 71 73 74 76 76 74
36 37 38 40 42 44 48 46 35 37 38 40 41 42 43 45 47 48 49 50 52 53 54 55 56 57 58 59 61 62 64 65 66 67 67 68 68 67 67 67 67 67 69 70 71 73 74 74 73

GEFSSGP_500_meanwind_048.txt.gz
Wind_Speed
11 9 8 6 6 4 3 3 4 4 5 5 4 4 3 2 1 2 4 4 5 6 6 6 7 8 9 10 11 12 13 14 15 16 17 18 19 19 19 19 19 19 19 19 19 19 19 19 20
14 13 11 10 10 9 8 7 7 7 7 6 5 3 1 1 3 4 6 6 7 7 7 8 9 10 11 12 13 14 15 16 17 17 18 18 19 19 19 19 19 19 20 20 21 21 22 22 22
13 13 12 11 10 9 8 7 7 6 5 4 2 1 2 4 6 7 8 8 9 9 9 10 11 12 13 14 14 15 15 15 16 16 17 17 17 17 18 19 19 20 21 22 23 23 24 24 25
10 10 9 8 7 6 4 4 3 1 0 1 3 4 6 7 8 9 9 10 10 11 11 12 13 13 13 13 13 14 14 14 14 15 15 16 16 17 18 19 20 21 22 23 24 25 25 26 27
7 6 5 4 2 1 0 1 2 3 4 6 7 8 9 10 10 10 10 11 11 12 12 13 13 13 12 12 12 12 13 13 14 14 15 16 17 18 19 20 20 21 22 23 24 25 26 27 28
4 3 2 2 2 3 4 5 6 7 8 9 10 11 11 11 11 11 11 12 12 12 12 12 12 11 11 11 11 12 13 14 14 15 16 16 17 18 19 20 20 21 22 23 23 24 25 26 27
4 4 4 4 5 6 7 8 9 9 10 10 10 11 12 11 11 11 12 12 12 12 11 11 10 10 10 11 12 12 13 14 15 16 17 17 18 19 19 21 21 22 23 24 25 26 27 27 28
6 7 7 7 8 8 9 9 10 10 10 10 11 11 12 11 12 12 12 12 11 11 10 9 9 9 10 11 12 13 14 16 16 17 18 19 20 21 22 23 24 25 26 27 28 29 30 30 31
8 8 9 9 9 10 10 10 10 11 11 11 11 11 12 12 12 11 11 11 10 9 9 8 9 9 10 11 12 14 15 16 17 18 19 20 21 23 24 25 27 28 29 30 32 33 34 34 35
9 9 9 9 10 10 10 10 10 11 12 11 11 12 12 12 11 11 11 10 10 9 9 9 9 10 11 12 13 13 14 16 17 18 19 20 22 23 25 26 28 29 31 32 33 35 36 38 39
11 10 10 10 10 10 11 11 11 12 12 11 12 12 12 12 11 11 10 10 10 10 10 10 10 10 11 12 13 14 15 16 17 19 20 21 22 24 25 27 28 30 31 33 35 36 38 39 41
11 11 10 11 11 11 11 11 12 13 12 11 12 12 12 12 12 11 11 11 11 12 12 11 11 12 12 13 14 16 17 18 19 20 21 23 24 25 27 28 30 32 33 35 36 37 39 40 42
12 12 12 12 12 12 11 12 13 15 12 12 13 13 13 13 13 13 13 13 14 14 14 14 14 14 15 16 17 19 19 21 22 22 23 25 26 28 30 31 33 35 36 38 39 39 41 42 43
14 14 14 14 13 13 12 14 15 16 13 14 15 15 15 15 15 15 16 16 16 16 16 17 17 18 19 20 21 22 23 24 25 26 27 28 30 31 33 35 37 39 40 42 43 43 44 44 45
15 15 16 16 15 15 14 15 18 16 16 17 17 17 17 18 18 18 18 18 18 19 19 20 20 21 22 23 24 25 27 28 29 30 31 32 34 35 36 38 40 42 44 46 47 48 48 48 48
17 17 17 18 17 16 15 14 22 18 18 19 20 20 20 20 20 21 21 21 21 21 22 22 23 24 26 27 28 29 30 31 33 33 35 36 37 39 40 42 43 45 47 49 51 52 52 52 51
18 18 19 20 18 17 16 14 21 24 21 20 22 23 23 23 24 24 24 24 24 24 25 25 26 28 29 30 31 32 33 35 36 37 38 39 41 42 44 45 47 48 50 52 54 55 55 55 54
19 19 19 21 20 18 17 16 19 26 26 24 24 25 25 25 27 28 27 27 27 27 28 29 30 31 32 32 33 35 36 38 39 41 42 43 44 45 47 49 50 52 53 55 57 58 58 57 57
21 20 20 21 21 20 18 18 20 24 27 27 27 28 28 28 30 29 29 29 29 30 31 32 33 34 35 35 37 38 39 41 42 44 46 47 48 49 50 52 53 55 56 58 60 60 60 59 59
22 21 21 21 22 21 19 18 22 24 27 28 28 30 30 30 32 32 31 32 32 32 33 35 36 37 38 39 41 41 43 44 45 47 49 51 51 52 54 55 56 58 59 61 62 62 60 60 60
22 23 22 23 23 23 22 16 22 25 27 29 29 30 30 31 32 33 34 34 35 35 37 39 40 41 42 43 45 45 46 47 48 51 53 54 55 56 57 58 59 60 62 63 64 63 61 61 61
22 24 24 25 25 24 24 21 22 25 26 28 29 30 30 31 33 34 35 36 37 39 41 43 44 45 46 48 48 49 50 51 52 54 55 57 58 59 59 60 61 62 63 64 64 63 61 61 62
23 25 26 27 27 26 26 25 23 25 25 28 30 30 31 32 33 34 36 38 40 42 44 46 48 49 50 51 52 53 53 54 56 57 58 59 60 61 62 63 63 63 64 64 64 62 61 62 62
26 28 29 29 28 27 26 25 25 27 27 28 30 31 31 32 32 34 36 39 41 44 46 48 50 51 52 53 54 55 56 57 58 59 60 61 62 63 63 64 65 65 65 65 64 63 62 62 62
28 30 32 32 30 29 28 27 26 31 32 32 32 32 32 32 33 34 36 38 40 43 45 47 49 51 52 54 55 56 57 58 59 60 61 62 62 62 63 64 65 65 65 65 64 64 63 62 62
29 31 33 35 35 33 30 28 26 31 34 35 36 36 35 34 34 35 36 38 40 42 44 46 48 50 52 53 54 56 57 58 59 60 62 62 62 62 63 64 65 66 66 65 65 63 63 62 62
30 31 34 36 38 37 35 32 26 31 36 39 40 39 38 37 37 38 39 40 41 42 43 45 47 49 50 52 53 54 56 57 58 60 60 61 61 62 64 64 65 66 66 65 64 63 62 62 62
32 33 35 37 40 43 42 37 33 36 37 39 40 40 39 40 40 41 41 42 42 43 44 45 46 48 49 51 53 54 55 56 58 59 60 60 62 63 64 65 65 66 65 64 64 62 61 61 61
33 34 36 39 41 44 47 45 37 38 39 44 45 44 44 43 43 43 43 43 43 44 45 46 47 48 49 51 52 52 54 55 57 58 60 62 63 63 64 65 65 65 64 64 63 61 60 60 60
35 36 37 40 42 44 48 48 38 41 46 50 50 48 48 47 47 47 46 46 46 46 47 48 48 49 49 50 51 52 53 55 57 59 62 63 63 64 64 64 64 64 63 63 61 60 59 59 60

GEFSSGP_500_meanwind_054.txt.gz
Wind_Speed
9 8 7 5 5 4 4 3 1 1 2 2 2 2 2 1 1 2 3 3 4 5 6 7 8 9 10 11 12 13 13 13 13 13 13 14 14 14 14 14 15 15 15 16 16 17 18 18 19
11 10 9 8 7 8 7 5 4 3 2 2 2 1 1 1 2 3 4 5 6 7 8 9 10 11 12 12 13 13 13 13 13 12 13 13 13 13 13 13 14 14 15 15 16 17 18 19 20
9 9 9 8 7 8 7 5 4 3 2 1 1 2 3 3 5 6 6 7 8 9 10 10 11 12 12 12 12 12 12 12 12 12 12 12 12 12 12 13 13 14 14 15 16 17 17 19 20
6 6 6 5 4 6 4 2 1 1 2 3 4 5 6 7 8 9 9 9 9 10 11 12 12 12 12 12 12 11 11 11 11 11 11 11 12 12 13 13 14 14 15 16 16 17 18 19 20
4 3 2 2 1 2 0 1 3 5 6 7 8 8 8 10 10 11 11 11 11 11 12 12 12 13 12 12 11 11 10 10 11 11 12 12 12 13 14 14 15 15 16 16 17 18 19 19 20
3 4 4 3 3 4 4 5 7 8 10 10 11 11 8 13 11 12 12 12 12 12 13 13 13 12 12 11 10 10 10 11 11 12 12 13 13 14 15 15 16 17 17 18 19 20 21 22 23
5 6 7 7 7 7 8 7 9 11 12 12 12 12 10 14 12 13 13 13 13 13 13 13 12 12 11 11 10 10 11 11 12 12 13 14 14 15 16 17 17 18 19 20 21 22 23 24 25
8 8 9 9 10 10 10 10 11 12 13 13 14 13 11 15 13 13 14 13 13 13 13 13 12 12 11 11 11 11 11 12 12 13 13 14 15 16 16 17 18 19 20 21 22 23 24 26 27
9 10 10 11 11 12 12 11 13 14 14 14 15 13 13 14 15 14 14 14 14 14 13 13 13 12 12 12 12 12 12 12 13 13 14 15 15 16 17 18 19 20 21 22 22 23 25 26 27
10 11 12 12 12 13 14 13 14 14 16 14 14 14 14 14 15 15 15 14 14 14 14 14 13 14 14 14 14 14 14 14 14 15 15 16 17 18 19 19 21 22 23 23 24 25 26 27 29
12 12 12 12 13 13 14 15 15 15 16 15 14 15 15 15 15 15 15 15 16 16 16 16 15 16 16 16 16 16 16 17 17 18 18 19 20 20 21 22 23 24 25 26 27 28 29 30 31
14 14 13 13 13 14 14 15 16 18 17 16 16 17 15 17 16 17 17 17 17 18 19 18 18 18 19 18 18 19 20 20 20 21 21 22 23 23 24 26 27 28 29 30 31 32 33 34 35
15 15 15 15 14 15 15 17 17 19 19 18 18 19 17 18 19 19 19 19 20 20 21 21 21 21 22 21 22 22 23 23 24 24 25 25 26 27 28 29 30 31 32 33 34 35 36 38 39
16 17 17 17 16 15 15 18 19 19 19 20 20 21 20 20 21 21 22 22 22 23 23 24 24 25 25 25 26 26 26 26 27 28 29 29 30 31 32 32 34 35 36 37 38 39 40 41 42
19 19 18 18 17 16 16 18 21 20 19 20 22 22 22 23 23 23 24 25 25 25 26 26 27 28 28 29 29 29 30 30 31 32 33 33 34 35 35 36 37 38 39 41 42 43 44 45 46
22 21 20 18 18 17 17 17 23 22 20 20 22 23 24 24 25 26 27 27 28 28 28 29 30 30 31 32 33 33 33 33 34 35 37 38 38 39 39 40 41 42 43 44 46 47 48 49 50
23 22 23 21 18 18 18 18 23 24 23 22 22 23 24 25 26 27 28 29 30 30 30 31 31 32 34 35 36 36 36 36 38 39 40 41 42 43 44 44 45 46 47 48 50 51 52 53 54
24 23 22 23 20 18 19 19 21 23 23 24 24 24 24 25 26 27 28 29 31 32 32 32 34 35 37 37 38 39 39 40 42 43 43 44 45 47 48 48 49 50 51 52 54 55 56 57 57
22 21 21 21 20 19 20 22 23 23 23 24 24 25 25 25 26 27 27 28 30 31 33 34 35 37 39 40 40 41 42 44 44 45 45 47 48 51 52 52 53 54 55 56 57 59 60 60 61
19 19 19 19 19 19 19 23 25 24 24 25 25 26 25 25 26 26 27 27 28 30 32 34 35 37 39 41 42 43 44 45 46 46 48 50 52 54 55 56 56 57 58 59 60 62 63 63 64
18 18 18 18 18 19 20 23 27 26 26 26 26 26 25 26 26 26 26 27 28 30 31 33 35 36 38 41 43 44 46 47 48 49 51 53 55 55 56 58 59 60 61 61 62 64 65 65 65
16 18 19 19 20 19 21 21 27 30 28 26 26 26 26 26 26 27 28 28 28 30 31 33 35 37 39 41 43 45 47 48 49 51 53 54 56 57 58 59 61 62 63 64 65 65 65 65 65
18 19 20 21 22 21 22 22 23 30 30 29 28 27 27 27 28 29 29 30 30 31 32 34 36 38 40 41 44 46 47 49 51 53 54 56 57 58 59 60 62 63 65 66 66 66 65 64 64
20 21 22 23 23 23 21 22 23 28 30 33 33 31 31 31 31 32 32 32 32 33 34 35 37 39 41 42 44 46 48 50 52 54 55 57 58 58 59 61 63 64 65 66 67 66 65 65 64
21 23 25 26 26 26 24 24 24 28 31 34 36 36 36 34 33 33 33 33 34 35 36 38 39 41 43 44 46 48 49 51 53 55 56 58 59 59 60 62 64 65 66 66 66 66 66 65 65
22 24 26 28 29 29 28 26 26 30 33 36 38 39 38 35 34 34 35 37 38 39 40 41 42 44 45 46 47 49 51 53 54 56 57 59 60 61 62 64 64 65 65 66 67 67 67 67 67
25 25 27 30 32 33 32 29 28 28 33 38 39 40 39 37 36 36 38 39 40 41 42 43 44 45 46 48 49 51 53 54 56 57 59 61 62 63 64 64 64 65 65 66 67 67 67 68 68
28 29 31 32 35 37 36 35 33 32 34 36 38 38 37 36 36 37 38 38 39 40 41 42 44 45 47 49 51 53 55 56 58 59 60 61 62 63 64 65 65 65 66 67 68 69 69 70 69
29 30 32 34 35 37 38 33 32 34 34 35 35 34 33 33 34 35 36 37 39 40 41 43 44 46 48 49 51 53 55 57 59 60 61 62 63 64 65 66 67 67 68 68 69 70 71 71 71
32 31 32 33 34 35 37 35 32 33 35 35 33 32 32 33 34 36 37 38 40 41 42 43 45 46 48 49 51 52 54 56 57 59 60 61 62 64 65 66 67 68 68 69 69 70 70 70 70

GEFSSGP_500_meanwind_060.txt.gz
Wind_Speed
7 6 5 4 2 2 3 5 6 6 5 5 4 4 4 4 4 5 6 5 5 5 5 5 6 6 6 7 8 9 9 10 10 10 10 10 10 11 11 11 12 12 12 12 13 13 13 13 14
9 8 7 6 6 6 6 6 7 7 6 6 5 4 3 3 3 4 4 4 5 5 6 6 6 7 7 8 9 9 9 9 9 9 9 10 10 10 11 11 11 11 12 12 13 13 13 14 14
8 7 7 7 7 6 5 6 7 8 7 6 5 3 1 2 2 3 5 6 6 6 7 7 8 8 8 8 8 8 8 8 8 9 9 9 10 10 10 11 11 12 12 13 13 14 14 14 15
6 6 5 5 5 3 1 2 4 5 4 3 2 1 3 3 4 5 6 8 8 8 8 9 9 8 8 8 8 8 8 8 8 8 9 9 10 10 10 11 12 12 12 13 13 14 14 15 16
5 5 5 5 4 3 3 2 1 1 1 0 2 3 6 6 6 7 8 9 10 10 9 9 9 9 9 9 8 8 8 8 8 8 9 9 10 10 10 11 11 12 12 13 13 14 15 15 16
5 5 5 5 6 5 5 4 3 3 3 4 4 5 8 10 8 7 9 11 12 11 10 10 10 10 9 9 8 8 8 8 9 9 9 9 10 10 10 11 11 11 12 13 13 14 15 16 17
6 6 6 6 6 6 5 6 5 5 5 6 7 7 10 12 9 8 9 11 12 12 11 10 10 10 10 9 9 9 9 9 9 9 9 10 10 10 11 11 11 12 13 13 14 14 15 16 17
7 7 7 6 6 7 6 7 8 8 7 8 8 9 11 13 11 10 10 11 12 13 12 11 11 11 11 11 11 10 10 10 10 11 11 11 11 12 12 13 13 14 14 15 16 16 17 18 19
7 8 8 7 7 7 8 8 10 10 9 9 8 10 12 13 13 12 11 11 12 13 13 12 12 12 12 12 12 12 12 12 13 13 13 13 14 14 15 15 16 16 17 18 19 19 20 21 22
8 9 9 9 8 9 9 9 10 11 12 10 8 11 13 14 14 13 12 12 13 14 14 14 14 14 14 14 15 15 15 15 15 15 16 16 17 17 18 18 19 19 20 21 22 23 24 25 25
10 10 10 10 10 10 10 11 10 10 12 12 11 12 14 15 15 15 14 14 14 15 16 17 16 16 16 17 17 18 18 18 18 19 19 19 20 21 21 22 22 23 24 24 25 26 27 28 29
11 11 11 11 12 12 12 12 13 13 12 12 12 12 15 16 16 16 16 16 16 17 18 19 19 19 19 20 20 21 21 22 22 22 22 23 24 24 25 25 26 27 28 28 29 30 31 32 33
14 14 13 13 13 14 14 14 13 14 14 14 13 12 14 17 18 18 18 19 19 19 19 20 20 21 22 22 23 24 25 26 26 26 26 27 28 28 29 29 30 31 31 32 32 33 34 35 36
16 16 16 16 16 16 16 16 15 14 14 15 15 14 14 16 18 19 20 21 21 21 21 22 22 23 24 25 26 27 28 29 30 30 30 31 31 32 33 34 34 35 36 36 36 37 38 39 40
19 19 19 18 17 17 18 18 16 14 13 15 16 16 15 16 18 19 21 22 23 23 24 24 25 25 26 28 29 30 31 32 33 34 35 35 35 36 37 38 39 40 40 40 41 41 42 43 44
21 20 20 19 19 19 19 20 19 15 14 14 15 16 16 17 18 20 21 22 23 24 25 27 27 28 29 30 31 32 33 34 35 37 38 39 40 41 42 42 43 44 44 44 45 46 46 47 48
21 21 20 20 19 19 19 20 22 17 15 15 15 15 16 16 18 19 21 22 23 24 25 27 29 30 31 32 33 34 35 36 38 39 41 43 44 45 46 46 47 48 48 48 49 50 51 51 52
20 19 19 19 17 18 19 19 19 18 17 17 17 17 17 17 17 19 20 21 22 23 25 27 28 30 32 33 34 35 36 37 39 41 43 45 46 48 49 50 51 52 53 53 54 54 55 55 56
18 17 17 18 16 16 17 17 17 17 17 18 18 18 18 18 18 19 19 21 22 24 25 26 28 30 32 34 35 36 37 38 39 40 42 44 46 49 51 52 53 55 56 57 57 58 58 59 61
16 16 16 16 15 14 15 17 16 16 17 18 18 19 19 19 19 20 21 22 23 25 26 27 29 30 32 34 35 36 37 38 39 41 42 44 47 49 51 53 55 57 59 59 60 61 62 62 64
14 14 13 13 14 15 15 17 17 16 17 17 18 19 20 20 21 22 23 25 26 27 28 29 30 32 33 34 36 37 38 39 41 43 45 46 48 50 52 54 56 58 60 62 63 64 65 65 66
12 13 12 11 12 14 16 19 19 17 17 17 18 20 20 21 23 24 26 28 29 30 31 31 32 33 34 35 37 38 39 41 43 45 46 48 50 52 54 56 58 60 62 63 65 66 67 68 68
12 13 12 11 12 14 16 19 21 20 19 19 20 21 22 23 25 27 28 29 30 31 32 32 33 34 35 36 38 39 41 42 44 46 48 51 53 55 57 59 60 62 63 64 66 68 69 70 70
13 14 14 13 14 15 16 19 22 23 23 23 23 24 24 24 25 27 28 29 30 31 32 33 34 34 36 37 38 40 42 43 45 47 49 51 53 56 58 60 62 64 65 66 68 69 71 71 71
14 15 16 16 16 17 19 20 23 25 26 26 26 26 25 25 25 26 28 29 29 30 31 31 32 33 34 35 36 38 40 41 43 45 47 49 51 54 56 59 60 62 64 66 68 69 70 71 72
16 17 19 20 20 20 22 23 25 25 26 27 26 25 25 25 25 25 26 27 28 28 29 29 30 31 33 34 36 37 39 40 42 44 46 48 50 52 55 57 59 61 62 64 66 67 69 71 72
18 19 21 24 25 25 24 24 26 27 27 25 24 24 23 23 23 24 26 27 27 28 29 30 31 33 35 37 38 40 42 44 45 47 49 51 53 54 56 58 59 61 63 64 65 66 67 69 70
21 22 24 26 28 28 26 25 27 26 25 24 23 22 22 22 23 25 26 27 28 29 31 32 34 36 38 40 42 44 46 48 50 52 54 56 57 58 59 60 61 62 63 64 66 67 67 68 69
24 25 26 28 29 31 29 25 25 25 24 23 22 22 22 23 25 26 27 29 31 33 35 36 38 40 42 44 47 49 51 53 55 57 59 60 62 63 64 64 65 65 66 66 67 67 67 68 68
26 27 28 30 31 30 29 24 24 24 24 23 23 23 24 26 27 29 30 32 35 37 39 41 43 45 47 50 52 54 57 59 60 62 63 65 66 66 67 68 68 68 68 69 69 69 69 69 68

GEFSSGP_500_meanwind_066.txt.gz
Wind_Speed
10 10 9 7 5 3 2 3 5 6 8 10 10 10 10 10 9 8 8 9 9 9 10 10 10 10 10 11 11 11 11 12 11 11 10 10 9 9 9 9 9 10 10 11 11 12 12 13 13
10 10 9 9 8 7 5 2 2 4 6 8 9 9 9 9 9 8 8 8 8 9 9 10 10 11 11 11 11 11 12 11 11 10 9 9 9 8 8 8 9 9 10 10 11 11 12 12 13
9 9 9 8 7 7 6 5 2 2 4 6 7 8 8 8 8 7 8 8 8 9 10 10 11 11 12 12 12 12 11 11 10 9 9 9 9 9 8 8 9 9 9 10 10 11 12 12 13
7 7 7 6 5 5 4 3 2 1 3 5 6 6 7 8 8 8 8 9 9 10 11 11 12 12 12 12 12 12 11 11 10 9 9 9 9 9 9 9 9 9 9 10 10 11 12 12 13
6 6 5 4 3 2 2 1 1 3 4 5 6 7 8 8 8 9 9 10 11 12 12 13 13 13 13 13 12 12 11 11 10 10 9 9 9 9 9 9 9 9 10 10 11 11 12 13 13
5 5 4 3 2 1 1 2 3 5 6 7 8 9 9 9 9 10 11 12 12 12 13 13 14 14 14 13 13 13 12 11 11 11 10 10 10 10 10 10 10 10 10 11 11 12 12 13 14
4 4 4 3 2 3 3 4 5 6 8 9 10 11 11 10 10 11 12 13 13 13 13 14 14 14 14 14 14 14 13 13 12 12 12 12 11 11 12 12 12 12 12 13 13 14 14 15 15
4 4 4 4 4 5 5 5 6 8 9 10 11 11 12 12 12 13 14 14 14 14 14 14 15 16 16 15 15 15 15 15 14 14 14 14 14 14 14 14 15 15 15 16 16 16 17 18 18
5 5 5 6 6 7 7 7 8 9 10 10 10 11 13 14 14 14 15 15 15 15 15 16 16 17 17 17 17 17 17 17 17 17 17 17 17 17 17 18 18 18 19 19 20 20 21 21 22
7 7 7 7 8 9 9 9 9 9 9 8 9 12 13 15 15 15 15 16 16 17 17 18 18 18 19 19 19 19 20 20 20 20 20 20 21 21 21 22 22 22 23 23 23 24 24 25 25
11 11 10 10 10 10 11 11 11 11 11 9 10 13 14 15 16 16 16 17 18 19 19 20 20 20 21 21 22 22 23 23 23 24 24 24 25 25 26 26 26 26 27 27 28 28 28 29 29
15 15 14 14 13 13 13 13 12 12 12 12 13 14 15 16 17 17 18 18 19 20 21 21 22 22 23 24 25 25 26 26 27 27 27 28 29 29 30 30 30 31 31 32 32 32 33 33 34
19 18 18 17 16 15 15 15 15 15 14 14 15 16 16 17 18 18 18 19 20 22 22 23 23 24 25 25 27 28 29 30 30 31 31 32 33 33 34 35 35 36 36 37 37 37 37 38 38
22 22 21 20 20 19 18 18 17 16 16 16 16 17 17 18 18 19 19 19 20 21 23 24 25 26 26 27 28 30 31 31 32 33 34 35 36 37 38 39 39 40 41 41 41 42 42 43 43
24 24 24 23 22 21 21 21 19 17 17 18 18 18 18 19 19 20 20 20 21 21 23 24 26 27 28 29 30 31 32 33 34 35 36 37 38 39 40 41 43 44 45 46 46 46 47 47 48
26 25 25 25 24 23 23 23 20 17 17 19 19 19 19 20 20 21 21 21 22 22 23 24 25 27 28 29 30 31 32 33 34 36 37 38 40 41 42 43 44 47 48 49 49 50 51 51 52
26 26 25 26 24 23 23 23 21 17 17 18 19 20 20 21 22 22 23 23 24 24 24 25 25 26 28 29 30 31 32 33 35 37 38 40 41 42 43 44 46 48 49 50 51 52 54 54 55
25 24 24 24 22 22 21 21 21 18 18 18 19 20 21 22 22 23 24 25 25 26 26 27 27 28 29 30 30 31 32 34 35 37 39 40 42 43 44 45 46 48 50 51 52 53 55 56 57
23 23 23 23 21 20 20 19 19 19 18 18 19 20 22 23 23 24 25 26 27 27 28 29 29 29 30 31 32 32 33 35 36 38 39 41 42 44 45 45 47 48 50 51 53 54 56 56 58
22 21 21 21 19 18 18 18 17 18 18 19 20 22 23 24 25 26 27 28 29 29 30 31 31 32 32 32 33 33 34 35 36 38 39 40 42 43 44 46 47 49 50 52 53 55 57 57 59
21 20 19 19 18 17 17 16 16 17 18 20 21 23 24 25 25 27 28 30 31 31 32 33 33 33 34 34 34 34 35 35 36 37 38 40 41 43 44 46 48 49 51 52 54 56 58 59 61
19 18 17 17 18 17 16 15 15 17 19 21 23 24 26 26 27 29 30 32 32 33 33 33 33 33 33 33 33 34 34 35 36 37 38 39 40 41 43 45 47 49 51 53 55 57 59 61 62
18 18 17 17 17 17 17 17 16 17 19 22 24 26 27 29 30 31 32 33 33 33 32 32 32 31 31 31 31 32 32 33 34 35 36 38 40 42 44 46 47 49 51 52 55 57 59 61 63
18 18 17 17 18 17 17 18 18 19 21 23 25 27 29 30 31 32 32 32 32 32 32 30 29 29 29 29 29 30 31 33 34 36 38 40 42 44 46 48 50 52 54 55 57 59 61 63 65
19 19 19 19 18 17 18 20 20 21 24 25 27 29 30 31 32 32 32 32 32 31 30 28 28 28 29 29 31 32 33 35 37 39 41 43 45 48 50 52 54 56 58 60 62 64 65 67 68
21 20 21 20 19 18 20 21 23 25 27 28 29 30 31 31 31 32 32 32 31 30 29 29 29 29 30 31 33 35 37 39 41 43 45 48 50 52 55 57 59 62 64 66 67 69 70 71 73
22 22 22 23 22 21 22 23 25 27 29 30 31 31 31 31 31 32 32 31 31 30 30 30 31 32 33 35 37 39 41 44 46 49 51 54 56 58 60 63 65 67 69 71 73 74 75 76 77
24 23 24 24 26 25 24 25 27 29 30 31 31 31 31 31 31 32 32 32 31 32 32 33 34 36 38 40 42 44 47 49 52 54 57 60 62 65 67 69 71 73 75 77 78 79 80 80 81
25 25 26 27 28 29 28 26 28 31 32 32 32 32 32 32 32 33 33 33 33 34 35 36 38 40 42 45 47 49 52 55 57 60 63 66 68 71 73 75 77 79 80 82 83 84 84 85 85
27 27 28 29 30 31 31 30 29 32 33 34 34 33 33 34 34 34 34 35 35 37 38 40 42 44 47 50 52 55 58 60 63 66 69 72 74 76 79 81 82 84 85 86 87 88 88 88 88

GEFSSGP_500_meanwind_072.txt.gz
Wind_Speed
10 9 8 7 7 7 8 9 10 11 11 10 10 10 10 11 11 12 12 13 13 13 13 13 13 13 14 14 14 15 15 15 16 16 16 16 16 16 16 16 16 16 16 16 16 16 16 16 17
9 9 9 8 8 7 7 7 8 9 9 9 10 10 10 11 12 13 13 13 14 14 13 13 13 14 14 14 15 15 15 16 16 16 16 16 16 16 16 16 16 16 15 15 15 15 15 15 16
8 8 8 8 7 6 6 6 6 6 7 7 8 9 10 11 12 13 13 14 14 14 13 13 14 14 15 15 15 15 15 15 15 15 15 15 15 15 15 15 15 15 15 15 15 15 15 15 15
6 7 6 6 5 5 5 5 5 5 5 5 5 7 9 10 11 12 13 14 14 14 14 14 14 14 15 15 15 15 15 15 15 15 15 15 15 15 15 15 15 15 15 14 14 14 14 14 14
5 5 4 4 3 3 3 3 4 4 4 4 5 7 8 9 11 12 13 13 14 14 14 14 15 15 15 15 15 15 16 16 15 15 15 15 15 15 15 15 15 15 14 14 14 14 14 14 14
4 3 3 2 2 1 1 2 3 4 5 6 7 8 9 10 11 13 14 14 14 15 15 16 16 16 16 16 16 16 16 16 16 16 16 15 16 16 15 15 15 15 15 15 15 15 15 15 15
2 2 1 1 1 0 1 2 3 4 5 7 8 9 10 11 13 14 15 15 16 16 16 17 17 17 17 17 17 17 17 17 17 17 17 17 17 17 17 17 17 17 17 16 17 17 17 17 17
1 0 1 1 2 1 2 3 4 6 7 8 9 11 12 13 14 15 16 16 17 17 18 18 19 19 19 19 19 19 19 19 19 19 19 19 19 19 19 19 19 19 19 19 19 19 19 19 20
3 2 2 3 3 3 3 4 5 6 8 9 10 12 14 15 15 16 16 17 18 19 19 20 20 20 20 21 21 21 21 21 21 21 22 22 22 22 22 22 22 22 22 22 22 23 23 23 23
7 6 5 5 6 6 6 6 7 8 9 10 11 13 14 15 16 17 17 18 19 20 21 21 22 22 22 23 23 23 23 24 24 24 24 25 25 26 26 26 26 26 26 26 26 26 26 27 27
11 10 9 9 9 10 10 10 10 11 11 11 13 14 15 16 17 17 18 18 19 20 21 22 22 23 23 24 24 25 25 26 26 27 27 28 28 29 29 29 30 30 30 30 30 30 30 31 31
15 14 13 13 13 13 13 13 13 13 13 14 15 16 17 17 17 17 18 18 19 20 21 22 23 23 24 25 25 26 27 27 28 29 29 30 31 32 32 33 33 34 34 35 35 35 35 35 35
18 18 17 16 16 16 16 16 16 16 16 17 17 18 18 18 18 18 18 19 19 20 21 21 22 23 25 26 27 27 28 29 29 30 31 31 32 33 34 34 35 36 37 38 38 39 39 40 40
20 20 20 19 19 19 19 19 18 18 18 19 19 19 19 19 18 18 19 19 19 20 20 21 22 23 24 25 26 27 28 29 30 30 31 32 33 34 35 35 36 37 38 39 40 41 42 43 44
21 21 21 21 21 21 21 21 20 20 20 20 20 20 19 19 19 19 19 19 19 20 20 21 21 22 23 24 25 26 27 28 30 31 32 32 33 34 35 36 37 38 39 40 41 42 43 44 45
21 22 22 22 21 22 22 22 20 20 21 21 20 20 20 20 19 19 19 19 19 20 20 21 22 22 23 24 24 26 27 28 29 30 31 33 33 34 35 36 37 38 39 40 41 42 44 45 46
22 22 23 22 21 21 22 23 21 20 21 21 20 20 19 19 19 18 18 19 19 20 21 22 23 23 24 25 26 27 28 29 30 31 32 32 33 33 34 35 36 37 38 39 41 42 43 44 46
21 22 22 22 21 21 22 22 21 20 20 20 20 19 19 19 19 19 19 20 21 22 23 24 24 25 26 27 28 29 30 31 31 32 33 33 33 34 34 35 36 37 38 39 41 42 43 44 46
21 22 22 22 21 21 21 21 21 20 19 19 19 19 19 19 19 19 20 21 22 23 24 25 26 27 28 29 30 31 31 32 33 33 34 34 34 35 35 36 37 38 38 40 41 42 43 44 46
22 22 22 22 21 20 20 20 20 19 19 18 18 18 19 19 20 21 22 23 24 26 27 28 29 29 30 31 31 32 32 32 32 32 32 33 33 34 34 35 36 37 38 39 41 42 44 45 48
22 22 21 21 20 19 19 19 19 19 19 18 18 19 19 20 21 22 24 25 26 28 29 30 30 30 31 31 31 31 30 30 30 30 31 31 32 33 34 35 36 37 39 41 43 46 48 50 52
22 21 21 21 20 18 18 18 19 19 19 19 19 19 20 21 23 24 26 27 28 30 30 31 30 30 31 31 30 29 29 29 29 29 30 30 31 33 34 36 38 40 42 45 47 49 52 54 55
22 21 21 20 19 18 18 19 17 19 19 19 20 20 21 23 25 26 28 29 30 31 31 31 31 30 30 30 29 28 28 28 29 30 31 32 34 36 38 40 42 44 46 49 52 54 57 59 61
21 21 21 20 19 18 18 19 18 18 19 20 21 22 23 24 26 28 29 30 31 32 31 31 30 30 29 29 28 29 29 30 31 32 34 35 37 40 42 44 47 49 52 54 57 59 62 65 67
21 21 20 20 19 19 19 19 19 19 20 21 22 23 24 26 28 29 30 31 32 31 31 30 30 29 29 29 29 30 31 32 34 36 37 40 42 45 47 50 52 55 58 60 63 65 68 70 73
21 21 21 21 20 19 19 20 20 20 21 22 24 25 26 28 29 31 31 32 31 31 31 30 30 29 30 31 32 33 34 36 37 40 42 44 47 50 52 55 58 60 63 66 68 71 73 76 78
21 21 21 22 21 21 20 20 20 21 23 24 25 26 28 29 31 32 32 32 32 32 32 31 31 31 32 34 35 36 37 39 42 44 46 49 52 54 57 60 62 65 68 71 74 76 78 80 82
22 21 21 22 23 22 21 21 22 23 25 26 27 28 29 31 32 33 34 34 34 34 33 33 33 33 35 36 37 39 41 43 46 48 51 54 56 59 62 65 67 70 73 76 78 80 82 84 86
22 22 23 24 24 24 24 22 23 25 26 28 29 30 31 33 34 35 36 36 35 35 35 35 35 36 37 39 41 43 45 48 50 53 56 58 61 64 67 69 72 75 78 80 82 84 86 88 89
23 23 24 25 25 26 26 24 25 27 29 30 31 32 34 35 37 37 38 37 36 36 37 37 37 38 39 41 44 46 49 51 54 57 60 63 66 69 72 74 77 80 82 84 86 88 89 91 92

GEFSSGP_500_meanwind_078.txt.gz
Wind_Speed
5 4 4 5 7 9 8 8 9 9 9 8 8 9 9 8 8 9 9 10 10 12 13 14 15 15 16 16 16 17 17 18 18 18 18 18 18 18 18 18 18 17 17 17 17 17 18 18 18
6 5 5 5 5 6 6 6 8 9 9 9 10 11 10 8 9 9 9 9 10 11 12 13 14 15 15 16 16 17 18 18 18 18 18 18 18 17 17 17 16 16 16 16 16 16 17 17 17
5 5 5 4 3 3 3 4 5 6 8 9 10 11 11 10 9 10 10 10 11 11 13 13 14 15 16 16 17 17 18 18 18 18 17 17 17 16 16 16 16 16 16 16 16 16 16 16 16
4 4 4 3 3 2 1 2 2 4 6 7 9 10 9 10 10 10 11 11 12 12 13 14 15 16 16 17 17 17 17 17 17 17 17 17 17 17 16 16 16 16 15 15 15 15 15 15 15
3 3 3 3 3 2 1 1 2 4 5 5 7 7 6 8 9 10 11 12 12 13 14 15 16 16 17 17 17 17 17 17 17 17 18 18 17 17 16 16 15 15 15 15 15 15 15 15 15
1 1 2 2 2 1 0 2 3 4 5 6 7 8 5 9 9 10 12 12 13 14 14 16 16 17 18 18 18 18 18 18 18 18 18 18 18 17 17 16 16 16 16 16 16 16 16 16 16
2 1 1 1 1 0 1 2 4 5 6 7 8 9 6 9 11 12 13 14 14 15 16 17 18 18 19 19 20 20 20 20 20 20 19 19 19 18 18 18 18 18 18 18 18 18 18 18 18
4 3 2 2 2 2 3 4 5 6 7 8 9 10 7 10 12 13 14 15 16 17 17 19 20 20 20 21 21 22 22 22 22 21 21 21 21 21 21 21 21 21 21 21 21 21 21 21 21
7 6 6 5 5 5 5 6 7 8 9 10 11 12 11 12 13 14 16 17 18 19 19 20 21 22 22 22 23 23 23 24 24 24 23 23 23 24 24 24 24 24 24 24 24 24 24 24 24
11 10 9 8 8 8 8 9 10 10 11 12 13 13 13 14 14 15 16 17 18 19 20 21 21 22 23 23 24 24 24 25 25 25 25 25 25 25 26 26 27 27 27 27 28 28 28 28 28
14 14 13 12 12 12 12 12 13 13 14 14 15 15 15 16 16 17 17 18 19 20 21 21 22 22 23 23 24 24 25 25 26 26 26 27 27 27 27 28 29 29 30 30 31 31 32 32 32
17 16 16 16 16 16 16 16 16 16 17 17 17 18 18 18 18 19 19 19 19 20 21 21 22 22 22 23 24 24 25 25 26 26 27 27 28 28 29 29 30 31 31 32 33 34 34 35 35
19 19 18 18 18 19 19 19 19 19 19 19 20 20 20 20 20 20 20 20 20 20 21 21 22 22 23 23 24 24 25 25 26 26 27 27 28 28 29 29 30 31 32 33 34 35 36 37 38
21 21 20 20 20 20 21 21 21 21 21 21 21 21 21 21 20 20 20 20 20 20 21 21 22 22 23 23 24 24 25 25 26 26 27 27 28 28 29 30 30 31 32 33 34 35 36 37 38
22 22 21 21 21 21 22 21 21 22 22 22 23 22 22 21 21 20 20 20 20 20 21 21 22 22 23 23 24 25 25 26 26 27 27 28 28 29 29 30 31 32 32 33 34 35 36 37 38
24 23 23 22 22 22 22 22 21 22 23 23 23 22 22 22 21 21 21 20 20 20 20 21 21 22 23 24 25 26 27 27 28 28 29 30 30 30 31 31 32 33 33 34 35 36 37 37 38
24 23 24 23 22 22 22 23 21 22 22 23 23 22 22 21 21 21 21 20 20 20 21 21 22 23 24 25 26 27 28 29 30 30 31 32 32 33 33 34 34 35 35 35 36 37 37 38 39
25 24 24 25 22 22 23 23 22 21 22 23 23 22 21 21 21 21 20 20 20 21 21 22 23 24 25 27 28 29 30 30 31 32 32 33 34 34 34 34 34 35 35 35 36 37 38 38 39
26 25 24 25 23 23 23 23 22 21 22 22 22 22 21 21 21 20 20 20 20 21 21 22 24 25 27 28 29 30 30 31 31 32 33 33 33 33 33 33 34 34 35 36 36 37 37 38 39
25 25 24 25 24 24 24 23 22 21 21 21 21 21 20 21 20 20 20 20 21 21 23 24 25 27 28 29 30 30 31 31 32 32 32 32 32 32 32 32 33 33 34 35 36 37 37 39 41
26 25 25 25 25 25 25 23 22 21 21 21 21 20 20 20 20 19 20 20 21 22 24 25 27 28 29 30 31 31 31 32 32 32 32 31 31 31 31 32 33 34 35 36 38 39 40 42 44
26 25 25 25 26 24 25 24 21 20 21 21 20 20 20 20 20 20 21 21 22 24 25 27 28 29 31 31 32 32 32 32 32 32 31 31 31 32 33 34 35 36 37 39 41 43 45 47 49
26 25 26 25 26 25 24 26 21 19 20 21 20 20 20 20 20 21 22 23 24 25 27 28 29 31 32 32 33 33 33 33 33 32 33 33 34 35 36 37 38 40 41 43 46 48 50 52 54
27 26 25 26 27 26 22 26 23 18 18 20 20 20 21 21 22 22 23 24 25 26 28 29 31 32 33 33 34 34 35 34 34 34 35 36 37 38 39 40 42 44 46 48 50 52 54 57 59
26 26 26 26 26 25 22 24 23 20 20 20 20 21 22 22 23 24 24 26 27 28 29 31 32 33 34 35 35 36 36 36 37 37 38 39 40 41 42 44 46 48 50 53 55 57 59 61 63
27 27 26 26 25 26 22 22 20 21 22 22 21 22 23 24 25 26 27 28 29 30 31 32 34 35 36 36 37 37 37 38 39 40 40 41 43 44 46 48 50 52 54 56 58 60 62 65 67
27 26 26 26 25 25 24 22 20 20 23 24 23 24 25 26 27 28 29 30 31 32 33 35 36 37 38 38 38 39 39 40 40 41 43 44 46 47 49 51 53 55 57 60 62 64 66 68 70
27 26 25 26 25 25 23 23 22 19 23 25 25 26 27 28 29 30 31 32 33 35 37 38 39 39 40 40 40 40 41 42 43 43 45 46 48 50 52 54 56 58 61 63 65 67 70 72 74
27 25 25 26 25 25 24 24 23 21 23 25 27 28 28 29 30 32 33 35 36 38 39 40 41 41 41 41 42 42 43 44 45 46 47 49 50 52 55 57 59 62 64 66 68 71 73 75 77
26 25 25 25 25 25 25 24 23 24 26 27 28 30 30 31 32 34 36 38 39 40 41 42 43 43 43 43 44 44 45 46 47 48 50 51 53 55 57 60 62 64 67 69 72 74 76 78 81

GEFSSGP_500_meanwind_084.txt.gz
Wind_Speed
4 3 4 5 6 7 8 9 10 10 10 9 8 8 7 7 7 7 8 7 7 8 8 9 9 10 10 11 11 12 13 14 15 16 16 17 17 17 18 18 18 18 18 18 18 18 18 17 17
3 3 3 4 4 4 5 7 10 11 10 9 8 8 8 7 7 7 8 7 8 8 8 9 9 10 10 11 12 13 13 14 15 16 16 16 16 17 17 17 17 17 18 17 17 17 17 17 16
3 3 3 3 3 3 4 6 8 9 9 9 8 8 8 8 8 8 9 9 9 9 9 9 10 10 11 11 12 13 14 14 15 15 15 16 16 16 16 17 17 17 17 17 17 17 17 16 16
2 2 2 2 3 3 4 4 5 6 7 7 6 7 7 8 8 9 10 10 10 10 10 11 11 11 12 12 13 13 14 14 15 15 15 16 16 16 16 17 17 17 17 17 17 17 17 17 16
1 1 1 2 2 2 3 3 4 4 4 4 4 5 7 7 8 9 11 12 12 12 12 12 12 12 13 13 13 14 14 15 15 16 16 17 17 17 17 17 17 17 17 18 18 18 18 18 18
1 0 0 1 0 1 2 2 2 2 2 2 3 4 6 6 7 8 9 11 12 12 12 13 13 14 14 14 15 15 15 16 16 17 17 18 18 19 19 19 19 19 20 20 20 20 20 20 20
3 2 1 1 1 2 1 1 0 0 1 2 2 4 6 7 7 7 8 10 12 12 13 13 14 14 15 15 16 16 17 18 18 19 19 20 20 21 21 22 22 22 22 23 23 23 23 23 23
6 5 4 3 3 3 3 3 2 2 3 3 3 4 7 8 8 8 9 11 13 14 14 14 15 16 16 17 18 18 19 19 20 21 21 22 22 23 23 24 24 25 25 26 26 26 27 27 27
9 8 7 6 5 5 6 6 6 6 5 6 6 7 8 9 10 10 10 11 13 15 15 16 17 18 18 19 19 20 21 21 22 22 22 23 24 24 25 26 26 27 27 28 28 29 30 30 30
12 11 10 9 9 9 9 9 9 10 10 10 10 10 11 11 12 13 13 13 14 16 17 18 18 19 20 20 21 21 21 22 22 23 24 24 25 26 26 27 28 28 29 29 30 31 31 32 33
15 14 13 12 12 12 12 12 13 13 14 14 14 14 14 15 15 16 16 16 16 17 18 19 20 20 21 21 21 21 22 22 23 24 24 25 25 26 27 27 28 29 30 30 31 32 32 33 34
18 17 16 15 16 16 15 16 16 16 17 17 17 17 17 17 18 19 19 19 19 18 19 20 21 21 21 22 22 22 22 22 23 23 24 24 25 26 27 28 29 29 30 31 31 32 33 33 34
21 21 20 19 19 18 18 18 18 19 19 19 19 19 19 19 20 20 20 20 20 20 19 20 21 21 22 22 22 22 22 23 24 24 25 25 26 27 27 28 29 30 31 32 32 33 34 34 34
24 24 23 22 22 21 21 20 20 22 21 20 20 20 21 20 21 20 20 21 21 21 21 21 21 21 22 22 22 23 23 24 25 26 26 27 28 29 29 30 31 31 32 32 33 34 34 35 35
27 26 26 25 24 24 23 22 22 23 22 22 22 22 22 22 22 22 21 22 22 22 22 21 21 22 22 22 23 24 24 25 26 27 28 29 30 30 31 32 33 33 33 34 34 35 35 36 36
29 29 29 28 26 25 24 23 24 24 24 23 23 23 23 23 23 23 22 22 23 23 23 22 22 23 23 24 24 25 26 27 28 29 30 31 31 32 32 33 34 34 35 35 36 36 37 37 37
31 30 30 29 27 26 25 25 26 26 25 25 24 24 25 24 24 24 23 23 23 23 23 23 23 24 25 25 25 26 27 28 29 30 31 32 32 33 33 34 35 35 36 36 36 36 36 36 37
32 31 31 30 29 28 27 27 28 28 27 26 26 26 26 25 25 24 24 24 23 24 24 24 24 25 25 26 27 28 29 30 31 31 32 32 33 33 34 35 36 36 36 36 36 36 36 36 36
34 33 32 32 31 30 29 28 29 28 27 27 26 26 26 26 25 25 24 24 24 24 24 24 25 25 26 27 28 28 30 31 32 32 32 33 33 34 34 35 36 36 36 36 36 35 36 36 37
34 33 33 34 34 32 30 28 29 29 28 28 26 26 26 26 26 25 25 24 24 25 25 25 25 26 27 27 28 29 30 31 32 33 33 34 34 35 35 36 36 36 36 36 36 37 37 39 40
32 33 33 34 35 34 32 29 28 29 29 28 27 26 26 26 26 25 25 24 24 25 25 26 26 27 27 28 29 30 31 32 33 34 34 35 35 36 36 36 37 37 37 38 39 40 40 41 43
32 33 35 36 36 34 33 30 26 28 28 28 28 27 26 26 26 25 25 25 25 25 26 26 27 28 29 30 30 31 32 33 34 35 35 36 37 38 38 38 38 39 40 41 42 43 44 44 46
33 34 36 36 36 34 32 34 26 28 28 29 28 26 26 25 25 25 24 25 25 25 26 27 28 29 30 31 32 33 34 35 36 37 38 38 39 39 40 41 41 41 42 43 44 46 47 48 49
34 35 37 37 37 35 32 34 28 26 28 28 27 26 25 25 25 24 24 24 25 26 27 28 29 30 31 33 34 35 36 37 38 39 39 40 40 41 41 42 43 44 44 46 47 48 50 51 53
35 35 37 37 37 35 33 33 28 26 27 27 27 26 25 25 24 24 24 25 26 27 28 29 30 32 33 35 36 37 38 40 41 41 41 41 42 42 43 44 45 46 47 48 49 51 52 54 56
35 36 36 37 37 35 33 32 27 25 26 26 26 25 24 24 24 24 25 26 27 28 29 31 32 33 35 37 38 40 41 42 42 43 43 44 44 44 45 46 47 48 49 50 52 53 55 57 58
34 34 34 37 37 35 33 31 28 26 25 26 25 25 24 24 24 25 26 27 28 29 30 32 33 35 37 38 40 41 43 44 45 45 45 45 46 46 47 47 48 50 51 53 54 55 57 59 61
33 33 34 35 36 35 33 30 29 26 25 25 25 25 24 24 25 25 27 28 29 31 32 34 35 37 39 40 42 43 45 46 46 47 47 47 48 48 49 50 51 52 53 54 56 58 60 61 62
33 33 34 35 35 34 32 28 26 26 26 25 25 24 24 25 25 26 28 29 31 32 34 35 37 39 41 43 44 46 47 47 48 48 48 49 49 50 51 52 53 54 55 57 58 60 61 62 64
34 33 33 34 34 34 32 28 26 27 27 26 25 24 25 26 27 28 29 30 32 33 35 37 39 41 43 45 46 47 48 49 49 49 50 51 51 52 53 54 55 56 58 59 60 61 63 64 66

GEFSSGP_500_meanwind_090.txt.gz
Wind_Speed
3 2 3 4 6 8 8 10 10 10 9 9 10 10 10 10 10 10 10 10 10 11 11 11 11 12 12 13 14 15 15 15 16 16 17 17 17 18 18 18 18 19 19 19 20 20 21 22 22
3 3 3 4 5 6 7 9 10 10 10 9 10 10 10 10 9 10 10 10 10 11 12 12 12 12 13 14 15 15 16 16 16 17 17 17 17 17 17 18 18 19 19 20 20 21 21 22 22
4 3 4 4 5 5 6 7 9 10 10 10 10 10 10 10 10 10 10 10 11 11 12 12 13 13 14 15 15 16 16 16 16 17 17 17 17 17 18 18 18 19 19 20 20 20 21 21 22
3 3 3 4 4 4 5 6 8 10 10 11 10 10 10 10 10 10 10 11 12 13 13 14 14 15 15 16 16 16 16 17 17 17 17 18 18 18 19 19 19 20 20 20 20 21 21 21 22
2 2 3 3 3 3 3 4 5 7 9 10 11 11 10 10 11 11 11 12 13 14 14 15 16 16 17 17 18 18 18 18 18 18 19 19 19 19 20 20 20 21 21 22 22 22 22 23 23
0 1 2 2 3 3 3 3 3 4 6 8 9 10 11 11 11 12 12 13 14 15 16 16 17 17 18 18 19 19 19 19 19 19 20 20 20 21 21 22 22 23 23 24 24 24 25 25 25
3 1 1 2 2 3 3 2 2 3 4 6 7 8 9 10 10 11 12 13 14 14 15 16 17 17 17 18 18 18 19 19 19 20 21 21 22 22 23 24 24 25 25 26 26 26 27 27 27
6 5 3 3 3 3 3 3 4 4 4 5 6 8 9 10 11 12 12 13 14 14 15 16 16 17 17 18 18 19 19 20 21 21 22 22 23 24 24 25 25 26 26 27 27 28 28 29 29
9 8 7 6 5 5 4 4 5 5 6 7 7 8 9 11 12 13 14 15 15 15 16 17 17 18 18 19 19 20 20 21 22 22 22 23 23 24 24 25 26 26 27 27 28 29 29 30 30
13 11 11 9 8 8 7 7 7 7 8 9 10 10 11 13 14 15 16 17 17 18 18 19 19 20 20 20 21 21 22 22 22 22 22 23 23 24 24 25 25 26 27 28 29 29 30 30 31
16 15 14 13 12 11 11 10 10 10 11 12 12 13 14 15 16 17 19 20 20 20 20 21 21 22 22 22 22 22 22 22 22 22 22 23 23 24 25 26 27 28 28 29 30 31 31 31 32
20 19 18 17 16 15 14 14 13 13 14 14 14 15 16 17 18 19 20 21 22 22 22 22 23 23 23 23 23 23 22 22 22 22 23 23 24 25 26 27 28 29 30 31 31 32 32 33 33
23 23 22 21 20 19 18 17 16 16 17 17 17 17 18 18 19 20 21 22 23 23 23 24 24 24 24 24 23 23 23 23 23 23 24 24 25 26 27 28 29 30 31 32 33 33 34 34 35
26 26 25 24 23 22 21 20 19 20 20 19 19 19 20 20 21 22 22 23 24 25 25 25 25 25 25 25 24 24 24 24 24 24 25 26 27 28 29 30 31 32 33 33 34 34 35 36 36
30 29 28 27 27 26 25 22 23 23 22 22 22 22 22 23 23 24 24 25 25 26 26 26 26 26 26 26 25 25 25 25 26 26 27 27 28 30 31 32 33 34 34 35 35 36 36 37 38
32 31 30 30 30 29 28 24 27 25 25 24 24 24 24 24 25 26 27 27 26 27 27 28 28 28 27 27 27 27 27 27 27 28 29 29 30 31 32 33 34 34 35 36 36 37 37 38 38
34 33 32 33 32 32 31 27 30 29 27 27 27 26 26 26 27 28 28 28 28 28 29 29 29 29 29 28 28 28 28 28 29 29 30 31 32 33 33 34 35 35 36 36 37 37 38 39 39
34 34 33 33 34 34 33 30 31 32 29 29 29 29 29 29 29 29 29 30 30 30 30 30 30 30 30 30 29 29 30 30 30 31 31 32 33 34 35 35 36 37 37 37 38 39 39 39 39
37 36 34 34 36 36 35 32 31 33 31 30 31 32 32 32 31 31 31 31 31 31 31 31 31 31 31 31 31 31 31 31 32 32 33 34 35 35 36 37 38 38 39 39 39 40 41 41 40
37 36 35 36 38 38 37 33 31 32 33 32 32 33 33 33 33 32 32 31 32 31 31 31 32 32 32 32 33 33 33 32 33 34 35 36 37 37 38 39 39 40 41 41 41 42 42 43 43
35 35 36 37 38 39 38 34 31 32 34 34 33 34 34 34 33 32 32 32 32 32 32 32 32 32 32 33 34 34 34 34 35 36 37 38 39 40 40 41 41 42 43 43 43 43 44 44 45
35 35 37 38 39 39 39 37 29 31 33 34 34 34 33 33 33 33 33 33 32 32 32 32 32 33 33 34 34 35 35 36 37 38 39 40 41 41 42 43 43 44 45 45 45 45 46 46 47
35 36 37 37 38 38 36 39 32 31 33 35 35 34 33 33 33 33 33 33 32 32 32 33 33 33 34 34 35 36 37 37 38 39 40 41 42 43 44 45 45 46 47 47 47 47 48 48 49
36 36 37 38 39 39 35 38 36 31 32 33 34 34 33 33 33 33 33 33 33 33 33 33 33 34 35 35 36 37 38 39 40 41 42 43 44 45 46 47 47 48 48 48 49 49 49 50 51
36 36 38 39 39 39 37 37 36 33 32 32 33 33 33 33 33 33 32 32 33 33 33 33 34 35 35 36 37 38 39 40 41 42 43 45 46 47 48 49 49 50 50 50 50 51 51 52 53
36 37 38 39 39 38 37 37 34 33 32 33 33 33 33 32 32 32 32 32 32 33 33 33 34 35 36 36 37 39 40 41 42 44 45 46 48 49 49 50 51 51 51 51 52 52 53 54 55
37 37 37 39 40 40 38 35 32 30 31 32 32 31 31 31 31 31 31 31 32 32 33 34 34 35 36 38 39 40 41 42 44 45 47 48 49 50 51 52 52 52 52 53 53 54 55 55 56
37 36 36 38 40 39 37 34 31 29 29 30 30 31 31 31 31 31 31 31 31 32 33 34 34 36 37 39 40 41 42 44 45 47 48 49 50 51 52 53 53 53 53 54 54 55 56 56 57
37 37 37 38 40 39 38 33 30 28 28 28 29 30 30 31 31 31 31 31 32 32 33 34 35 36 38 39 41 42 43 45 47 48 49 50 51 52 52 53 53 54 55 55 56 56 57 58 58
36 36 36 38 38 39 39 34 29 29 29 29 30 30 31 30 31 31 31 32 32 33 34 35 36 37 39 40 42 44 45 47 48 49 50 51 51 52 52 53 54 54 55 56 56 57 58 58 59

GEFSSGP_500_meanwind_096.txt.gz
Wind_Speed
6 7 8 8 10 11 12 13 12 12 12 12 11 11 10 10 11 11 11 11 11 11 11 11 12 13 13 14 15 15 16 16 17 17 18 18 18 18 18 19 19 19 19 19 19 19 20 20 20
6 7 8 9 9 10 11 11 12 12 12 11 11 10 10 10 10 10 11 11 11 11 12 12 13 14 15 15 15 16 16 17 17 17 18 18 18 19 19 19 19 18 18 19 19 19 19 18 18
5 7 8 9 9 9 10 10 11 12 12 11 11 10 10 10 10 10 10 11 12 13 13 13 14 14 15 15 15 16 17 17 18 18 19 19 19 19 19 19 19 18 18 18 18 18 19 19 19
5 7 8 9 9 9 9 10 11 12 11 11 11 11 10 10 10 10 11 11 12 12 13 14 14 15 15 16 17 18 18 19 19 19 20 20 19 19 18 18 18 18 18 19 19 20 20 20 20
6 7 8 9 9 9 9 9 10 11 11 11 11 11 11 11 11 11 11 11 12 13 14 14 15 16 17 17 18 19 19 20 20 20 20 20 19 19 19 19 20 20 20 21 21 21 22 22 22
7 7 8 9 9 9 9 9 9 9 10 10 10 11 11 11 11 12 12 13 13 14 15 16 17 18 18 19 19 20 20 20 20 20 20 20 21 21 21 21 21 21 22 22 22 23 23 23 24
8 8 9 9 9 9 9 9 9 9 9 9 9 10 10 11 11 12 13 13 14 15 16 16 16 17 18 18 19 19 20 20 20 20 21 21 21 22 22 22 22 23 23 23 23 23 24 24 25
10 10 10 10 10 10 9 9 9 8 8 8 8 9 9 10 11 11 12 13 13 14 15 15 16 17 18 19 19 20 20 20 21 21 22 22 23 23 23 23 23 23 23 23 23 24 24 25 26
13 12 12 12 11 11 10 10 10 9 9 9 9 9 9 10 11 12 12 13 14 15 16 17 18 19 19 20 20 21 21 22 22 23 23 23 23 23 23 23 23 23 23 23 24 24 25 26 27
16 15 15 14 13 12 12 11 11 10 10 10 10 10 11 11 12 13 13 14 15 16 17 18 19 20 21 21 22 22 23 23 24 24 24 24 24 24 24 24 24 24 24 24 25 25 26 27 27
19 18 18 17 16 15 14 13 13 13 13 12 12 12 12 13 14 14 15 16 16 17 18 19 20 21 22 22 23 24 24 25 25 25 25 25 25 25 24 24 25 25 25 26 26 27 27 28 28
22 21 21 20 19 18 17 16 15 15 16 15 14 14 15 15 16 17 17 18 18 19 19 20 21 22 22 23 24 24 25 26 26 26 26 26 26 26 26 25 26 26 26 27 27 28 29 29 30
26 25 23 23 22 21 20 19 18 19 19 17 17 17 17 17 18 19 19 20 20 20 21 22 23 23 24 24 25 25 26 27 27 27 27 27 27 27 27 27 27 27 28 28 29 30 30 31 31
28 28 27 26 25 24 23 22 21 22 22 20 20 19 19 19 20 20 21 22 22 22 23 23 24 25 25 25 26 26 27 28 28 28 28 28 28 28 28 28 29 29 29 30 31 31 32 32 33
30 30 29 29 28 27 26 24 25 26 25 23 23 22 22 22 22 23 23 24 24 24 24 25 25 25 26 27 27 28 29 29 29 29 29 29 29 29 29 30 30 31 31 32 32 33 33 34 34
33 32 31 32 32 31 30 26 29 28 27 26 26 25 25 25 25 25 26 26 26 26 26 26 27 27 27 28 29 29 30 30 30 30 30 30 30 30 31 31 32 32 33 33 34 35 35 36 36
35 34 34 35 35 34 33 29 32 31 30 29 29 28 28 28 28 28 28 28 28 28 28 28 28 29 29 30 30 31 31 31 31 31 31 31 32 32 33 33 33 34 34 35 36 37 37 38 38
36 36 35 36 36 36 35 31 33 34 33 31 32 32 31 31 31 30 30 30 30 30 30 30 30 30 30 31 31 32 32 32 32 32 32 32 33 33 34 34 34 35 36 37 37 38 39 39 39
37 37 36 36 38 38 37 34 33 35 35 34 34 34 34 33 33 32 32 31 31 31 31 31 31 31 31 32 32 32 33 33 33 33 33 33 34 34 35 35 36 36 37 38 39 40 40 40 41
37 36 36 37 39 40 38 35 33 35 35 35 35 35 35 34 34 33 33 32 32 32 32 32 32 32 32 32 33 33 33 33 33 34 34 34 35 35 35 36 37 38 39 40 41 41 41 42 42
37 36 36 38 40 41 40 36 33 35 36 36 36 35 35 35 35 35 33 33 32 32 32 32 33 33 33 33 33 33 33 34 34 34 34 35 36 36 37 37 38 40 41 42 42 43 43 43 44
37 36 37 38 39 40 39 38 32 33 35 36 35 35 35 35 35 35 34 34 34 33 33 33 33 33 33 33 33 33 34 34 35 35 35 36 36 37 38 39 40 41 42 43 44 44 45 45 46
36 36 37 37 38 39 37 38 32 31 33 34 35 35 35 35 35 35 35 35 34 34 33 33 33 33 33 33 33 33 34 34 35 35 36 36 37 38 39 40 41 42 43 44 46 46 47 47 47
36 36 37 37 38 38 35 37 35 31 32 33 35 35 35 35 36 36 36 36 35 34 33 33 33 33 33 33 33 34 34 34 35 36 37 37 38 39 40 41 42 43 45 46 47 47 48 48 48
36 35 37 38 38 39 36 36 35 32 32 32 33 34 35 35 36 36 35 35 34 33 33 33 33 33 33 33 33 34 34 35 35 36 37 38 39 40 41 42 44 45 46 47 48 48 49 49 49
35 36 36 37 38 38 36 35 32 31 31 32 32 33 33 34 34 35 34 34 33 32 32 32 31 32 32 32 33 34 35 35 35 36 38 39 40 42 43 44 45 47 47 48 49 49 49 49 50
37 36 35 38 39 38 37 34 31 30 31 31 32 32 32 33 33 33 32 32 32 31 31 31 31 31 32 32 33 34 34 35 36 37 39 40 41 43 44 46 47 48 48 49 49 49 50 50 51
37 36 36 37 38 38 37 33 30 29 29 30 31 31 31 32 31 31 31 31 30 30 31 31 31 31 32 32 32 33 34 35 37 39 40 42 43 45 46 47 48 49 49 49 49 50 50 51 51
37 37 37 37 38 37 36 33 29 28 29 29 30 30 30 30 29 29 29 29 30 30 30 30 30 30 31 32 33 34 35 37 39 40 42 44 45 46 47 47 48 49 49 49 50 50 51 52 52
38 37 36 37 36 36 36 34 29 28 29 29 29 30 30 29 29 29 29 29 30 29 29 30 30 31 32 33 34 35 36 38 40 42 43 44 45 46 47 47 48 49 49 50 50 51 52 53 53

GEFSSGP_500_meanwind_102.txt.gz
Wind_Speed
5 7 9 10 12 14 15 16 16 15 15 14 14 14 14 12 11 10 10 10 10 10 10 10 10 11 11 12 12 12 13 13 13 14 14 15 15 16 17 18 18 18 18 18 18 18 18 18 18
5 7 9 10 11 13 14 14 15 15 14 14 14 14 14 12 11 11 10 10 10 11 11 11 12 12 12 13 13 13 13 13 14 15 15 16 17 17 18 18 18 18 18 18 18 18 19 19 19
6 7 9 10 11 12 13 13 14 14 14 14 14 14 13 12 11 11 11 10 10 11 11 12 12 12 12 12 13 13 14 15 16 17 17 17 18 18 18 19 19 19 18 19 19 19 20 21 21
8 8 9 10 11 11 12 13 13 13 14 14 14 14 13 12 12 12 11 11 11 11 11 11 11 11 12 13 15 15 16 16 16 17 17 18 18 19 19 19 19 20 20 20 21 21 22 23 23
9 10 10 11 12 11 11 12 12 14 14 14 14 14 12 12 12 12 12 11 11 11 11 11 12 13 14 15 16 16 16 17 17 18 18 19 19 19 19 20 20 21 21 22 22 23 23 24 24
12 12 12 12 13 12 12 12 13 14 14 14 14 14 13 13 13 12 12 12 11 12 12 13 14 15 16 17 17 17 17 18 18 18 19 19 19 19 20 21 21 22 23 23 24 24 25 25 25
14 13 14 14 14 14 14 13 14 14 15 15 14 14 13 14 13 13 13 13 13 13 14 15 15 16 16 16 16 17 17 18 18 19 19 20 20 21 21 22 23 23 23 24 24 25 25 26 26
16 16 16 16 16 16 15 15 14 15 14 14 14 14 12 14 13 13 13 13 14 14 15 15 15 15 16 17 17 18 18 19 19 20 20 21 21 22 23 23 24 24 24 25 25 26 26 26 27
19 18 18 18 17 17 16 16 15 15 15 14 14 13 11 13 13 13 14 14 14 14 15 15 16 16 17 18 18 19 20 20 21 21 22 22 23 24 24 25 25 25 26 26 27 27 27 27 28
22 21 20 20 19 18 16 16 16 16 16 15 15 14 13 14 14 14 15 15 15 15 16 16 17 18 18 19 20 21 21 22 22 23 23 23 24 25 25 26 26 27 27 28 28 28 29 29 29
24 23 22 21 21 19 18 18 18 17 17 17 16 15 15 15 15 16 16 16 16 17 18 18 18 19 20 21 21 22 23 23 23 24 24 25 25 26 26 27 27 28 28 29 29 30 30 30 30
28 26 25 24 23 22 21 20 20 19 19 18 17 16 16 17 17 17 17 17 18 19 20 20 21 21 22 22 22 23 24 25 25 25 26 27 27 27 28 28 28 29 30 30 31 31 31 32 32
31 29 28 27 25 25 24 23 22 21 22 21 20 19 18 19 19 19 20 20 20 21 22 22 23 24 24 24 24 25 25 26 27 27 28 28 29 29 29 29 30 30 31 31 32 32 33 33 34
33 32 31 29 28 27 26 26 25 24 24 23 22 21 21 21 22 22 22 22 22 23 23 24 25 25 26 27 27 27 27 27 28 29 29 29 30 31 31 31 31 32 32 33 33 34 34 35 35
35 34 33 32 31 30 29 28 27 27 27 26 25 25 24 24 24 24 24 25 25 25 26 26 27 28 28 29 29 29 29 29 29 30 30 31 32 32 32 32 33 33 34 34 35 35 36 36 36
37 36 35 35 34 33 33 30 30 30 30 29 28 28 28 27 27 27 27 28 28 28 28 29 30 30 30 31 31 30 31 31 31 31 32 32 33 33 33 34 34 35 35 36 36 36 37 37 38
38 37 37 37 36 36 35 32 33 33 32 31 31 31 31 30 30 30 30 31 31 31 31 32 32 33 32 32 32 33 33 33 32 32 33 34 34 34 34 35 36 36 36 37 37 37 38 39 39
38 38 38 39 39 38 37 35 35 36 35 34 34 33 33 33 33 33 33 34 34 34 34 34 34 35 34 34 34 34 34 34 34 34 34 34 34 35 35 36 36 37 37 38 38 39 39 40 40
39 39 39 40 40 39 39 37 36 37 37 36 35 35 35 35 35 35 35 35 35 36 36 36 36 36 36 35 35 35 35 35 35 35 35 35 35 36 36 36 37 37 38 39 39 40 40 41 41
39 39 39 40 40 39 39 38 37 38 38 37 37 37 37 37 38 37 37 37 36 37 37 37 37 37 37 36 36 36 36 36 36 36 36 36 36 36 36 37 37 38 39 40 40 41 41 42 42
39 38 38 39 40 40 40 38 37 37 37 37 37 37 38 38 38 38 37 37 37 37 37 38 37 37 37 37 37 37 37 37 37 36 36 36 36 36 37 37 38 39 40 40 41 41 42 43 44
39 38 38 38 39 39 40 40 36 37 37 37 37 37 37 37 37 38 38 37 38 38 38 38 37 37 37 38 38 38 38 37 37 37 37 37 36 37 37 38 39 40 40 41 41 43 43 44 45
39 38 38 39 40 40 39 42 37 36 37 37 38 37 37 37 38 39 39 38 37 37 37 38 38 37 38 38 38 38 37 37 37 36 36 36 37 37 38 39 39 40 40 41 42 43 44 45 46
39 38 39 40 40 42 38 41 40 36 36 37 37 37 37 37 38 38 38 37 37 37 37 37 38 38 38 38 38 37 37 37 36 36 36 37 37 37 39 39 39 40 41 42 43 45 46 47 48
40 39 39 40 40 41 38 39 39 35 34 35 36 36 36 37 37 37 37 37 37 37 37 37 38 37 37 37 37 37 37 37 36 36 37 36 37 38 39 39 40 41 42 44 45 46 47 48 48
39 39 38 38 39 39 39 39 36 34 33 33 34 35 35 35 35 35 35 36 36 36 36 37 36 36 36 36 36 36 36 36 36 36 36 36 37 38 39 40 41 42 43 44 46 47 48 48 48
40 39 37 38 39 40 40 39 36 33 32 31 32 33 33 34 34 34 34 35 35 35 35 35 35 34 35 35 35 35 35 35 35 35 36 37 37 38 40 41 42 43 44 45 47 48 48 48 48
41 39 39 40 40 40 40 37 36 34 31 30 31 32 32 33 33 33 33 34 34 34 33 34 33 33 34 34 34 34 34 34 35 36 36 37 37 39 40 41 43 44 45 47 48 48 48 49 49
41 41 41 41 42 41 40 38 36 34 31 30 30 30 31 31 31 31 31 31 31 31 31 32 32 32 32 32 33 33 33 34 35 36 36 37 38 40 40 42 44 45 46 47 48 48 49 49 49
42 41 41 42 41 40 40 38 35 34 32 30 30 29 29 29 29 29 29 29 29 29 30 30 31 31 31 32 32 33 33 34 35 36 37 38 39 40 41 43 45 46 47 48 48 49 49 49 50

GEFSSGP_500_meanwind_108.txt.gz
Wind_Speed
8 9 12 14 16 18 19 20 20 20 19 19 19 17 16 14 14 14 13 12 11 11 10 10 9 8 8 8 8 9 9 10 11 11 12 13 14 15 16 16 17 17 18 18 19 19 19 19 19
9 10 11 13 15 15 16 17 17 18 19 19 19 17 15 14 14 14 14 13 12 11 11 10 10 9 9 9 9 10 10 11 12 13 14 15 16 16 17 17 17 18 19 19 19 19 20 20 20
11 10 11 13 14 14 14 15 16 18 18 18 17 16 16 15 15 14 14 13 13 11 10 10 9 9 9 9 9 10 11 12 14 14 15 16 16 17 17 18 19 19 19 20 20 20 21 21 22
13 12 12 12 13 13 13 15 16 17 18 17 17 16 16 16 15 14 14 13 12 11 10 10 9 9 9 9 10 11 12 14 14 15 15 16 17 18 18 19 20 20 20 21 21 22 22 22 23
15 14 13 13 13 13 13 14 16 17 17 17 16 16 16 15 14 14 13 12 11 11 10 10 9 9 10 10 12 13 14 14 15 16 16 17 18 19 19 20 20 20 21 22 22 23 23 24 24
17 16 14 14 14 14 13 14 15 17 16 16 16 16 15 15 14 14 13 12 12 11 10 10 10 11 11 13 14 14 14 15 15 16 17 18 19 19 20 20 20 21 22 23 23 24 24 25 25
19 18 17 16 16 15 14 14 15 16 16 15 15 16 15 15 14 14 13 13 12 11 11 11 11 12 12 13 13 13 14 15 16 17 18 19 19 20 21 21 22 23 24 24 25 25 26 26 27
22 21 20 19 18 17 16 16 15 16 15 15 15 15 16 15 14 14 14 13 13 12 12 12 12 12 12 12 13 14 15 16 17 18 19 20 21 22 22 23 23 24 25 25 26 26 27 27 28
25 24 22 21 19 18 18 17 16 16 15 15 15 15 15 15 14 14 14 14 13 12 12 12 12 12 13 13 14 16 17 18 18 19 20 22 22 23 24 24 25 25 26 26 27 27 28 29 29
28 26 24 23 21 20 19 19 18 17 16 16 15 15 15 15 14 14 14 14 13 13 13 13 13 14 14 15 16 17 19 19 20 21 22 23 24 25 25 26 26 27 27 28 28 28 29 30 30
31 28 27 26 24 23 22 21 20 19 18 17 17 16 16 15 15 15 14 14 14 14 14 14 15 15 16 17 18 18 20 21 21 22 23 24 25 26 27 27 28 28 28 29 29 30 30 31 31
34 31 30 29 27 26 24 23 22 21 20 19 18 17 17 16 16 16 15 15 15 15 15 15 16 17 18 18 19 20 21 22 23 24 25 26 27 28 29 29 29 30 30 30 31 31 32 32 33
36 34 33 31 30 28 27 26 24 23 22 21 20 18 18 17 17 17 16 16 15 16 16 16 17 18 19 20 21 22 23 24 25 26 27 27 28 29 30 30 31 31 32 32 32 33 33 34 34
38 37 36 34 32 31 30 28 26 24 25 24 22 20 20 19 19 18 17 17 17 17 17 17 18 20 21 22 23 24 25 26 27 28 29 29 30 31 31 32 32 32 33 34 34 34 34 35 36
41 40 39 37 35 34 33 31 28 27 27 26 24 23 21 21 20 20 20 19 20 20 20 20 20 21 23 24 25 26 27 28 29 30 30 31 32 32 33 33 33 34 35 35 35 35 36 36 37
44 43 41 39 38 37 36 33 31 31 30 28 27 26 24 23 23 23 23 22 22 23 23 23 23 24 25 26 26 27 29 30 31 31 32 32 33 34 34 34 35 36 36 36 36 36 36 37 37
46 45 42 41 41 40 39 35 33 33 32 30 29 28 27 26 25 25 25 25 25 25 26 26 27 27 28 29 29 30 31 32 33 33 33 34 34 35 35 36 36 37 37 37 37 37 37 38 38
45 44 44 43 42 42 41 38 37 36 35 33 31 31 30 28 28 28 28 27 27 27 28 28 29 30 31 31 32 32 33 34 34 35 35 35 36 36 36 37 37 37 38 38 38 38 38 39 39
45 45 45 43 43 43 42 41 39 39 37 35 34 33 33 31 31 30 30 30 30 30 31 31 32 32 33 33 34 34 35 35 35 35 36 37 37 37 38 38 38 38 38 38 39 39 39 39 39
46 46 44 43 42 43 43 42 40 39 39 37 36 35 34 33 33 32 32 33 33 33 32 33 33 33 33 34 35 35 35 35 35 36 37 38 38 38 38 38 38 38 39 39 39 39 39 39 39
47 45 43 42 42 43 44 43 41 40 39 38 37 36 36 35 34 34 34 34 34 33 33 33 34 34 35 35 35 36 36 36 36 37 38 38 38 38 38 38 38 39 39 39 39 39 39 40 40
47 44 42 42 42 42 43 43 40 39 39 37 36 36 35 35 35 35 34 34 34 34 34 35 35 35 35 35 36 36 36 37 37 38 38 38 38 38 38 38 38 38 39 39 40 40 40 40 40
43 42 43 42 42 43 42 43 39 39 37 35 36 36 36 36 35 35 35 34 34 34 34 35 35 35 35 35 36 37 37 37 37 37 37 37 37 38 38 38 38 38 39 39 39 40 40 40 41
44 43 43 43 44 44 41 43 40 36 35 34 35 35 35 35 35 35 35 35 34 34 34 34 35 35 35 35 36 36 37 37 36 36 37 37 37 38 38 38 38 38 38 39 39 40 41 41 42
47 46 45 45 46 44 41 43 40 34 34 34 35 35 35 35 35 35 35 34 34 34 34 34 35 34 34 35 35 36 36 36 36 37 37 37 37 37 37 37 37 38 38 39 40 41 41 42 43
46 46 45 45 44 42 41 42 38 34 33 34 34 35 35 35 35 35 35 34 34 34 34 34 34 34 34 35 35 35 35 35 36 36 36 36 36 36 37 37 38 38 39 40 40 41 42 43 44
45 44 42 43 43 43 42 39 36 33 32 32 32 33 33 34 34 34 34 34 34 33 33 33 33 34 34 34 34 34 35 35 35 35 35 36 36 36 37 37 38 39 39 40 41 42 43 44 45
45 43 43 44 43 43 42 39 35 32 31 30 30 30 31 31 32 32 32 32 33 33 33 33 33 33 33 33 33 34 34 34 34 35 35 36 36 36 37 37 38 39 40 41 42 43 44 45 46
47 47 46 44 44 43 41 38 32 30 29 29 28 28 28 29 29 29 30 30 31 31 31 31 31 31 32 32 32 32 33 33 33 34 34 35 35 36 37 37 38 39 40 41 42 43 45 45 46
46 45 45 45 44 42 40 36 32 30 28 28 27 27 27 27 27 27 28 29 30 30 30 29 29 30 30 31 31 31 32 32 33 33 34 35 35 36 37 37 38 39 40 42 43 44 45 46 47

GEFSSGP_500_meanwind_114.txt.gz
Wind_Speed
15 16 16 18 19 20 21 22 24 24 24 24 23 22 22 20 19 19 18 16 15 14 13 12 11 11 10 10 10 9 9 9 9 10 11 11 12 13 13 14 14 15 16 16 17 17 18 18 19
16 17 17 17 17 16 18 20 22 23 24 24 24 23 23 21 20 19 18 17 16 15 14 13 12 11 11 11 10 10 10 10 11 11 12 12 12 13 14 15 15 16 17 18 18 19 19 20 20
18 18 17 16 15 14 16 19 21 22 23 23 23 23 23 21 20 20 19 18 17 15 14 13 13 12 11 11 10 10 10 11 11 12 12 13 13 14 14 15 16 17 18 19 20 20 20 20 21
20 19 18 17 15 14 16 18 20 21 21 22 23 22 22 21 20 20 19 18 17 16 15 14 13 12 11 11 10 10 11 11 12 12 13 13 14 14 15 16 17 18 19 20 20 20 21 21 22
22 21 19 17 15 15 16 17 19 20 21 21 22 21 21 21 20 19 18 17 16 16 15 14 13 12 12 11 11 11 12 12 13 13 13 14 14 15 16 17 18 18 19 20 20 21 22 23 24
24 23 20 18 17 16 16 17 18 19 20 20 21 21 20 20 20 19 18 17 16 16 15 14 13 13 12 12 12 12 12 12 13 13 13 14 15 16 17 18 18 19 20 21 22 23 24 25 26
26 25 22 21 19 18 17 17 18 18 19 20 20 20 20 20 19 18 18 17 17 16 15 14 13 13 12 12 12 12 13 13 13 14 14 15 16 17 18 19 20 21 22 23 24 25 25 26 27
29 27 25 23 21 19 19 18 18 19 19 20 21 20 20 20 19 18 18 17 17 16 15 15 14 14 13 13 13 13 13 13 14 15 16 17 17 18 19 20 21 22 23 24 25 26 26 27 28
32 30 26 24 24 22 21 20 19 19 19 20 20 20 21 20 20 19 18 17 17 16 16 15 15 15 14 14 14 13 13 14 15 16 17 18 19 20 21 21 23 24 25 26 26 27 28 29 29
35 32 28 27 26 25 23 22 21 20 20 21 21 21 22 21 20 19 18 18 17 17 17 16 16 16 15 14 14 14 15 16 16 17 18 19 20 21 22 23 24 25 26 27 28 29 29 30 31
38 34 31 30 29 28 26 25 23 22 22 21 22 22 22 22 21 20 20 19 18 18 17 17 17 16 16 15 15 16 17 17 18 18 19 20 21 22 23 25 25 27 28 29 30 30 31 32 32
40 36 35 33 33 31 29 28 26 24 23 23 23 23 23 22 22 21 20 20 19 19 18 18 17 17 17 17 17 17 18 18 19 20 21 22 23 24 25 26 27 28 29 30 31 32 33 33 34
43 39 38 37 36 34 32 30 28 26 25 25 25 25 24 23 23 23 22 21 20 20 19 19 18 18 18 18 18 19 19 20 20 21 22 24 25 26 27 28 29 30 31 32 33 34 35 35 36
45 43 42 41 39 37 35 33 31 28 28 27 26 25 25 24 24 24 23 22 22 21 21 20 20 19 19 19 20 21 21 21 22 23 24 26 27 28 29 30 31 32 33 34 35 35 36 37 37
48 47 45 44 42 40 39 37 33 31 31 29 28 27 26 26 25 25 24 24 23 23 22 22 21 21 21 21 22 22 23 24 25 26 27 28 29 30 31 32 33 34 34 35 36 36 37 38 38
50 50 49 45 44 42 42 38 34 34 33 31 30 28 27 26 26 26 25 25 24 24 24 23 23 23 23 23 24 25 26 26 27 28 29 30 31 32 33 34 34 35 36 36 37 37 38 39 39
53 52 49 46 45 44 44 39 36 37 36 34 32 31 29 28 27 27 26 26 26 25 25 25 25 25 25 25 26 27 28 28 29 30 31 32 33 34 35 35 36 36 37 37 38 38 39 39 40
53 51 49 48 46 46 45 42 40 39 38 36 35 33 32 30 29 28 28 27 27 27 26 26 27 27 27 27 28 29 30 31 31 32 33 34 35 35 35 36 37 37 38 38 38 39 40 40 40
51 50 49 48 48 48 47 45 43 42 41 39 37 36 34 32 31 30 29 29 28 28 28 28 28 29 29 30 30 31 32 32 33 34 35 35 36 36 37 37 37 38 38 39 39 39 40 40 40
53 52 51 50 49 50 49 47 46 45 42 40 39 37 36 34 33 32 31 31 30 30 30 30 30 31 31 32 32 33 33 33 34 36 36 37 37 37 37 38 38 38 38 39 39 40 40 40 40
54 52 50 49 49 50 50 50 47 46 44 42 41 39 38 36 35 34 33 33 32 31 31 31 31 32 33 33 34 34 34 35 36 37 37 37 37 37 38 38 39 39 39 39 39 39 39 40 40
52 49 48 49 50 50 51 52 48 47 45 44 42 41 39 38 37 36 35 34 33 33 33 33 33 33 34 34 34 34 35 36 37 37 37 37 37 38 38 39 39 38 38 39 39 39 39 40 40
49 48 48 48 50 52 51 53 50 48 46 44 42 41 40 39 38 37 36 35 34 34 34 34 34 34 34 35 35 35 36 36 37 37 37 37 38 38 38 38 38 38 38 38 39 39 39 40 40
50 49 49 49 51 54 52 53 51 47 45 43 41 40 40 39 38 37 37 36 35 35 35 35 35 35 35 35 36 36 36 37 37 37 37 37 38 37 37 37 38 38 38 38 39 39 39 40 41
52 51 51 51 53 54 50 52 51 44 42 41 40 40 39 39 39 38 37 37 36 36 36 36 36 36 36 36 36 37 37 37 37 37 37 37 37 37 37 37 37 37 38 38 38 39 39 40 41
54 53 52 52 52 51 50 51 48 43 40 40 39 39 38 38 38 38 37 37 36 36 36 36 36 36 36 36 36 36 36 36 36 36 36 36 36 36 37 37 37 37 38 38 38 39 39 41 42
55 55 52 51 52 50 50 48 45 41 39 37 37 37 37 37 37 37 37 37 37 36 36 36 36 36 36 36 36 36 35 35 36 36 36 36 36 36 37 36 37 37 37 37 38 39 40 41 42
55 54 53 53 52 51 50 47 43 39 36 36 36 36 36 37 37 37 37 37 37 37 36 36 36 35 35 35 35 35 35 35 35 35 35 35 35 36 36 36 36 37 37 38 38 39 40 41 42
56 56 56 54 53 50 48 45 40 36 36 36 36 36 36 36 37 37 37 37 36 36 36 36 35 35 35 34 34 34 34 34 34 35 35 35 35 35 35 35 36 36 37 37 38 39 40 42 43
55 56 56 55 52 50 46 43 39 35 34 35 35 35 36 36 36 36 36 35 35 35 35 35 34 34 33 33 33 33 33 33 33 34 34 34 34 35 35 35 35 36 36 37 38 39 41 42 44

GEFSSGP_500_meanwind_120.txt.gz
Wind_Speed
21 21 21 22 24 23 22 22 24 26 27 28 27 26 25 24 24 24 22 21 20 19 18 17 16 15 14 13 12 11 10 10 10 9 9 10 10 10 10 10 10 11 11 12 13 13 14 15 16
23 23 23 23 23 22 21 22 24 26 28 28 28 27 27 26 25 24 23 22 21 19 19 18 17 16 14 13 13 12 11 10 10 10 10 10 10 10 10 10 11 11 12 13 14 15 15 16 17
25 25 25 24 23 21 21 23 25 27 28 28 28 28 28 27 26 25 24 22 21 20 19 18 17 16 15 14 13 12 12 11 11 11 10 10 11 11 10 11 12 12 13 14 15 16 16 17 18
28 27 26 25 22 21 23 24 25 26 27 27 28 28 28 27 27 26 24 23 22 21 20 19 18 17 16 15 14 13 13 12 11 11 11 11 11 11 11 12 13 13 14 15 16 16 17 18 19
31 30 28 25 23 23 24 25 25 25 26 27 28 28 28 28 27 26 26 24 23 22 21 20 19 18 17 16 15 14 13 12 12 12 12 12 12 12 12 13 13 14 15 16 17 18 19 20 21
33 32 30 26 24 25 25 26 25 25 26 27 28 28 28 28 28 27 26 25 24 23 22 21 20 19 18 17 15 14 14 13 12 12 12 12 12 12 13 14 15 16 16 17 18 19 20 22 22
35 34 32 29 27 27 27 27 26 25 26 27 27 28 28 28 28 28 27 26 24 23 22 21 20 19 18 17 16 15 14 14 13 13 13 13 13 14 15 16 16 17 18 19 20 21 22 23 24
38 37 34 31 29 28 28 28 27 27 27 28 28 28 28 28 28 28 27 26 25 24 22 21 21 20 18 17 16 16 15 15 14 14 14 14 15 15 16 17 17 18 19 20 22 23 24 25 26
41 40 36 32 31 30 30 29 29 28 28 28 28 28 28 28 28 27 27 27 26 25 23 22 21 20 19 18 17 16 16 16 15 15 15 16 16 17 17 18 19 20 21 22 23 24 25 27 27
44 42 36 33 33 33 33 31 30 30 29 28 28 28 29 28 28 27 27 27 26 25 24 23 22 21 20 19 18 18 17 17 16 16 17 17 17 18 19 20 21 22 23 24 25 26 27 28 29
46 43 38 37 36 36 36 34 32 31 30 29 29 29 30 30 29 28 27 27 27 26 25 23 23 22 21 20 19 18 18 17 17 17 18 18 19 20 20 22 23 24 25 26 27 28 29 30 31
48 44 42 40 40 39 38 37 35 33 31 31 31 32 32 31 30 29 28 28 27 26 25 24 24 23 22 21 20 19 19 18 18 18 19 20 20 21 22 23 25 25 26 27 28 30 31 32 33
51 47 45 44 44 42 41 39 38 35 34 33 33 33 32 32 32 31 30 29 28 27 26 26 25 24 23 22 21 20 20 19 19 20 21 22 22 23 24 25 26 27 28 29 30 31 32 33 34
52 50 48 47 47 46 44 42 40 37 36 35 35 34 34 33 33 32 31 30 29 29 28 27 26 25 24 23 22 21 21 21 21 22 23 23 24 25 26 27 28 29 30 31 32 33 34 34 35
53 53 52 51 50 48 48 46 42 38 38 38 37 36 35 34 34 33 32 31 31 30 29 27 26 25 24 24 23 23 22 22 23 23 24 25 26 26 27 28 29 30 32 33 33 34 35 35 35
55 55 55 52 52 50 51 48 43 41 41 40 39 38 37 36 35 34 34 33 32 31 30 28 27 26 25 25 24 24 24 24 24 25 26 26 27 28 29 30 31 32 33 34 34 35 35 35 36
58 57 55 53 53 52 53 49 45 45 44 42 41 40 39 37 36 35 35 34 33 32 31 30 28 28 27 26 26 25 26 26 27 27 27 28 29 30 31 32 33 34 34 35 35 35 36 36 36
58 57 55 54 53 53 54 51 48 47 46 44 43 42 40 39 38 37 36 36 35 33 32 31 30 29 29 28 27 27 28 28 28 29 29 30 31 31 32 33 34 35 35 35 35 36 36 36 37
57 57 56 54 54 54 54 53 51 50 49 46 45 44 42 40 39 39 37 36 36 34 33 32 31 30 30 29 29 30 30 30 30 30 30 31 32 33 34 34 35 35 35 36 36 36 36 37 37
58 58 57 55 54 55 55 55 53 53 51 49 47 45 43 42 41 40 39 37 36 35 34 33 32 32 31 31 31 32 32 31 31 31 32 33 34 34 34 35 35 35 36 36 36 36 36 36 36
58 57 56 55 55 56 57 57 56 54 53 51 49 47 45 44 43 41 40 38 37 36 35 34 34 33 33 33 33 33 33 33 33 33 34 34 35 35 35 35 35 35 36 36 36 36 36 36 36
57 55 55 56 56 57 58 59 57 55 55 53 50 48 46 45 44 43 41 40 38 37 36 35 35 34 34 34 34 34 34 34 34 35 35 35 35 35 35 35 35 35 36 36 36 36 36 36 36
56 54 55 55 56 57 58 59 58 56 55 53 50 48 47 45 45 44 42 41 39 39 38 36 36 35 35 35 35 35 35 35 36 36 36 36 35 35 36 36 35 36 36 36 36 36 36 36 36
55 53 53 54 56 59 58 59 60 56 53 52 51 49 47 46 45 44 43 43 41 40 39 38 37 36 36 36 36 36 36 36 36 36 36 36 36 36 36 36 35 36 36 36 36 35 35 36 36
54 53 52 54 57 59 57 59 60 55 51 49 49 49 48 47 46 45 44 43 42 41 40 39 38 37 37 36 36 36 36 36 36 36 36 36 36 36 36 36 35 35 35 35 35 35 35 36 36
55 54 54 54 55 55 56 58 58 53 50 47 47 47 47 47 47 46 45 43 42 41 40 39 38 37 37 37 36 36 36 36 36 36 36 36 36 36 36 35 35 35 35 35 35 35 35 36 36
55 55 52 52 52 53 55 55 55 52 49 46 45 45 46 46 46 45 45 44 42 41 40 39 39 38 37 37 36 36 36 36 36 35 35 35 35 35 35 35 35 35 34 34 35 35 35 36 37
52 51 53 51 51 52 52 52 52 48 46 44 43 44 44 45 45 45 44 43 41 40 40 40 39 38 37 37 36 36 35 35 35 35 35 35 35 35 35 34 34 34 34 34 34 35 35 36 37
51 52 52 52 52 51 51 49 46 42 40 40 41 42 43 44 44 44 43 42 41 40 40 39 39 38 37 36 36 35 34 34 34 34 34 34 34 34 34 33 33 33 34 34 34 35 36 37 38
48 51 52 52 53 51 49 47 42 39 38 39 40 41 41 42 42 42 41 41 41 40 40 39 38 37 36 35 35 34 34 34 34 34 34 33 33 33 33 33 33 33 34 34 34 35 36 37 39

GEFSSGP_500_meanwind_126.txt.gz
Wind_Speed
29 29 29 29 30 29 25 23 25 27 29 30 31 31 31 31 31 30 25 23 22 22 21 20 19 17 17 16 15 14 13 12 11 11 10 10 9 9 9 9 9 10 10 11 12 13 13 14 15
32 31 31 31 31 28 23 23 26 28 30 31 31 31 31 31 32 29 26 24 23 22 22 20 20 19 18 17 16 15 14 13 12 12 11 10 10 9 10 10 10 11 11 12 13 14 14 15 16
35 34 34 33 31 27 24 26 28 29 31 31 31 31 32 32 32 30 28 26 25 24 23 21 21 20 19 18 17 15 15 14 13 12 11 10 10 10 10 11 11 12 13 13 14 14 15 17 17
38 37 37 35 30 26 26 28 31 31 32 31 31 32 33 32 31 30 29 28 26 25 24 23 22 21 20 19 18 16 15 14 13 12 12 11 11 11 11 12 12 13 13 14 15 15 17 17 18
41 41 40 37 31 28 29 30 32 31 32 31 32 33 33 32 32 32 31 30 28 26 25 24 23 22 20 20 19 18 16 15 14 13 12 12 12 12 12 13 13 13 14 15 16 17 18 19 20
43 43 42 38 33 31 32 33 33 32 32 32 34 34 34 33 33 33 32 31 29 28 27 25 24 23 21 20 20 18 17 16 15 14 13 12 12 13 13 13 14 15 15 16 17 18 19 20 22
45 46 44 40 36 34 33 34 34 33 33 33 34 34 34 33 33 33 33 32 30 29 28 27 25 24 23 22 21 19 18 17 16 15 13 13 14 14 14 14 15 16 16 17 18 19 20 22 23
48 48 47 43 39 36 35 36 36 35 34 34 36 36 35 34 33 34 33 32 31 30 29 28 26 25 24 23 22 21 19 18 16 15 14 14 14 14 15 15 16 16 17 18 20 21 22 23 24
51 51 49 43 40 37 38 39 38 37 37 36 37 37 35 35 34 34 33 32 32 31 30 29 28 26 24 23 22 21 20 18 17 16 15 15 15 15 15 16 16 17 18 20 21 22 23 25 26
54 53 48 43 42 41 41 41 40 40 39 37 38 37 35 35 34 34 34 33 32 32 30 30 29 27 25 24 23 22 20 19 18 17 17 16 16 16 16 16 17 18 19 21 22 23 25 26 28
55 53 48 46 45 45 44 44 42 42 40 38 38 37 36 35 35 35 34 34 33 32 31 30 29 28 26 25 24 22 21 20 19 18 17 17 17 16 17 18 18 19 21 22 23 25 26 28 29
56 53 51 49 48 48 47 46 45 44 41 40 40 39 38 37 36 36 35 34 34 33 32 31 30 29 28 26 25 23 22 21 20 19 19 18 18 18 18 19 20 21 22 24 25 26 28 29 30
56 54 53 51 50 49 49 48 47 46 43 43 42 42 40 38 38 37 36 36 35 34 32 31 30 29 28 27 26 24 23 22 21 20 20 19 19 19 19 20 21 23 24 25 26 28 29 31 32
55 55 55 54 52 51 51 50 50 47 45 44 44 43 41 39 38 38 37 36 35 34 33 32 31 30 29 28 27 25 24 23 22 21 21 20 20 20 21 22 23 24 25 27 28 29 31 32 33
55 56 56 55 53 52 52 54 52 47 47 46 45 43 42 41 40 39 38 37 36 35 34 33 32 31 30 29 28 26 25 24 23 22 22 21 21 22 23 24 25 26 27 28 29 31 32 33 34
55 56 57 55 53 53 55 55 50 49 49 48 46 45 43 42 41 40 40 38 37 36 35 34 33 32 30 29 28 27 26 25 24 23 23 23 23 24 24 25 26 27 28 30 31 32 33 34 34
56 57 56 54 54 53 56 55 51 50 51 49 48 47 45 43 42 41 40 40 38 38 37 35 34 33 32 31 29 28 27 26 25 25 24 25 25 25 26 26 27 28 29 31 32 33 34 34 35
54 56 55 54 53 54 56 55 52 52 52 51 50 49 47 45 43 42 41 41 40 39 38 37 36 35 33 32 30 29 28 27 26 26 26 26 26 26 27 28 28 29 31 32 32 33 34 35 35
50 53 55 53 52 54 56 55 53 53 53 52 52 50 48 46 44 44 43 42 41 40 39 38 37 36 34 33 31 30 29 28 27 27 27 27 27 27 28 29 30 31 32 32 33 34 34 35 36
50 52 53 54 53 55 56 56 55 55 54 53 52 51 49 48 46 45 44 43 42 41 40 38 38 37 35 34 32 31 30 30 29 28 28 28 28 29 30 30 31 32 32 33 34 34 35 36 36
50 50 50 52 53 54 56 58 57 56 55 54 53 52 51 50 48 46 45 44 43 42 40 39 38 38 36 35 33 32 31 31 30 29 29 29 30 30 30 31 32 32 33 34 34 35 36 36 36
49 48 49 50 52 53 55 58 58 55 56 56 54 53 52 51 49 47 46 45 44 42 42 41 39 38 38 36 35 33 32 31 31 31 31 31 31 31 31 32 32 33 34 34 35 35 36 36 37
46 47 48 49 51 53 54 57 59 56 57 57 55 53 52 51 50 49 47 46 45 43 42 41 40 39 38 37 36 35 33 33 33 32 32 32 32 32 33 33 33 34 34 35 35 35 35 36 37
43 45 46 47 49 54 54 55 58 56 55 54 54 53 52 51 51 50 48 47 45 44 43 42 41 40 39 38 37 36 35 34 34 33 33 33 33 34 34 34 34 34 35 35 35 35 36 36 37
42 44 45 48 50 52 51 55 57 53 52 52 53 53 52 51 51 50 49 47 45 44 43 43 42 41 40 39 38 36 36 36 35 34 34 34 34 34 34 35 35 35 35 35 35 35 36 36 37
44 44 45 45 47 49 50 55 55 51 50 50 51 51 52 52 50 50 50 48 47 46 45 43 42 41 40 39 38 37 36 36 35 35 36 36 35 35 35 35 35 35 35 35 35 35 36 36 37
43 44 42 42 43 45 49 52 53 51 50 49 49 50 50 50 50 49 49 49 48 47 46 45 43 42 41 40 39 38 37 36 36 36 36 36 35 35 35 35 35 35 35 34 35 35 36 36 37
40 40 42 42 42 42 44 48 50 48 48 48 48 48 48 49 49 49 49 49 48 47 47 45 44 42 42 41 40 39 37 37 37 37 36 35 34 34 34 35 35 35 34 34 34 35 36 36 37
39 41 42 43 42 41 39 42 44 45 45 46 46 46 46 47 48 49 49 49 49 47 47 45 44 43 42 41 40 39 39 38 37 37 36 35 34 34 34 35 34 34 33 34 34 35 36 36 37
37 40 41 43 44 42 37 35 38 42 43 43 44 45 46 47 47 48 49 48 48 48 47 46 45 44 43 42 41 40 39 38 38 36 36 35 34 34 34 34 34 33 33 34 34 34 36 37 38

GEFSSGP_500_meanwind_132.txt.gz
Wind_Speed
37 37 36 35 35 34 29 25 26 28 30 32 33 34 34 34 32 31 28 25 24 24 23 22 21 20 19 18 16 15 14 13 12 11 11 10 9 9 9 9 9 9 9 10 10 11 12 12 13
40 39 39 39 38 34 28 26 28 29 31 34 35 35 35 34 33 31 29 26 25 25 24 23 22 21 20 19 18 17 15 14 13 13 12 11 10 10 10 9 9 10 10 11 12 12 13 13 14
43 42 42 42 40 34 27 27 30 32 33 35 36 36 35 34 33 32 30 28 26 26 26 25 23 22 21 20 19 18 16 15 14 14 13 12 11 11 10 10 11 11 12 12 12 13 13 14 15
46 46 45 45 41 34 30 31 33 34 35 36 37 37 35 34 33 32 31 29 28 27 27 26 25 24 23 21 20 19 18 17 16 15 14 13 12 12 11 11 12 12 13 13 13 13 14 14 15
48 49 49 47 42 36 33 34 36 37 37 37 37 37 36 35 34 33 32 31 30 29 29 28 26 25 24 23 21 20 19 18 17 16 15 14 13 13 12 12 13 13 13 13 13 13 14 15 16
51 52 51 48 43 38 37 37 39 39 39 39 38 38 37 36 35 35 34 33 32 31 30 30 28 26 25 24 23 22 20 19 18 17 16 15 14 14 13 13 14 14 13 13 13 14 15 16 17
53 54 53 50 46 42 39 40 41 40 40 40 39 39 38 37 36 36 35 34 34 33 32 31 30 28 26 25 24 23 21 20 19 18 17 16 15 15 15 15 14 14 14 14 14 15 16 17 18
54 56 55 52 48 44 41 43 43 42 42 42 42 41 39 38 37 37 37 36 35 34 33 32 31 30 28 26 25 24 22 21 20 19 18 18 17 16 16 15 15 15 15 15 15 16 17 17 19
56 57 56 52 49 45 44 46 46 45 45 44 43 42 41 40 39 39 38 37 36 35 34 33 32 31 30 28 26 25 24 22 21 20 20 19 18 17 16 16 16 15 15 15 16 16 17 19 20
58 59 53 51 50 48 48 48 48 48 47 46 44 43 42 41 40 39 38 37 36 35 35 34 34 32 31 30 28 26 25 23 22 22 21 20 19 18 17 17 16 16 16 16 17 18 19 20 21
58 57 52 52 51 51 51 51 51 51 50 47 45 44 43 42 41 40 39 37 37 36 36 35 35 33 32 31 29 27 26 25 24 23 22 21 20 19 19 18 17 17 17 17 18 19 20 21 22
57 56 54 52 51 51 52 53 53 53 51 48 47 47 45 43 42 40 39 38 38 37 36 36 35 34 33 32 30 29 27 26 25 24 23 22 21 20 20 19 18 18 18 18 19 20 21 22 24
56 55 53 53 53 52 53 54 55 54 52 50 49 49 48 46 44 42 41 40 39 38 37 36 35 34 34 33 32 30 29 27 26 25 24 23 22 21 21 20 20 19 19 20 20 22 23 24 25
53 53 52 52 52 53 54 54 55 54 52 52 51 50 49 48 45 44 42 41 40 39 38 36 35 35 34 34 33 32 30 29 27 26 24 24 23 22 22 21 20 20 20 21 22 23 24 25 26
51 52 52 51 51 53 55 57 55 52 53 52 52 50 50 48 46 44 43 41 40 40 38 37 36 35 35 34 34 33 32 31 29 27 26 25 24 23 23 22 21 21 22 22 23 24 25 26 27
49 52 53 50 50 52 56 57 53 52 53 53 52 51 50 49 47 46 44 43 42 41 39 38 36 36 35 35 34 34 33 32 31 29 27 26 25 24 24 23 23 23 23 23 25 25 26 26 28
47 50 50 49 50 52 56 56 53 53 53 53 52 52 51 50 49 47 46 44 43 42 40 39 37 37 36 35 34 34 33 32 31 30 28 27 26 25 24 24 24 24 24 25 26 26 27 27 28
45 48 48 48 49 51 54 55 53 53 53 53 53 53 52 51 49 47 46 45 44 43 41 40 38 38 37 36 35 35 34 33 32 30 29 28 27 26 25 25 25 25 25 26 27 27 27 28 29
43 45 46 46 49 51 53 53 53 54 55 54 54 54 53 51 49 48 48 47 46 44 42 41 39 39 38 37 36 35 33 32 32 31 30 28 27 27 26 26 26 26 27 27 27 27 28 29 30
42 43 43 44 47 50 52 53 53 55 56 55 54 54 53 52 52 50 48 48 47 45 43 42 40 39 38 37 36 35 34 33 32 32 31 29 28 28 28 27 27 27 27 28 28 28 29 30 31
40 41 40 42 45 48 50 53 54 54 56 56 55 54 54 53 52 51 49 49 48 46 44 42 41 40 39 38 37 36 35 34 33 32 31 30 29 29 29 28 28 28 28 28 28 29 30 31 32
35 37 39 41 44 47 49 51 53 53 55 56 55 54 53 53 53 52 50 49 48 46 45 43 41 40 40 39 38 36 35 34 33 32 31 31 30 30 29 29 29 29 29 29 29 30 31 32 32
33 33 37 39 41 44 46 50 50 51 53 55 54 53 53 52 52 52 51 49 48 47 46 44 42 41 41 40 39 37 35 35 34 33 32 31 31 30 30 30 30 29 30 30 30 31 31 32 33
31 32 34 37 40 44 43 46 49 49 50 51 52 52 52 52 51 51 51 50 49 49 47 45 43 42 41 40 39 37 36 35 35 34 33 32 31 31 30 31 30 30 30 31 31 31 32 33 33
29 31 33 35 39 41 40 44 45 43 44 47 51 52 52 52 52 51 51 50 50 49 48 46 44 42 41 40 39 38 37 36 35 34 34 33 32 32 31 31 31 31 31 31 31 32 33 33 34
30 31 32 33 36 37 38 41 39 40 42 44 48 51 52 53 52 51 51 50 49 49 48 46 44 43 41 40 39 38 37 36 35 35 34 33 33 32 32 32 32 32 32 32 32 33 33 34 34
27 31 31 33 33 34 36 36 35 38 40 42 45 50 51 52 52 51 50 50 49 48 47 46 44 43 42 40 39 38 37 36 35 35 34 34 33 33 33 33 32 32 32 32 33 33 34 34 34
25 27 30 32 32 33 34 35 31 32 37 40 43 47 48 50 50 50 50 50 49 48 47 46 45 44 42 41 40 39 37 36 36 35 35 34 33 33 33 33 33 33 33 33 33 34 34 35 35
24 27 30 31 33 34 34 34 31 29 32 37 40 44 47 49 49 49 50 50 49 49 48 46 46 44 43 42 41 39 38 37 37 36 34 33 33 34 34 33 33 33 33 33 34 34 34 35 35
25 27 30 32 34 35 35 33 32 30 31 33 38 42 44 47 49 48 48 49 49 48 48 47 45 44 43 42 41 40 39 38 37 36 35 34 34 34 34 33 33 33 34 34 34 34 34 34 34

GEFSSGP_500_meanwind_138.txt.gz
Wind_Speed
37 37 37 38 40 40 37 31 28 28 30 33 36 37 36 35 34 33 31 30 29 28 27 26 26 24 23 22 20 18 16 15 13 12 11 11 10 8 7 7 6 6 7 7 8 9 10 11 11
40 40 40 41 43 42 36 30 29 30 34 37 38 38 37 37 35 33 32 32 31 30 29 28 27 26 25 23 22 20 18 16 15 14 13 12 11 10 9 8 8 8 8 8 9 10 11 11 12
43 43 44 45 45 41 35 32 31 34 37 39 39 39 39 37 36 35 34 33 32 31 30 29 29 27 26 25 24 22 20 18 17 15 14 14 13 11 10 10 9 9 9 9 10 11 11 11 12
46 47 48 48 45 40 36 34 35 37 39 40 41 41 40 38 37 36 36 35 34 33 32 31 30 29 28 27 25 24 22 20 18 17 16 15 14 13 12 11 11 10 10 10 11 11 12 12 13
49 50 51 50 46 41 38 38 38 40 41 42 43 43 41 39 39 38 38 37 35 34 33 32 31 30 29 28 27 25 23 22 20 18 18 17 16 14 13 12 12 11 11 11 12 12 12 13 13
52 53 54 52 47 44 42 41 42 43 43 44 44 44 43 41 41 40 39 38 37 36 35 34 33 32 31 29 28 26 25 24 22 20 19 18 17 16 14 13 13 13 12 12 12 12 13 13 14
53 55 55 52 49 47 43 43 44 45 45 45 46 46 45 43 43 42 41 40 39 38 37 35 34 33 32 31 29 28 27 25 23 22 20 19 18 17 16 15 14 14 13 13 13 13 13 14 14
54 56 56 53 50 48 46 46 46 48 47 47 49 48 46 44 44 44 43 42 41 40 38 37 35 34 34 32 31 29 28 26 25 23 22 21 20 18 17 16 15 15 14 14 14 14 14 14 15
54 57 57 52 51 50 49 49 49 50 50 50 50 49 48 46 46 45 44 43 42 41 40 38 37 36 35 34 33 31 29 28 26 25 23 22 21 20 18 17 16 16 15 15 15 15 15 15 16
54 58 54 52 52 52 51 51 51 53 52 52 52 51 50 48 47 46 45 44 43 42 41 40 39 38 37 36 35 33 31 29 27 26 25 23 22 21 20 19 18 17 16 16 16 16 16 16 17
53 55 52 52 53 53 52 53 53 54 53 52 52 52 51 50 49 48 47 45 44 43 42 42 40 39 39 37 36 35 33 31 29 27 26 25 24 23 21 20 19 18 17 17 17 17 17 18 19
51 52 52 52 53 53 53 54 55 55 53 53 54 54 54 52 51 49 48 47 45 44 43 43 42 41 40 39 38 36 34 32 30 29 27 26 25 24 23 22 20 19 19 18 18 18 18 19 20
50 50 51 52 53 53 53 55 55 56 54 54 55 55 54 54 53 51 50 49 47 45 44 44 43 42 41 40 39 38 36 34 32 30 29 28 26 25 24 23 21 21 20 19 19 19 19 20 21
46 48 49 50 52 52 54 55 55 55 54 54 55 55 55 55 54 53 52 50 48 46 45 45 44 43 42 41 40 39 37 36 34 32 30 29 28 26 25 24 22 22 21 21 20 20 20 21 22
43 46 46 48 49 50 53 56 54 51 54 55 55 55 55 56 55 54 53 51 49 48 46 45 44 44 42 41 41 40 38 37 35 33 32 30 29 27 26 24 24 23 22 22 22 21 21 22 23
40 43 44 44 44 47 51 54 51 51 54 55 55 56 56 56 56 55 53 52 51 49 48 46 45 44 43 42 41 40 39 38 36 35 33 32 30 28 27 25 25 24 23 23 23 22 23 23 24
37 40 40 40 42 44 49 50 48 51 54 54 54 56 56 56 56 55 54 52 52 50 48 47 46 45 44 43 42 41 40 38 37 36 35 33 31 30 28 27 26 25 24 24 23 23 24 24 25
34 37 38 39 39 43 46 47 47 49 53 54 54 54 57 57 55 55 54 53 52 51 50 48 47 46 45 44 43 41 40 39 38 37 35 34 33 31 30 28 27 26 25 25 25 25 25 25 26
30 34 37 37 38 42 44 45 46 48 51 52 53 53 55 56 55 56 56 55 54 53 51 50 48 46 46 45 43 42 40 39 39 37 36 35 34 33 31 29 28 27 26 26 26 26 26 26 27
27 31 33 34 37 41 44 44 43 46 48 50 51 52 54 55 56 55 55 55 55 54 52 50 48 47 46 45 44 43 41 40 39 38 37 36 35 34 32 30 29 28 28 27 27 27 27 27 27
25 26 29 31 34 37 41 42 41 43 47 49 50 51 53 54 55 55 55 56 55 54 53 51 49 48 47 46 45 44 42 41 39 38 37 36 35 34 33 32 30 29 29 28 28 28 28 28 28
25 24 26 28 31 32 37 41 40 40 43 46 48 49 50 53 53 54 55 56 55 54 53 52 50 49 48 47 45 44 42 40 39 38 37 36 35 35 34 33 32 31 30 29 29 29 29 29 29
23 24 25 25 27 29 32 38 38 37 40 43 46 47 48 51 52 54 54 54 54 54 54 53 52 50 49 48 46 44 43 41 40 38 37 36 36 35 34 33 32 32 30 30 30 30 30 30 30
21 22 24 25 26 27 27 32 34 35 36 39 42 45 46 49 51 52 54 54 55 55 55 55 53 51 49 48 46 45 43 42 40 39 38 37 36 35 34 33 33 32 31 31 31 31 31 31 31
20 20 22 24 25 26 25 29 31 31 33 35 39 43 45 48 50 52 53 54 56 56 55 55 54 52 50 49 47 46 44 42 41 40 39 37 36 35 35 34 33 33 32 32 32 31 31 32 32
20 20 21 23 24 24 24 25 27 29 31 33 36 40 44 47 50 51 52 53 54 55 55 55 55 52 51 50 48 46 45 43 42 41 39 38 37 36 35 35 34 33 33 33 32 32 32 33 33
21 21 21 23 24 25 23 22 23 27 29 31 35 39 42 45 48 50 51 52 53 54 54 53 54 52 51 51 49 47 45 44 42 41 40 39 37 37 36 35 35 34 34 33 33 33 34 34 34
21 21 22 23 24 25 24 22 22 24 27 29 32 36 39 43 46 48 50 50 53 54 53 53 54 53 51 50 50 48 46 44 43 42 41 39 38 38 37 36 36 35 35 34 34 35 35 34 35
21 22 22 23 25 25 25 23 22 23 26 28 30 33 37 41 44 47 49 50 52 54 55 54 53 54 52 51 50 48 47 46 44 43 41 40 39 38 37 37 37 36 36 35 35 36 36 36 36
22 23 24 25 26 27 27 24 23 24 26 27 28 31 34 38 42 45 47 49 52 53 54 54 53 53 52 52 51 49 48 47 45 43 42 41 40 39 38 38 37 37 36 36 36 36 36 36 36

GEFSSGP_500_meanwind_144.txt.gz
Wind_Speed
32 33 34 34 35 34 31 29 29 30 30 31 33 34 34 34 33 34 32 31 31 31 29 29 28 28 27 27 26 25 24 22 20 19 18 17 16 15 14 13 12 10 9 8 8 7 7 7 7
35 36 36 38 38 37 32 30 31 32 34 34 35 36 36 36 35 34 34 33 33 33 32 31 30 30 29 29 28 27 26 24 23 21 19 19 17 16 15 14 13 12 11 9 9 8 8 7 7
38 39 40 41 40 38 35 33 34 35 37 37 38 38 39 38 36 36 35 35 35 35 34 33 32 31 31 31 30 29 28 26 25 23 21 20 19 18 17 16 15 13 12 11 10 9 9 8 8
41 43 44 44 42 38 37 37 38 39 39 40 40 41 41 39 38 38 38 37 37 37 36 36 34 33 33 32 32 31 30 28 26 25 23 22 21 20 19 18 16 15 14 12 11 10 10 9 9
44 46 47 47 44 41 40 41 42 42 42 42 43 43 42 41 41 40 40 40 40 39 38 38 37 36 35 34 33 32 31 30 28 27 25 23 22 21 20 19 18 16 15 14 12 11 11 10 10
47 48 49 48 46 44 44 44 45 45 45 45 45 45 44 43 43 43 43 43 42 42 41 40 39 38 37 36 35 34 33 32 30 29 27 25 24 23 22 21 19 17 16 15 14 13 12 12 11
49 50 51 50 49 48 48 47 47 48 47 47 48 48 47 46 46 45 45 45 45 44 43 42 41 40 39 38 37 36 35 33 32 31 29 27 25 24 23 22 20 19 17 16 15 13 13 13 12
50 52 53 52 52 51 49 48 48 49 49 50 50 50 49 49 48 48 48 47 47 46 46 45 43 42 41 39 38 38 36 35 33 32 31 29 27 26 24 23 21 20 19 17 16 14 14 14 13
50 53 53 53 54 53 51 51 49 50 51 52 52 52 51 51 50 50 50 49 49 48 47 47 46 44 43 41 40 39 38 36 35 34 32 31 29 27 25 24 23 21 20 18 17 16 15 15 15
50 53 52 52 53 53 52 52 51 52 53 54 54 55 54 53 53 52 52 51 51 50 49 48 47 46 45 43 42 41 39 38 37 35 34 32 30 29 27 26 24 22 21 19 18 17 16 16 16
48 50 50 51 52 53 53 53 52 53 54 55 55 56 56 55 54 54 54 53 53 52 51 50 49 48 47 45 44 43 41 39 38 37 35 34 32 30 28 27 26 24 22 21 20 19 17 17 17
45 46 47 49 51 51 52 52 53 54 54 55 56 57 57 56 56 56 55 55 54 54 53 52 51 50 49 47 46 44 42 41 40 38 37 35 33 31 30 29 27 25 24 22 21 20 19 18 18
42 42 44 46 48 49 50 50 52 53 53 54 55 57 58 57 57 57 57 57 56 56 55 55 54 52 51 49 47 46 44 42 41 40 38 36 34 32 31 30 28 27 25 24 23 21 20 19 19
39 39 41 43 44 46 48 47 49 49 51 53 54 56 57 57 57 58 58 58 57 57 56 56 56 54 53 51 49 47 45 44 43 42 40 38 36 34 32 31 30 28 26 25 24 23 22 21 20
36 36 36 38 39 40 44 45 45 47 49 51 53 53 54 55 56 56 57 58 58 57 57 57 57 56 55 53 50 48 47 45 44 43 41 40 38 36 34 32 31 29 28 26 25 24 23 22 22
34 34 34 35 36 36 40 41 39 45 47 49 51 52 53 54 55 55 56 57 58 58 58 59 58 57 56 54 51 49 48 47 46 45 43 41 39 37 35 34 32 30 28 27 26 25 24 24 23
32 33 32 33 33 35 37 38 39 41 44 46 49 50 52 54 54 55 56 57 58 59 58 58 58 58 56 55 53 51 49 48 47 46 44 43 41 39 37 35 33 31 30 29 28 27 26 25 25
30 30 31 30 30 33 35 36 37 39 41 42 44 46 49 51 53 54 56 58 59 59 59 59 59 58 56 55 53 52 50 48 47 47 45 44 42 40 39 37 35 33 31 30 29 28 27 27 26
29 29 29 28 28 32 33 33 34 35 38 38 39 41 44 48 50 51 54 57 59 59 59 59 58 58 57 55 53 52 50 49 48 47 46 45 43 41 39 38 36 34 33 31 30 29 29 28 27
29 29 29 28 26 28 29 29 30 32 33 34 36 38 42 45 47 49 52 54 57 59 59 59 58 58 57 56 54 52 51 50 49 48 46 45 44 42 40 38 37 35 34 33 32 31 30 29 29
28 27 26 26 25 25 26 25 26 29 31 32 35 36 39 43 45 48 51 53 55 57 58 59 58 57 57 56 54 52 51 51 50 48 47 46 45 44 42 40 38 37 35 34 33 32 31 31 30
26 26 26 24 23 22 21 22 21 26 29 31 33 34 36 41 43 46 49 52 53 56 57 58 58 57 57 57 55 52 51 51 50 49 48 48 47 45 43 41 39 38 36 36 35 34 33 32 32
24 24 23 21 20 18 17 19 18 23 25 27 30 33 35 37 41 44 47 51 52 54 56 58 58 57 56 56 55 53 51 51 51 50 49 48 47 45 43 42 40 39 38 37 36 35 34 34 33
23 23 21 19 16 15 13 15 16 20 23 25 28 29 32 37 39 41 45 49 51 52 55 57 58 57 56 56 55 54 51 51 51 49 48 47 47 45 44 42 41 40 39 38 37 36 35 35 34
23 22 20 17 15 14 13 14 13 16 21 24 26 27 30 35 37 39 42 46 49 51 54 56 58 57 57 56 55 55 52 51 51 49 48 47 46 45 44 43 42 40 39 38 37 36 36 36 35
22 20 18 17 15 14 13 13 13 14 18 22 24 25 28 32 35 38 40 44 48 50 53 55 56 56 57 57 55 54 52 50 50 50 48 47 46 45 44 44 43 41 40 38 38 37 37 37 36
22 20 19 18 17 16 14 13 13 14 17 21 23 25 27 31 33 36 39 42 47 49 51 54 55 55 56 57 56 56 52 50 49 49 49 47 46 45 44 43 43 41 40 39 38 38 37 37 37
22 20 19 18 18 18 16 15 14 14 17 20 23 25 26 29 33 36 39 40 44 47 50 53 55 56 55 56 57 56 54 51 50 49 49 48 46 46 45 44 43 42 41 40 39 38 38 37 37
21 19 19 19 19 20 19 17 17 16 18 20 23 24 27 29 31 35 38 40 44 46 49 53 54 54 56 56 56 56 53 52 50 50 49 49 47 46 45 45 44 43 41 40 39 38 38 38 37
21 20 19 19 20 21 22 20 18 19 20 21 23 24 26 29 29 32 36 40 43 46 49 52 53 54 55 56 57 58 54 52 52 50 49 49 48 47 46 45 44 43 42 41 39 39 39 38 38

GEFSSGP_500_meanwind_150.txt.gz
Wind_Speed
29 29 30 31 32 32 29 27 27 27 28 28 29 29 29 30 31 33 31 29 28 28 28 29 30 29 29 28 28 27 27 26 25 23 21 19 18 18 17 17 16 15 14 13 12 11 11 10 10
32 32 34 34 35 33 30 30 30 30 31 31 32 32 32 32 33 34 33 31 30 30 30 31 31 31 31 30 29 29 29 28 27 25 23 22 20 19 19 18 18 17 16 15 14 13 12 12 12
35 36 37 38 37 36 34 33 34 34 35 35 34 34 35 35 35 36 35 33 32 32 32 33 34 33 33 32 31 31 30 30 29 27 26 24 22 21 20 20 19 19 18 16 15 14 14 13 13
38 39 40 41 39 37 37 37 38 38 38 38 38 38 38 37 37 37 37 36 35 35 35 35 35 35 35 34 33 33 32 32 30 30 28 26 25 23 22 22 21 20 19 18 17 16 15 15 14
41 42 44 43 41 40 41 40 41 42 41 40 41 41 41 40 39 39 39 39 37 37 37 37 37 37 37 36 35 35 34 33 32 32 31 29 27 25 24 23 23 22 21 20 18 17 17 16 15
44 45 47 46 44 44 44 44 44 45 43 43 43 44 43 43 42 42 42 41 40 39 39 39 39 39 39 39 38 37 36 35 34 34 33 31 29 28 26 25 24 23 22 21 20 19 18 17 17
45 47 48 48 48 47 46 46 47 47 46 46 46 46 46 45 45 44 44 43 43 42 42 41 41 41 41 41 40 39 38 37 36 35 34 33 32 30 29 27 26 25 24 23 22 21 19 19 18
46 49 49 49 49 49 48 49 49 50 49 48 49 49 49 49 49 47 47 46 45 45 44 44 44 43 43 43 42 41 40 39 38 37 36 35 34 32 31 29 28 27 25 24 23 22 21 20 19
46 49 49 50 51 51 50 51 51 52 51 51 52 52 52 52 52 50 50 49 48 47 47 46 46 46 45 44 44 44 42 41 41 39 38 37 36 34 33 31 29 28 27 26 24 23 22 21 21
44 47 48 49 50 51 51 52 52 53 53 53 54 53 54 54 54 53 52 51 50 49 49 48 48 48 47 46 46 46 45 43 43 41 40 38 37 36 34 32 31 30 29 27 26 25 24 23 22
42 45 46 47 48 50 51 52 52 54 55 54 55 54 55 56 55 55 54 53 53 52 51 51 50 49 49 49 48 47 47 46 44 43 42 40 39 38 36 34 33 32 30 29 28 26 25 24 24
41 42 44 45 46 47 49 50 51 53 55 55 56 56 56 56 58 57 56 55 54 54 54 54 52 52 51 50 49 49 49 48 46 45 44 42 41 39 37 36 34 33 32 31 29 28 27 26 25
38 39 40 42 43 44 46 47 49 52 54 55 55 57 58 58 58 58 58 57 57 56 56 56 55 54 53 52 52 50 50 49 48 47 46 44 42 40 38 37 36 35 33 32 31 29 28 27 26
37 38 38 38 40 40 43 44 47 49 51 53 52 55 55 56 57 57 58 58 58 58 58 58 57 56 55 55 54 53 51 50 49 48 47 45 43 42 40 38 38 36 35 34 32 31 30 28 27
36 36 35 35 37 37 40 41 42 43 47 51 51 52 52 53 54 55 57 56 56 57 59 59 59 58 57 56 55 55 54 52 51 50 48 46 45 43 41 40 39 37 36 35 33 32 31 30 29
34 33 33 33 34 34 38 39 38 40 44 47 48 49 50 50 51 51 53 55 55 55 57 58 59 59 58 57 57 56 55 54 53 51 49 47 46 44 43 42 41 39 37 36 34 33 32 31 30
32 32 32 31 32 33 36 37 36 38 40 42 45 47 47 47 48 49 50 53 54 54 55 56 58 58 58 58 58 58 56 55 54 53 51 49 47 46 45 43 41 40 38 37 35 34 33 32 31
33 33 33 31 29 32 34 35 34 35 38 39 40 41 42 43 43 45 46 49 51 51 53 54 56 56 57 58 58 59 58 56 54 53 52 50 48 47 46 44 42 41 39 38 36 35 34 33 32
34 34 34 31 29 32 33 33 31 32 34 36 37 37 39 39 40 41 42 45 46 48 50 53 54 55 56 57 59 59 59 57 55 54 53 50 49 48 47 45 43 42 40 38 37 36 35 34 33
33 33 33 30 29 31 31 31 29 30 31 32 33 34 35 35 36 38 40 41 43 45 47 50 53 53 55 57 58 59 58 58 56 54 53 51 49 48 47 46 44 43 41 39 38 37 36 34 33
33 33 33 31 28 26 27 27 25 26 28 28 30 32 32 33 34 34 36 38 41 43 44 48 51 52 54 56 57 59 58 57 56 54 53 52 49 48 47 46 45 44 42 40 39 38 36 36 35
32 32 32 31 28 27 27 29 24 22 23 24 25 28 27 28 31 33 35 35 38 41 42 46 50 52 53 55 57 58 59 57 55 53 53 52 51 49 48 47 46 45 43 42 40 39 38 37 36
32 32 31 30 28 29 25 27 24 21 21 20 22 24 25 26 28 31 33 33 36 39 40 44 47 50 53 54 56 57 58 56 54 54 54 52 51 50 49 48 47 46 45 43 42 40 39 38 37
32 31 31 29 28 28 25 25 24 21 20 19 20 23 24 25 26 29 31 33 34 38 39 42 45 48 51 53 55 56 56 57 55 54 53 51 51 49 47 47 46 46 45 44 42 41 40 39 38
32 31 31 30 29 27 24 23 23 22 21 20 20 21 23 22 25 28 31 31 33 36 38 41 45 47 50 52 54 55 55 56 54 54 53 52 49 48 48 47 47 46 45 44 43 42 40 39 38
33 31 31 30 29 26 22 22 22 22 20 19 19 20 21 21 23 26 28 30 32 34 37 40 43 46 49 52 53 54 53 55 54 53 52 51 49 47 47 46 47 46 45 44 43 42 41 40 39
32 31 30 30 29 28 26 24 23 21 20 20 20 20 21 22 23 25 27 30 31 32 34 38 41 43 47 50 53 54 53 54 53 53 52 50 48 46 46 46 47 46 45 44 43 42 41 40 39
32 30 29 29 29 29 27 26 23 21 21 21 21 22 22 22 23 24 25 27 30 32 34 36 39 42 45 48 50 52 52 52 52 52 51 50 47 46 46 46 46 46 45 44 43 42 41 40 39
33 31 30 30 29 29 28 26 25 22 22 22 22 23 23 23 24 25 26 27 29 31 33 35 39 41 43 47 49 50 51 52 51 51 51 51 49 46 46 45 46 45 45 44 43 42 41 40 39
34 32 31 30 29 28 29 28 25 24 23 23 23 24 24 24 25 25 26 27 28 31 34 35 38 40 42 45 48 50 50 52 51 51 51 51 49 47 47 46 45 44 44 44 43 42 41 40 39

GEFSSGP_500_meanwind_156.txt.gz
Wind_Speed
24 25 26 26 27 27 26 25 24 24 25 25 26 27 27 27 27 26 24 23 23 23 22 23 23 23 24 24 24 24 24 24 24 23 22 22 21 20 19 18 17 17 17 16 15 15 14 13 13
27 27 28 29 29 29 28 27 27 27 28 29 29 30 30 30 29 28 27 26 25 25 25 25 25 25 25 26 26 26 26 26 26 25 25 24 23 22 21 20 19 19 18 17 17 16 15 15 14
29 30 31 32 32 31 30 30 30 31 32 33 33 33 33 33 32 31 30 29 28 27 27 27 28 27 27 27 28 28 27 27 27 27 27 26 25 24 23 22 21 20 20 19 18 17 17 16 16
31 31 33 34 33 33 33 34 34 35 35 36 37 37 36 36 35 34 33 32 31 30 30 30 30 30 30 29 29 29 29 29 29 29 28 28 27 26 25 24 23 22 22 21 21 20 19 18 17
33 34 35 35 35 36 36 37 38 38 38 39 39 39 39 38 38 37 37 36 34 33 32 32 32 33 32 32 32 32 31 31 31 31 30 30 29 29 27 26 25 24 23 23 22 22 20 19 19
35 36 37 37 37 38 39 40 40 40 40 41 42 42 41 41 41 40 39 39 38 37 36 35 35 35 34 34 34 34 34 33 33 33 32 32 31 30 29 28 27 26 25 25 24 23 22 21 20
36 37 38 39 40 40 41 42 43 42 42 43 44 45 43 43 43 43 42 42 41 40 39 38 38 37 37 36 36 36 36 35 35 35 34 34 33 33 31 30 30 28 27 26 25 25 24 22 22
37 39 40 41 41 42 43 45 45 45 44 44 45 46 46 45 45 45 45 45 44 43 42 41 40 40 40 39 39 38 38 37 37 37 36 36 35 34 33 32 31 31 29 28 27 26 25 24 23
37 39 40 41 42 43 44 45 46 47 46 46 47 48 47 48 47 46 46 47 46 45 44 44 43 43 42 42 41 41 40 39 39 38 38 38 37 36 35 34 33 32 31 30 29 27 27 26 25
36 38 39 40 41 42 43 45 46 47 48 48 48 49 50 50 50 48 47 48 48 47 47 47 46 45 45 45 44 43 43 42 41 40 40 39 38 38 36 36 35 33 32 31 30 29 28 27 26
35 37 37 38 40 41 42 44 45 47 48 49 49 49 50 51 51 50 49 50 50 49 49 49 49 48 48 48 47 47 46 45 44 43 42 41 40 39 38 37 36 35 34 33 32 30 29 28 28
34 35 36 37 38 40 41 42 42 44 46 48 49 50 50 52 52 52 52 52 52 51 51 51 51 51 50 50 50 49 49 48 46 45 44 43 42 41 39 39 38 37 35 34 33 32 31 30 29
32 33 34 34 35 36 38 38 40 42 43 45 48 50 51 53 53 54 54 54 55 53 53 52 53 53 53 53 52 52 51 51 49 47 46 45 44 42 41 40 39 38 37 35 34 33 33 32 31
31 31 32 33 34 35 35 35 38 40 41 43 45 47 49 52 52 52 52 52 54 55 55 55 55 56 56 55 54 53 53 53 52 50 48 48 46 44 42 41 41 39 38 37 36 35 34 33 32
29 29 30 32 32 33 33 32 34 36 38 39 41 43 46 49 50 49 50 52 54 55 56 55 56 57 57 57 57 56 55 55 54 53 51 49 47 46 45 43 42 41 40 39 38 36 35 35 34
28 28 29 30 31 31 32 30 31 33 35 35 37 40 42 44 45 46 47 49 51 53 55 56 57 57 57 58 59 58 57 57 56 55 53 52 50 48 46 45 44 43 42 41 40 38 37 36 35
28 28 28 29 30 31 30 28 27 30 32 32 34 36 39 40 41 43 46 48 49 50 53 54 54 56 57 58 58 59 59 58 57 56 55 54 52 50 49 47 46 44 44 42 41 40 39 37 36
28 28 28 29 30 30 29 26 25 28 30 31 32 34 36 39 39 41 43 46 47 48 49 51 52 53 54 55 56 58 58 59 58 58 57 55 54 52 50 48 47 46 45 45 43 42 41 39 37
29 28 28 29 29 27 26 25 26 26 27 28 30 32 34 36 38 38 39 41 43 46 47 48 50 50 51 52 54 56 57 57 58 58 58 56 55 54 52 50 48 47 46 46 45 44 42 41 39
31 29 29 28 29 27 25 25 25 25 25 26 28 30 32 34 35 36 36 38 41 42 44 46 48 49 49 50 51 53 55 56 57 57 57 57 57 56 53 51 50 48 46 46 46 46 44 43 41
30 30 29 29 28 27 27 25 23 23 24 25 26 28 30 31 33 35 34 34 36 38 41 42 44 45 44 47 50 52 53 55 56 56 56 56 57 57 54 53 51 50 47 48 48 46 45 43 42
30 30 30 28 29 27 28 28 22 23 23 24 24 25 26 27 29 31 33 32 33 35 38 40 42 41 42 44 48 51 52 53 54 55 55 54 56 57 55 53 52 52 49 48 48 47 46 45 43
32 32 31 29 28 28 27 27 24 25 24 24 24 24 24 25 26 28 31 30 30 33 36 39 40 41 41 43 45 47 49 51 52 53 54 54 54 56 55 53 52 51 50 47 48 48 46 45 43
32 32 32 30 29 28 27 28 28 27 26 25 25 24 23 23 24 26 28 29 29 32 34 36 37 39 40 41 44 44 45 49 52 54 53 53 54 54 54 53 52 51 51 49 49 49 46 44 43
33 33 33 32 31 29 29 29 29 28 26 26 26 26 23 23 23 25 26 27 27 29 31 33 35 36 39 40 41 43 44 47 50 52 52 52 53 53 52 53 51 50 49 49 49 49 47 44 43
33 34 33 33 32 31 29 28 27 27 26 26 26 26 24 24 23 24 25 26 26 28 30 31 32 34 36 39 40 40 42 45 47 49 49 49 50 51 51 51 51 49 47 48 48 48 46 44 43
33 33 32 32 34 33 31 28 26 26 26 26 25 25 24 24 24 24 25 25 26 27 28 28 30 32 34 36 38 39 41 44 46 47 48 48 48 48 50 51 50 50 48 47 47 46 45 43 42
33 33 33 33 34 35 33 30 28 27 27 27 26 25 24 24 24 25 24 24 25 25 26 27 29 30 31 33 34 36 39 42 44 47 48 48 47 47 48 49 49 49 48 46 45 43 43 43 41
32 33 34 34 34 35 34 30 29 29 29 29 27 25 25 24 23 23 22 22 24 24 26 26 28 30 31 34 35 35 38 42 44 46 48 47 46 46 46 49 49 48 47 46 44 43 42 43 42
34 34 34 34 34 35 36 32 30 29 29 29 28 25 24 23 22 22 23 22 23 24 25 28 28 29 30 32 34 35 37 40 43 46 47 48 46 45 46 46 47 47 46 45 44 43 43 41 40

GEFSSGP_500_meanwind_162.txt.gz
Wind_Speed
22 22 23 23 24 24 23 23 23 23 24 24 26 26 26 26 26 26 25 24 24 24 24 24 23 23 23 22 22 22 22 21 21 20 20 19 19 18 17 16 16 15 15 14 14 14 14 14 13
24 24 25 25 26 26 25 24 25 25 26 27 27 28 28 28 28 27 26 26 26 26 26 26 26 25 25 25 24 24 24 23 23 22 22 21 20 20 19 18 17 17 17 16 16 16 15 15 15
26 27 27 27 28 28 27 27 27 27 28 29 30 30 31 30 30 30 29 29 29 28 28 28 28 27 27 27 26 26 25 25 25 24 24 23 23 22 21 20 19 19 18 18 18 18 17 17 16
27 27 28 29 29 29 29 29 30 30 30 31 32 33 33 33 33 33 33 33 32 32 31 31 30 30 29 29 28 28 28 27 26 26 26 25 24 24 24 23 22 21 20 20 20 19 19 19 18
28 29 30 30 31 31 31 32 33 33 33 34 35 35 35 36 36 36 36 36 36 35 35 34 33 33 32 31 31 30 30 29 29 28 28 27 27 26 26 25 24 23 22 22 21 21 21 20 20
29 31 31 31 32 33 33 33 35 36 36 37 38 38 38 38 38 39 39 39 39 38 38 38 37 36 35 34 33 33 32 32 31 30 30 29 29 28 28 27 26 25 25 24 23 22 22 22 22
29 31 31 32 33 34 34 36 37 38 39 39 40 41 40 40 40 41 41 41 41 41 40 40 40 39 38 37 36 36 35 34 34 33 32 32 31 31 30 29 29 27 27 26 26 24 24 23 23
29 30 31 32 33 34 35 37 38 40 41 42 42 43 42 42 43 43 43 43 43 43 43 43 42 42 41 40 40 39 38 37 36 36 35 34 34 33 32 32 31 30 29 28 28 27 26 25 25
28 30 30 31 33 35 36 37 39 41 42 43 44 44 44 44 45 45 45 45 46 45 45 46 45 44 44 43 42 41 41 40 39 38 37 37 36 35 34 34 33 32 31 30 29 29 28 27 27
28 29 31 32 34 35 36 38 39 41 41 43 43 44 45 45 46 46 47 47 47 47 47 48 47 47 46 45 45 44 43 42 42 40 40 39 38 38 37 36 35 34 34 33 31 30 30 29 28
28 30 32 33 35 35 36 38 39 41 42 42 43 44 44 45 46 47 47 49 49 49 50 50 50 49 48 48 47 46 46 45 44 43 42 42 41 40 39 39 38 37 35 35 34 33 32 31 30
29 30 32 33 35 35 36 37 37 40 41 41 42 43 44 45 46 47 48 48 50 51 51 52 51 51 50 50 49 49 48 47 46 45 45 44 43 43 42 41 40 39 38 37 36 35 34 33 32
29 30 31 32 33 34 35 36 36 37 39 39 40 42 42 43 45 46 48 48 50 52 52 52 52 52 52 52 51 51 50 49 48 48 47 47 46 45 45 44 42 41 40 39 38 37 36 35 34
28 29 30 32 33 34 34 35 36 36 37 38 39 40 40 41 42 44 47 48 49 51 52 52 53 53 52 52 52 52 52 51 51 50 50 49 48 48 47 46 45 43 42 41 40 39 38 37 36
27 28 29 31 32 33 34 34 34 35 36 37 38 39 39 40 41 42 45 47 48 49 51 51 52 53 54 54 52 53 54 53 52 52 51 51 51 50 49 48 47 46 44 42 42 41 40 38 38
26 27 28 29 31 31 32 31 32 34 35 35 37 37 38 39 39 39 41 44 45 47 49 50 52 54 55 55 54 54 54 54 54 54 53 53 53 52 51 51 50 49 47 45 44 43 42 41 39
26 27 28 28 29 30 31 31 31 33 33 33 34 34 35 37 37 37 39 41 43 45 46 49 50 53 56 56 55 55 55 55 55 55 56 56 56 55 54 53 52 51 49 47 46 45 44 43 41
27 27 27 27 29 29 30 30 31 32 32 32 32 33 34 34 34 35 38 39 42 44 46 49 50 52 53 55 56 56 56 56 56 56 56 56 57 57 56 55 53 53 52 50 47 46 45 44 43
27 28 28 28 28 28 28 29 30 30 30 30 30 31 32 32 33 35 37 38 40 42 44 46 48 51 53 54 54 55 55 55 56 56 55 56 58 58 58 57 55 54 54 53 51 48 47 46 45
28 28 28 27 28 28 27 28 28 28 27 28 29 31 30 30 31 34 34 35 37 40 42 42 44 47 49 52 52 53 53 54 55 56 55 55 56 58 59 58 57 56 55 54 53 50 49 47 47
28 28 27 27 27 28 28 26 25 26 27 27 28 29 30 30 31 32 32 33 35 38 40 40 41 43 45 47 49 50 51 53 54 55 54 55 53 54 57 58 58 57 56 55 53 52 50 49 48
27 27 26 27 29 29 30 29 25 26 26 26 28 29 29 30 31 32 31 31 33 35 36 37 39 39 42 45 47 47 48 50 51 53 53 54 53 51 52 55 57 58 58 56 54 53 52 51 48
27 27 27 28 30 31 30 29 27 26 26 25 27 28 29 30 31 30 30 29 30 32 33 35 38 38 38 41 44 45 45 46 48 50 51 53 53 52 51 52 55 57 58 57 55 54 52 51 48
27 28 29 29 31 31 30 29 27 26 25 25 26 27 28 29 29 29 29 29 30 31 31 33 34 36 37 39 41 42 43 44 45 47 49 51 52 52 50 49 51 55 56 56 55 54 52 51 50
29 30 31 32 32 31 30 29 27 27 27 27 27 28 29 28 28 28 29 29 29 30 31 32 32 34 36 37 40 40 41 41 43 45 46 48 50 50 49 48 50 52 54 54 54 53 51 51 49
30 31 31 32 32 31 30 29 28 28 28 28 28 28 28 28 28 29 29 29 29 29 30 32 33 33 34 36 38 39 40 41 41 42 44 46 47 49 49 48 48 50 52 53 53 52 51 50 49
30 30 31 32 32 32 31 29 28 28 28 28 28 27 28 29 29 29 28 29 28 28 30 33 34 33 33 35 36 37 38 39 40 41 42 44 45 47 49 49 47 47 50 51 51 50 50 50 48
30 32 33 32 33 33 32 31 29 29 29 29 28 28 28 30 30 29 29 29 28 29 31 32 32 32 32 33 34 34 34 36 38 39 40 41 43 44 46 47 47 47 48 49 49 48 48 48 48
31 31 32 32 33 34 34 33 31 31 31 31 30 29 30 30 31 31 30 30 29 29 30 30 29 30 30 31 30 31 32 34 36 38 39 40 42 43 45 46 45 45 47 49 48 47 46 46 47
31 32 32 32 33 34 35 34 32 32 32 33 32 31 31 31 31 31 30 30 29 29 29 29 28 29 30 31 30 29 31 34 34 35 37 39 41 42 43 44 43 43 46 48 48 46 45 45 46

GEFSSGP_500_meanwind_168.txt.gz
Wind_Speed
20 20 20 20 21 21 21 20 20 20 21 21 22 23 23 23 24 24 24 23 23 23 23 23 23 23 23 23 23 24 24 24 24 23 23 22 22 21 21 20 19 18 17 17 16 15 15 14 14
22 22 22 22 23 23 22 22 22 22 23 23 24 24 25 25 25 25 25 25 25 25 25 25 25 25 25 25 24 24 25 25 25 25 25 24 24 23 22 21 21 20 19 18 18 17 17 16 16
23 23 24 24 24 24 24 24 24 24 25 25 25 26 26 26 26 27 27 27 27 28 28 28 27 27 27 27 26 26 26 26 27 27 26 26 25 25 24 24 23 22 21 20 20 19 18 18 17
23 24 25 25 26 26 26 26 26 27 27 27 28 28 28 28 29 29 29 30 30 30 30 30 30 30 30 29 29 28 28 28 29 29 28 28 27 26 26 25 24 24 23 22 22 21 20 19 19
23 24 25 26 26 27 27 27 28 29 29 29 30 30 30 31 31 31 32 33 33 33 33 33 33 33 33 32 32 31 30 30 30 30 30 30 29 29 28 27 26 25 25 24 24 23 22 21 21
23 24 26 26 27 28 28 29 29 30 31 31 32 32 32 33 34 34 35 35 36 36 36 36 36 36 36 36 35 34 33 33 33 33 32 31 31 30 30 29 28 28 27 26 25 25 24 23 22
24 25 26 27 28 29 29 30 31 32 33 33 33 34 34 35 36 36 37 37 38 38 39 39 39 39 39 39 39 38 37 36 35 35 35 34 33 33 32 31 31 30 29 28 28 27 26 25 24
24 25 26 27 28 29 30 31 32 33 34 35 35 36 36 37 38 38 39 40 40 41 41 41 42 42 42 42 42 41 40 39 38 38 37 36 36 35 34 34 33 32 31 31 30 29 28 27 26
23 24 25 26 28 29 30 31 32 33 34 35 37 37 37 38 39 39 40 41 42 43 43 44 44 44 44 44 44 44 43 42 41 41 40 39 39 38 37 36 35 35 34 33 32 31 30 30 29
21 23 24 25 27 28 30 31 32 33 34 36 37 37 38 38 39 40 41 42 43 43 44 45 46 46 46 46 46 46 46 45 44 43 42 42 41 40 39 39 38 37 36 35 34 33 33 32 31
20 22 23 25 26 28 29 30 32 33 34 35 36 37 37 38 38 39 40 42 43 44 45 46 47 48 48 48 48 48 48 47 47 46 46 45 44 43 42 42 40 40 39 38 36 35 35 34 32
20 22 23 25 26 27 28 29 31 32 34 34 35 36 36 37 38 39 40 41 43 44 45 46 47 49 50 50 50 49 49 49 49 48 48 47 46 46 45 44 43 42 42 41 39 38 37 36 35
20 21 23 24 26 27 28 29 30 32 33 34 35 36 37 38 39 39 40 41 42 44 45 46 47 48 50 52 52 51 51 51 50 50 50 49 48 48 48 47 45 45 44 43 42 40 40 38 37
19 21 23 24 26 27 28 30 31 32 33 34 35 36 37 39 39 39 41 41 42 43 44 46 47 48 50 51 53 52 52 52 52 52 52 51 51 50 50 49 48 47 46 45 44 43 42 41 40
19 20 22 23 25 27 28 29 31 31 32 33 34 35 36 37 39 39 40 41 41 42 44 46 47 48 50 51 53 53 53 54 53 53 53 53 52 52 52 51 50 49 49 48 47 46 45 44 43
20 21 22 23 25 26 28 28 29 30 30 31 33 34 34 36 38 39 40 41 42 42 43 45 46 47 49 50 52 53 54 54 53 53 54 54 54 54 53 52 52 52 51 50 49 48 47 46 46
20 22 23 23 25 26 27 28 28 29 30 30 32 33 33 34 36 37 38 39 40 41 41 42 44 46 47 49 51 52 54 54 55 55 56 56 56 55 54 54 53 53 53 52 51 51 50 49 47
21 22 22 23 24 25 27 27 27 29 29 30 31 31 32 33 33 35 36 37 37 38 38 39 41 43 45 47 49 52 53 54 56 56 56 57 57 57 56 55 54 54 54 54 53 53 52 51 50
22 23 23 23 24 24 25 26 27 28 29 29 30 30 31 32 32 33 33 35 35 36 36 37 38 41 44 46 48 50 52 53 55 56 57 58 58 58 57 57 56 56 55 55 54 54 54 53 52
22 23 23 23 24 25 25 25 26 27 28 29 29 28 29 30 30 31 31 31 32 34 35 37 39 40 43 45 47 49 49 50 52 53 55 57 57 57 58 57 56 56 56 56 56 56 55 55 54
22 23 23 23 23 24 25 25 26 26 28 28 28 27 27 28 28 28 30 30 31 32 34 37 38 39 41 42 44 46 47 49 50 52 52 53 53 54 56 57 57 57 57 57 56 56 57 56 56
22 22 23 24 24 24 25 25 24 25 26 27 26 25 25 26 27 28 29 29 30 31 33 35 37 37 38 39 42 44 45 46 48 49 49 50 52 53 55 55 57 56 55 55 56 56 56 56 56
22 23 23 24 25 25 24 25 25 25 25 25 25 25 25 26 27 28 28 29 30 31 31 32 35 36 37 38 39 42 42 44 45 46 47 48 49 50 52 53 55 55 55 54 55 55 55 55 56
23 23 24 24 25 25 24 25 25 25 25 25 24 24 25 26 26 27 27 28 28 29 31 32 33 35 37 38 38 40 42 43 44 45 46 47 47 47 48 51 53 54 54 53 53 54 54 54 55
23 24 25 26 26 26 25 25 25 25 25 24 24 24 25 26 26 26 25 26 27 29 30 32 32 33 35 37 37 39 40 42 42 44 45 46 46 46 47 48 50 52 53 53 53 51 51 52 53
23 24 25 27 28 27 26 25 24 25 25 25 25 25 25 26 26 26 26 27 27 29 30 31 31 31 32 33 35 37 40 41 42 43 45 46 46 45 46 47 48 50 51 51 50 50 49 50 49
24 24 26 27 27 27 26 25 24 24 25 25 25 24 25 26 26 26 26 27 29 30 30 29 29 29 30 31 33 34 35 38 42 43 43 44 45 45 44 45 46 47 48 48 48 48 48 48 48
25 25 26 27 28 28 27 26 26 25 25 25 25 25 25 25 26 26 26 27 27 27 28 28 28 28 29 30 32 33 34 35 37 39 41 43 43 43 44 43 45 46 46 46 47 47 48 48 46
25 26 27 27 28 28 29 27 27 27 27 26 26 26 27 26 27 26 26 27 28 28 29 29 29 28 28 29 30 31 32 33 34 35 37 38 40 41 43 43 44 44 44 44 45 45 45 46 46
26 27 27 27 28 27 28 28 27 27 27 27 27 27 27 27 27 26 26 27 28 29 28 28 29 28 27 27 28 29 30 30 31 32 34 36 37 39 40 41 41 42 43 43 43 43 44 45 45

GEFSSGP_500_meanwind_174.txt.gz
Wind_Speed
21 21 21 21 21 21 21 20 20 20 19 19 20 21 21 22 23 24 24 22 23 23 24 24 24 24 24 24 24 24 25 25 25 25 24 23 23 23 23 22 22 21 21 20 20 19 19 18 18
22 23 23 23 23 22 23 22 22 21 21 22 22 23 23 24 25 25 25 24 25 26 26 26 26 26 26 26 26 26 26 26 26 26 26 25 25 25 24 24 24 23 22 22 21 21 21 20 20
23 24 24 24 24 24 25 23 24 23 24 24 24 25 24 25 25 26 26 26 26 27 28 28 28 28 28 28 28 28 28 28 28 28 27 27 27 27 26 26 26 25 25 24 23 23 22 22 22
23 24 24 25 25 25 25 24 24 25 26 26 26 27 26 26 27 27 28 28 28 29 30 31 31 31 31 31 31 30 30 30 30 30 30 29 29 28 28 28 27 27 27 26 26 25 24 24 23
24 24 25 25 25 25 25 25 25 26 27 28 28 28 29 29 29 29 30 30 31 31 32 33 33 33 34 34 33 33 32 32 32 32 32 31 31 30 30 30 29 29 29 28 27 27 26 25 25
23 24 25 24 25 25 26 26 27 28 28 29 29 30 30 31 31 31 32 32 33 33 34 35 36 36 36 37 37 36 36 35 35 34 34 34 33 33 32 31 31 30 30 29 29 28 28 27 26
23 24 24 24 25 26 26 27 28 29 29 29 31 32 32 33 33 33 34 34 34 35 35 37 38 39 39 39 39 39 39 38 37 37 37 36 36 35 34 34 33 32 32 31 30 30 29 29 28
23 23 23 24 26 27 27 28 29 30 30 30 32 33 33 34 34 35 35 35 36 36 37 38 39 41 42 42 43 42 42 41 40 40 39 39 38 38 37 36 35 35 34 33 32 31 31 31 30
23 23 23 24 26 26 26 28 29 30 31 32 33 34 34 35 36 36 36 37 37 38 39 40 41 42 43 44 45 45 44 44 43 43 42 42 41 40 39 39 38 37 36 35 35 34 33 33 32
21 22 23 24 25 26 27 28 29 30 31 32 33 34 34 36 36 37 37 38 38 39 40 41 42 43 44 45 46 46 47 46 46 46 45 44 44 43 42 41 40 40 39 38 38 36 35 35 34
19 20 21 22 24 25 26 27 28 30 30 31 33 33 34 36 37 37 38 38 39 39 41 42 43 43 44 46 46 47 47 47 47 47 47 47 46 45 45 44 43 42 42 41 40 39 38 37 36
19 19 20 21 23 25 26 27 28 29 30 31 32 33 34 36 37 37 38 39 39 39 40 41 42 43 44 45 46 47 48 48 48 48 48 48 48 47 46 46 45 44 44 43 43 41 40 39 38
18 19 20 21 22 24 26 27 28 28 30 31 32 33 34 36 37 37 38 39 38 39 40 41 41 42 43 44 46 47 48 48 49 49 49 49 48 48 48 47 46 46 45 45 45 44 43 41 40
18 19 20 21 22 24 26 27 28 28 30 31 33 34 35 36 37 37 37 38 38 39 41 41 42 43 43 45 46 47 48 49 50 50 51 51 51 50 50 50 49 48 47 47 47 45 45 44 43
19 20 21 21 23 24 26 27 28 29 31 32 34 35 35 36 37 37 37 38 39 39 41 43 43 44 44 45 46 48 49 50 51 51 51 53 53 52 52 51 51 51 50 49 48 48 46 45 45
19 20 21 21 23 24 26 27 28 29 30 32 34 35 35 36 37 38 38 38 39 40 41 42 43 44 45 45 47 48 50 51 51 52 51 53 54 54 54 53 53 52 52 51 50 49 48 48 47
19 20 21 22 23 25 26 26 27 29 30 32 33 34 35 36 37 37 38 38 39 39 40 41 42 43 44 45 46 48 49 50 51 51 51 52 53 55 55 55 55 54 54 53 52 51 51 50 50
20 21 22 23 23 25 26 27 28 29 31 32 32 33 33 34 35 36 36 37 38 38 38 40 41 43 43 44 45 46 47 49 49 50 50 51 52 54 55 56 56 56 54 54 53 52 52 52 51
21 22 23 24 24 25 26 27 28 29 30 32 32 32 33 33 33 33 34 35 36 37 37 39 40 42 43 43 44 45 46 47 48 49 50 50 50 52 54 55 55 56 55 55 54 53 54 53 52
22 23 23 24 24 26 27 27 28 29 30 31 31 31 32 31 32 32 34 34 35 36 36 38 38 38 40 41 42 42 43 45 47 48 48 49 49 51 52 53 54 56 56 56 55 54 55 54 53
22 23 23 24 25 26 28 27 27 28 29 29 29 30 31 30 30 32 33 33 33 34 35 35 36 36 37 39 39 40 41 42 45 46 47 47 48 49 50 51 52 53 55 55 55 55 55 54 53
22 23 24 25 26 26 27 28 26 27 28 28 28 29 29 29 30 32 32 31 31 33 34 34 34 34 35 37 39 39 40 41 43 45 45 46 46 47 48 49 50 51 52 53 53 54 54 54 53
23 23 24 25 26 26 26 29 27 27 27 28 28 28 28 29 30 30 30 30 31 32 31 31 32 33 34 35 36 38 39 41 42 43 44 45 46 46 47 48 49 49 50 51 52 52 53 55 54
24 24 25 26 26 26 26 28 28 26 27 28 28 28 28 28 29 29 30 30 30 29 28 29 30 31 32 33 34 36 37 39 41 43 43 43 44 45 46 47 47 48 49 50 50 50 52 53 53
24 25 26 27 27 26 26 28 28 27 28 28 28 28 27 28 29 29 29 29 28 27 27 28 29 29 31 32 32 33 35 37 38 39 41 41 42 44 45 46 46 46 47 47 47 49 48 49 50
24 25 26 28 28 28 27 28 27 27 28 29 28 27 27 27 28 29 29 28 26 26 26 26 27 27 29 30 30 31 33 34 35 38 39 40 41 42 43 44 44 44 45 45 45 46 46 46 47
25 25 26 28 29 29 29 28 27 27 27 28 28 27 26 27 28 28 27 26 26 26 26 26 26 27 28 29 30 31 32 34 34 35 36 38 38 39 41 41 42 42 43 44 44 43 44 45 45
27 27 27 28 30 31 30 29 28 27 27 28 27 27 26 27 27 27 25 25 25 26 26 26 27 28 29 29 29 30 32 33 33 33 33 35 36 38 39 38 39 39 40 41 42 43 43 43 44
28 28 28 29 30 31 32 31 29 28 28 28 26 25 25 26 26 26 25 25 25 26 27 27 28 29 29 28 29 30 32 33 32 31 32 33 34 36 37 37 37 36 37 40 41 41 42 42 42
29 29 29 30 30 31 32 31 29 29 28 27 25 25 25 26 26 25 25 26 26 27 26 27 28 29 29 29 30 30 32 31 30 30 31 32 32 33 34 34 34 34 36 38 39 39 40 40 40

GEFSSGP_500_meanwind_180.txt.gz
Wind_Speed
23 23 23 23 23 23 22 21 20 20 20 20 20 20 20 20 20 20 19 19 20 20 21 21 22 22 22 22 22 23 23 23 23 24 24 24 24 23 23 23 22 22 21 21 21 20 20 19 18
24 24 24 24 24 23 23 21 21 21 21 21 21 21 21 21 21 20 20 20 21 21 22 23 23 24 24 25 25 25 25 25 25 25 25 26 26 26 25 25 24 23 23 23 23 22 22 22 21
24 25 24 25 24 24 23 22 23 23 23 23 22 22 22 22 22 22 21 22 22 22 23 24 25 25 26 26 27 27 27 27 27 27 27 27 27 27 27 27 26 25 25 24 24 24 23 23 23
24 25 25 25 24 23 23 23 23 24 24 24 24 24 24 24 24 23 23 23 24 25 25 26 26 27 28 28 28 29 29 29 29 29 29 29 29 29 29 29 28 28 27 27 26 26 25 25 25
23 24 24 24 24 24 24 24 24 24 25 24 24 25 25 25 25 26 26 26 26 27 27 28 28 29 30 30 31 31 31 31 31 31 31 31 32 31 31 31 30 30 29 29 29 28 27 27 26
23 24 24 23 24 24 24 24 24 25 25 25 25 25 26 26 27 27 28 28 29 29 29 30 30 31 31 32 33 33 34 34 34 34 34 34 34 34 33 33 33 32 32 31 31 30 29 29 28
22 23 23 23 24 23 24 24 24 24 24 25 25 26 26 28 29 29 29 30 31 31 31 32 32 33 33 34 34 35 36 36 37 36 36 36 36 36 36 36 35 35 34 34 33 32 32 30 30
23 23 22 22 23 23 24 25 25 24 25 25 26 27 28 29 30 30 31 32 32 33 34 34 34 35 36 36 37 37 38 39 39 40 39 39 39 39 39 38 38 37 36 36 35 34 34 33 32
23 23 22 22 23 23 24 25 25 25 26 27 27 28 29 30 31 32 32 33 33 34 35 36 37 37 38 38 39 39 40 41 42 42 42 42 42 41 41 41 40 40 39 38 37 37 36 35 34
23 22 22 23 23 23 24 25 25 26 27 27 28 30 30 31 32 32 33 34 34 35 36 37 38 39 39 40 40 40 41 42 43 44 44 44 44 44 43 43 42 42 41 41 40 39 38 37 36
22 22 23 23 23 23 24 25 25 26 26 27 28 30 31 31 32 33 33 34 35 36 37 38 39 39 40 40 40 41 42 43 43 44 44 45 45 45 45 44 44 44 43 42 42 41 40 39 38
21 22 22 22 22 23 23 24 25 26 26 27 29 30 31 33 33 33 34 34 35 36 37 38 39 39 40 41 41 42 42 43 43 43 44 46 46 47 46 46 45 45 45 44 43 43 42 41 40
21 21 22 22 22 22 23 24 25 25 26 28 29 29 30 32 33 33 33 34 35 36 38 39 39 40 41 42 42 43 43 43 43 44 45 46 47 47 47 48 47 47 46 46 45 45 45 44 43
21 21 21 22 22 23 23 24 24 24 26 27 28 29 30 31 32 32 33 33 34 36 37 38 39 40 41 43 43 43 44 44 45 45 46 47 48 48 48 49 49 49 48 47 47 47 47 46 44
21 21 21 21 22 23 24 23 23 25 26 26 27 28 29 30 31 32 33 34 35 36 37 37 38 40 41 42 43 44 44 45 46 47 47 48 49 48 48 49 50 50 49 49 49 48 48 46 46
21 21 21 20 21 23 24 23 24 25 26 27 28 29 30 31 32 33 34 35 35 35 35 36 37 38 39 40 41 42 43 44 45 47 48 48 49 49 49 50 51 51 51 51 50 50 50 50 49
21 21 21 21 22 23 24 24 24 25 26 27 28 29 30 32 32 32 32 32 33 34 35 36 37 38 39 39 40 41 41 42 44 45 47 48 49 49 50 50 52 52 53 52 51 51 51 51 50
22 22 22 23 23 24 24 24 24 25 26 27 28 29 30 31 30 30 31 32 33 34 34 36 37 38 38 39 39 40 41 42 43 46 47 48 49 50 50 50 51 52 53 52 52 52 52 53 52
24 24 23 23 24 25 25 25 24 25 26 27 28 28 28 29 30 30 31 32 33 33 34 34 35 36 37 38 39 40 41 42 44 46 47 49 50 50 50 50 51 51 52 52 52 52 52 54 53
25 25 24 24 25 25 25 25 25 25 26 27 27 27 27 28 30 30 31 32 32 32 33 33 34 35 37 38 39 39 40 42 44 44 45 46 47 48 49 50 50 50 51 51 52 52 53 54 54
26 26 25 25 26 26 26 25 24 25 25 26 26 26 27 28 30 30 31 32 32 32 33 33 34 35 37 38 39 40 41 41 42 42 42 43 45 46 47 49 48 49 50 51 52 52 53 53 54
26 26 26 26 26 26 26 26 23 24 24 25 25 25 27 28 30 30 30 30 31 32 32 32 33 34 36 37 38 39 40 40 40 40 40 42 44 45 46 47 47 48 50 50 51 50 51 51 52
27 26 26 26 26 26 25 27 23 23 23 24 25 26 27 28 29 29 29 29 30 30 31 31 32 33 34 35 36 37 38 38 39 39 39 40 42 44 46 46 47 48 49 50 51 50 49 49 50
27 27 27 27 27 27 25 26 24 23 23 24 25 26 26 28 28 28 28 28 29 29 30 30 31 32 32 33 34 35 36 36 37 37 37 38 40 42 44 47 47 48 48 48 48 49 48 48 48
27 27 27 27 27 26 25 26 25 23 23 24 25 26 27 28 27 27 27 27 27 27 29 29 30 31 31 32 33 33 33 34 35 36 35 37 38 39 40 43 44 46 47 46 46 47 47 45 45
27 27 27 28 27 26 25 25 24 23 23 25 26 27 27 27 27 27 27 26 25 26 27 28 29 30 30 31 31 32 31 32 33 33 34 35 36 37 37 39 40 42 43 45 44 44 44 43 43
28 27 27 28 28 27 26 25 24 24 24 25 27 27 27 27 27 26 25 25 25 25 27 28 29 29 30 30 31 30 30 30 31 32 33 34 34 35 36 37 38 37 39 41 42 41 41 41 42
29 28 28 28 29 28 28 26 25 24 24 26 26 27 27 26 26 25 24 24 25 25 26 28 29 28 28 28 28 28 27 28 28 29 30 31 32 33 34 33 34 35 36 37 39 38 38 39 40
29 29 29 29 30 30 29 27 25 25 25 26 26 27 27 26 25 24 23 23 24 26 26 27 28 27 27 27 27 26 26 26 27 27 28 30 32 32 32 31 31 31 32 33 35 36 36 37 38
30 30 29 30 30 30 30 28 26 26 26 26 26 26 26 26 24 23 22 23 24 25 26 26 26 26 27 27 26 25 25 25 25 25 26 27 29 30 30 30 29 30 30 31 32 34 35 35 36

GEFSSGP_500_meanwind_186.txt.gz
Wind_Speed
26 26 27 27 27 27 25 23 23 23 23 23 23 22 22 22 21 22 21 20 21 21 22 22 21 21 21 21 20 20 20 20 20 20 20 20 20 20 20 20 20 20 19 19 18 18 18 18 18
26 27 27 28 27 25 24 24 24 24 24 24 24 23 23 22 22 22 22 22 22 22 22 22 22 22 21 21 21 21 21 22 22 22 22 22 22 22 22 22 22 22 22 21 21 20 20 20 19
26 27 28 28 27 25 24 24 24 25 25 25 24 24 24 23 23 23 23 23 23 22 22 22 23 23 23 23 23 23 23 23 24 24 25 25 25 25 25 24 24 24 24 24 24 23 23 22 22
25 27 27 27 26 25 25 25 25 25 25 25 25 25 25 24 24 24 24 24 24 23 23 23 24 24 24 24 24 25 25 26 26 26 27 27 27 27 27 27 26 26 26 25 26 26 25 25 24
24 26 27 27 26 26 26 26 26 26 26 26 26 26 25 25 25 25 25 25 25 25 25 25 25 26 26 26 26 26 27 27 28 28 28 29 29 29 29 29 29 28 28 28 27 27 27 27 26
23 24 25 25 25 26 26 26 26 26 26 26 26 26 26 25 25 26 25 25 26 26 26 26 26 27 28 28 29 29 29 30 30 30 30 30 31 31 32 31 31 31 30 30 29 29 28 28 28
23 24 24 24 25 26 26 27 26 26 26 27 27 27 26 27 27 26 26 27 27 27 27 28 28 29 29 30 31 31 31 32 32 32 33 33 33 34 34 34 34 33 33 32 32 32 31 31 30
25 25 24 24 25 26 27 27 27 27 27 27 27 26 27 27 27 28 28 28 28 28 29 29 30 30 30 31 32 32 32 33 34 34 35 35 35 36 36 37 36 36 36 35 35 34 34 33 32
26 26 25 25 25 26 27 27 27 28 27 27 27 27 27 28 28 29 29 29 29 30 30 31 31 32 32 32 33 33 34 35 35 36 36 37 37 38 38 38 38 38 38 38 38 37 37 36 35
27 26 25 26 26 26 27 27 28 28 28 27 27 27 28 28 29 29 29 30 30 31 32 32 33 33 34 35 35 36 37 37 38 38 38 39 39 40 40 40 40 39 40 40 40 39 38 38 37
26 25 26 26 27 27 27 27 27 28 28 28 28 28 29 29 29 29 30 30 31 32 32 33 34 35 36 37 37 38 39 39 40 40 41 40 40 41 41 42 42 42 42 41 41 41 41 40 39
26 25 26 26 27 27 28 28 27 27 27 28 29 29 29 29 29 30 30 31 32 33 33 35 36 37 38 39 39 40 40 41 41 41 42 42 41 41 41 42 42 43 43 44 43 43 43 42 41
26 25 26 26 27 27 28 28 27 26 27 27 28 28 28 29 30 30 31 32 33 34 35 36 37 38 39 40 40 41 41 42 42 42 42 42 42 42 42 43 43 44 45 45 45 46 45 44 43
26 26 26 26 27 27 28 28 27 26 27 27 27 28 28 29 30 31 31 32 34 35 36 36 37 37 38 38 39 39 40 40 41 41 41 42 43 43 44 44 45 45 46 46 46 47 47 46 46
27 26 26 26 27 27 28 28 26 27 28 27 27 28 28 28 29 30 31 33 34 34 34 35 35 36 37 37 38 38 39 39 40 40 41 42 43 44 45 45 45 45 46 47 47 47 48 48 47
27 27 27 26 27 27 28 26 26 27 27 27 27 27 28 28 29 30 31 32 32 33 33 34 35 35 36 37 38 38 38 39 40 40 41 43 44 45 45 45 46 47 47 48 48 48 48 48 48
28 27 27 27 27 27 28 25 25 26 27 27 27 27 27 28 29 30 30 31 32 33 33 34 34 35 36 36 37 38 39 39 40 40 41 43 44 45 46 46 47 47 48 49 49 49 49 49 49
28 28 27 27 28 28 28 26 25 26 27 27 27 27 28 28 29 29 30 31 32 33 34 34 35 35 36 36 37 38 39 39 40 41 42 43 44 45 46 46 47 48 49 49 50 50 50 50 50
30 29 28 28 29 29 28 27 26 27 27 27 27 28 28 28 29 29 30 31 32 33 34 35 35 35 36 36 37 37 38 39 40 41 42 43 43 44 45 46 47 48 49 49 50 51 51 51 51
31 30 29 29 30 30 29 28 27 27 27 27 27 28 28 28 29 30 31 32 33 33 34 34 35 35 36 36 36 36 37 39 40 41 42 43 44 44 46 47 48 49 49 49 50 51 50 50 51
31 31 30 30 30 31 30 29 27 28 28 27 27 28 28 29 29 30 31 32 33 33 33 34 35 35 36 36 36 37 38 39 40 41 42 43 43 44 45 47 47 48 48 49 49 49 49 50 50
31 31 31 31 31 31 31 31 27 28 28 27 27 27 28 29 30 30 31 31 32 33 34 34 35 35 35 36 36 37 38 38 39 40 41 41 41 42 43 44 45 46 47 47 47 48 49 50 50
32 31 32 32 33 32 31 32 28 27 27 27 27 28 28 29 30 30 30 31 32 32 33 34 34 34 34 36 36 37 37 38 38 39 40 40 41 41 41 42 42 43 44 45 46 47 47 48 48
32 32 32 33 34 34 31 32 29 26 26 26 27 28 28 29 29 30 30 30 30 31 32 33 33 34 34 35 36 36 37 37 37 38 39 39 39 40 39 38 38 38 40 42 43 44 45 46 47
33 33 33 34 35 34 31 32 30 27 26 27 27 28 28 29 29 29 29 29 29 30 31 32 32 33 33 34 35 35 35 36 37 37 36 36 36 37 37 37 36 37 37 38 39 40 41 42 43
33 33 33 34 34 32 31 31 29 28 27 27 27 27 28 28 28 29 29 29 29 30 31 31 30 31 32 34 34 33 34 34 35 35 34 33 34 34 35 35 36 35 34 35 35 35 37 39 41
34 34 33 33 34 33 33 31 29 28 27 26 26 27 27 28 28 28 29 29 30 30 30 31 31 31 32 32 32 32 33 33 33 33 33 32 32 33 33 33 33 32 33 33 34 35 36 38 38
35 34 33 34 34 34 33 31 29 27 26 26 26 26 27 28 28 28 29 30 30 31 31 31 31 31 31 31 31 32 32 31 31 31 31 31 31 31 31 31 32 31 32 32 33 33 35 35 36
35 35 34 34 35 34 34 31 29 28 27 26 26 26 27 27 27 28 29 30 31 31 31 30 30 30 30 30 30 30 30 29 29 29 29 30 30 29 30 30 31 31 31 31 31 32 34 34 34
37 35 34 34 34 34 34 32 29 28 27 26 26 26 27 27 27 28 29 29 29 29 29 28 29 29 29 28 28 28 27 27 27 28 28 28 28 28 28 29 29 30 30 30 30 31 32 33 33

GEFSSGP_500_meanwind_192.txt.gz
Wind_Speed
28 28 29 29 29 29 27 26 25 25 25 25 25 24 24 23 23 23 22 21 21 21 21 20 20 20 20 20 20 20 20 20 20 19 19 19 19 19 19 19 19 19 19 19 18 18 18 17 17
28 29 29 30 30 29 27 26 26 26 26 26 25 25 25 25 24 24 23 22 22 22 22 22 21 21 21 21 21 21 21 21 21 21 21 21 21 21 21 21 21 21 21 21 20 20 20 19 19
28 29 29 30 29 28 27 27 27 27 27 26 26 26 25 25 24 24 24 24 23 23 23 23 22 22 22 22 22 22 22 22 22 22 23 23 23 23 24 24 24 24 24 23 23 22 22 22 22
27 28 29 29 28 27 27 28 28 27 27 27 27 27 26 25 25 25 25 24 24 24 24 24 23 23 23 22 22 23 23 23 23 24 24 24 25 25 25 26 26 26 26 26 25 25 25 24 25
27 28 28 28 27 27 27 28 28 28 28 27 27 27 26 26 26 26 25 25 25 24 25 25 24 24 24 24 24 24 24 24 24 25 25 26 26 26 27 27 28 28 28 28 27 27 27 26 26
27 27 27 26 26 27 28 28 28 29 28 28 27 27 27 27 26 26 26 25 25 25 25 25 25 25 25 25 25 25 25 25 26 26 27 27 27 28 28 28 29 29 29 30 30 30 29 29 29
27 27 26 25 26 27 28 29 29 29 29 29 28 27 27 27 26 26 26 26 26 26 25 25 25 25 25 26 26 26 26 26 27 27 28 28 28 29 29 30 30 31 31 32 32 32 32 32 32
28 28 26 26 26 27 28 29 29 30 30 30 29 29 27 27 27 27 27 27 27 26 26 27 27 27 27 27 27 27 27 28 28 29 30 30 31 31 31 32 33 33 33 34 34 34 34 34 34
29 29 27 26 26 27 28 28 29 30 30 30 30 29 29 28 28 28 28 28 28 27 27 28 28 28 28 28 28 29 29 30 30 31 31 32 33 33 34 35 35 36 36 36 36 36 36 36 35
30 30 28 28 28 28 28 28 29 30 30 30 30 30 30 29 29 29 29 29 29 28 28 28 28 29 29 29 30 30 31 31 32 33 33 34 35 36 37 37 37 38 38 38 38 38 37 37 37
30 29 29 29 30 30 30 29 29 29 29 29 30 31 31 30 30 30 29 29 29 29 29 29 30 30 30 31 31 32 33 33 34 35 36 37 38 39 39 39 39 39 39 39 39 39 39 39 39
30 29 30 30 30 31 31 30 30 30 29 30 31 31 31 31 30 30 30 29 29 29 29 30 31 32 32 33 33 34 34 35 36 36 37 38 39 40 40 40 40 40 40 40 40 40 40 41 41
30 29 30 30 31 31 31 31 31 30 30 30 30 30 30 31 30 30 30 30 30 30 30 31 32 33 33 34 34 35 35 35 36 36 37 38 38 38 39 40 40 40 41 41 42 42 42 43 43
31 30 30 30 30 31 31 31 31 29 30 30 30 30 30 31 31 31 31 31 31 31 32 32 33 33 33 34 35 35 36 37 37 38 39 39 39 39 39 39 40 40 41 42 42 42 43 44 44
32 31 31 31 31 31 31 31 29 29 30 30 30 30 30 30 30 31 31 31 32 32 32 32 32 33 33 34 35 35 36 37 38 39 39 39 39 38 39 39 40 41 42 42 43 44 44 44 45
32 32 31 31 31 32 32 30 29 30 30 30 30 30 29 29 30 30 31 31 31 31 31 31 32 33 34 34 35 35 36 36 37 37 38 38 39 39 40 40 41 42 42 43 44 45 45 45 46
33 32 31 31 31 32 32 31 30 30 30 30 30 30 30 30 30 30 30 30 30 30 30 31 31 32 33 34 34 35 35 36 36 36 37 38 39 40 40 41 42 43 43 44 44 45 46 47 47
33 32 32 32 32 32 32 31 30 31 31 30 30 30 30 30 29 29 29 30 30 30 30 30 31 31 32 33 34 35 35 36 36 36 37 38 38 39 40 40 41 42 43 44 45 45 47 48 48
34 33 32 32 32 32 32 31 30 31 31 30 30 30 30 29 29 29 29 30 30 30 30 30 30 31 32 33 34 34 35 36 36 36 37 38 38 38 39 40 41 42 43 44 45 46 47 48 49
35 34 33 33 33 33 33 32 31 31 31 31 31 30 30 30 29 29 30 29 29 29 29 30 30 31 32 33 33 34 34 35 35 36 37 38 38 39 39 40 41 42 43 45 45 45 46 47 48
36 34 33 34 34 34 34 33 32 31 31 31 30 30 30 29 29 29 29 29 29 29 29 30 30 30 31 31 32 33 33 34 35 36 37 37 38 38 38 39 40 41 42 42 43 45 46 47 47
36 35 35 35 35 35 35 34 32 32 31 30 29 29 29 29 29 29 29 29 29 29 29 30 30 30 30 30 31 32 33 33 34 35 36 37 37 37 38 38 39 40 41 41 42 43 44 45 45
36 36 36 36 36 36 35 36 32 31 30 29 28 29 29 29 29 29 29 29 29 29 29 30 30 29 30 30 31 32 33 33 34 35 35 36 36 37 37 38 39 40 40 41 41 41 41 42 43
37 37 37 37 37 38 35 35 33 30 29 28 28 28 29 29 29 29 30 30 30 30 30 30 30 30 30 31 32 32 32 33 34 35 35 35 35 36 37 38 39 39 39 39 39 40 40 41 42
37 37 37 37 38 38 35 35 33 30 29 28 29 29 29 29 29 29 29 30 30 30 30 30 30 30 31 31 31 32 32 33 34 34 34 35 36 36 37 38 38 38 38 38 39 39 39 40 41
37 37 37 37 37 36 36 35 33 30 28 28 28 29 29 29 29 29 29 30 29 29 29 30 30 30 31 31 32 32 33 33 33 34 34 35 36 37 37 37 37 37 37 37 37 37 38 38 39
38 38 36 37 37 36 36 35 32 30 28 28 28 28 29 29 29 29 30 30 30 30 29 29 30 30 31 31 32 33 33 33 34 34 35 35 35 36 36 36 36 36 36 35 35 35 36 36 36
37 36 36 36 36 36 36 35 32 30 28 28 27 28 28 29 29 29 29 30 30 30 30 30 31 31 31 32 33 33 34 34 34 35 35 35 34 35 35 35 35 35 33 32 33 33 34 34 34
38 36 36 36 36 35 35 34 31 29 28 27 27 27 28 28 28 28 29 29 29 30 30 31 31 32 32 33 33 34 35 35 35 36 35 35 35 35 35 34 33 32 31 32 32 33 33 33 32
37 37 36 35 35 35 35 34 31 29 28 28 27 26 26 27 27 28 28 28 29 29 30 31 31 32 33 33 33 34 35 35 35 35 35 34 34 33 32 32 32 31 31 32 32 32 31 31 31

GEFSSGP_500_meanwind_198.txt.gz
Wind_Speed
30 30 30 31 31 31 29 27 27 27 26 26 26 26 26 26 26 26 23 21 21 21 21 20 20 20 19 19 19 19 19 19 19 19 19 19 19 19 19 19 18 18 18 18 18 18 18 18 18
30 31 31 32 32 31 29 28 29 28 28 27 26 26 27 28 27 26 24 23 23 22 22 22 21 21 21 20 20 20 20 20 20 20 20 20 20 20 20 20 20 20 20 21 21 21 20 20 20
31 31 32 32 31 30 29 30 30 30 29 28 28 28 28 28 27 26 25 25 24 24 24 23 23 23 22 22 22 21 21 22 22 21 21 21 21 22 22 22 22 22 22 22 23 23 23 22 22
32 32 32 32 30 29 29 30 31 30 29 29 30 29 29 28 27 26 27 26 25 25 25 25 24 24 24 24 23 23 23 23 23 23 22 22 22 23 23 23 24 24 24 24 25 25 25 25 25
33 33 33 32 30 30 30 31 31 30 30 30 31 31 30 29 28 28 28 27 26 26 25 26 25 25 25 25 25 24 24 24 24 23 24 23 23 24 24 24 25 25 25 26 26 26 27 27 27
33 33 34 32 31 30 31 32 31 30 30 31 31 31 31 30 29 29 29 28 27 26 26 26 26 26 26 26 25 25 25 25 25 25 25 24 24 25 25 25 26 26 26 27 28 28 29 29 29
33 34 33 32 31 31 31 32 32 31 31 31 31 31 31 30 30 29 29 29 28 27 27 27 27 26 26 26 26 26 26 26 26 25 25 26 26 26 27 27 27 28 28 28 29 29 30 30 31
34 34 33 32 31 31 32 32 31 31 31 32 32 31 31 30 30 30 29 29 29 28 28 27 27 27 26 26 26 26 26 26 26 26 27 27 27 28 28 28 29 29 30 30 31 31 32 32 33
34 34 33 32 32 31 32 31 31 31 31 31 31 31 31 30 30 30 30 29 29 29 28 28 27 27 27 27 27 27 27 27 27 27 28 28 29 29 30 30 30 31 32 32 33 33 34 34 34
34 34 32 32 33 32 32 31 31 31 31 31 32 32 32 32 31 31 31 30 30 29 29 29 28 28 28 27 27 27 27 28 28 28 29 29 30 31 31 32 32 33 34 34 35 35 35 36 36
34 33 33 33 33 33 33 32 32 32 31 31 31 32 32 33 32 32 32 31 31 31 30 30 30 29 29 29 28 28 28 29 30 30 30 31 31 32 33 33 34 35 35 36 36 36 37 37 37
34 34 34 33 33 33 33 33 33 33 31 32 32 32 32 33 33 33 33 32 32 31 31 31 30 30 30 30 30 30 30 31 31 32 32 32 33 33 34 34 35 36 36 36 37 37 38 38 39
36 35 34 34 34 33 33 33 33 33 32 33 33 32 33 33 33 34 34 33 32 32 32 31 31 31 31 31 31 31 31 31 32 32 33 34 34 34 35 35 36 37 37 38 38 38 38 39 40
36 36 35 35 34 34 34 33 34 32 33 33 33 33 33 33 34 34 34 33 33 32 32 32 32 32 32 32 32 32 32 32 33 34 34 35 35 35 36 36 37 37 38 38 38 39 39 40 41
38 37 37 36 35 34 35 34 33 32 34 34 34 33 33 33 34 34 34 33 33 33 33 32 32 33 33 33 33 33 33 33 34 35 35 36 36 36 37 37 38 38 38 39 39 40 41 41 42
38 38 38 36 36 35 36 35 33 34 34 34 34 33 33 33 33 33 33 33 33 33 33 32 32 32 33 33 33 33 33 33 34 35 35 36 36 36 37 37 38 38 39 40 40 41 41 41 41
39 38 37 36 36 36 37 36 34 34 34 34 34 34 33 33 33 33 33 33 32 32 32 32 32 32 32 33 33 33 33 33 34 34 35 35 35 36 37 37 38 39 39 40 41 41 42 42 42
38 38 38 37 36 37 37 36 35 35 35 34 34 34 33 33 32 32 32 32 32 32 32 32 32 32 32 33 33 33 34 34 34 34 34 35 35 36 37 37 38 39 39 40 41 41 42 42 42
38 38 38 38 37 38 38 37 35 35 35 34 33 33 33 33 32 32 32 32 32 32 32 32 32 32 32 33 33 33 34 34 34 34 35 35 35 36 36 37 37 37 38 39 39 39 40 41 41
39 38 38 39 37 38 38 37 36 35 34 34 33 33 33 33 33 32 32 32 32 32 32 32 32 32 32 33 33 34 34 34 35 35 35 36 36 36 36 37 37 37 37 38 39 39 40 41 41
39 38 38 38 37 38 38 38 36 34 34 34 33 33 33 33 32 32 32 32 32 32 32 32 32 32 32 32 33 34 34 35 35 35 35 35 36 36 36 36 36 36 37 38 39 40 41 41 41
40 39 38 38 38 38 38 39 37 35 34 34 33 32 32 32 33 33 32 32 32 32 32 32 31 32 32 32 33 33 34 34 34 34 34 35 36 36 35 35 36 37 37 38 39 39 40 41 41
39 39 39 39 39 39 39 40 38 35 34 33 32 32 32 33 33 33 32 32 32 32 32 32 32 32 32 32 33 33 33 34 34 34 34 35 36 36 36 36 37 37 38 38 39 39 40 40 40
39 39 39 39 40 41 38 39 38 35 34 33 33 33 33 33 33 33 33 33 33 32 32 32 32 32 32 33 33 33 33 34 34 34 35 36 36 36 36 37 37 38 39 39 40 40 40 39 40
40 40 39 40 41 41 38 39 38 35 34 33 33 33 33 33 33 33 33 33 33 33 33 33 33 33 33 33 33 33 34 34 34 35 35 36 36 36 36 37 38 39 39 40 40 40 40 40 39
40 39 40 40 40 40 39 39 37 35 35 33 33 33 33 33 33 33 33 33 33 33 33 33 33 33 33 33 33 34 34 34 35 35 35 36 36 36 37 37 38 38 39 39 40 39 39 38 38
39 39 38 38 39 39 39 38 37 36 35 33 33 33 32 32 33 33 33 33 33 33 33 33 33 33 33 34 34 34 35 35 35 35 35 36 37 37 37 37 37 38 38 38 38 37 36 36 36
38 37 37 37 37 37 37 36 35 34 34 33 33 32 32 32 32 32 33 32 33 33 33 33 34 34 34 34 34 35 35 35 35 35 36 37 37 37 37 37 37 37 37 37 36 35 34 34 34
37 38 38 37 37 36 35 35 33 33 34 34 33 32 32 31 31 32 32 32 32 33 33 33 33 33 33 34 35 35 35 35 35 35 36 36 37 37 36 36 36 36 35 35 34 34 34 33 33
36 37 38 37 36 35 35 34 33 32 32 33 33 32 32 31 31 31 31 31 32 32 32 32 32 32 33 34 34 34 34 34 35 35 36 36 36 36 35 35 35 34 34 33 33 33 32 32 31

GEFSSGP_500_meanwind_204.txt.gz
Wind_Speed
35 34 34 33 33 33 32 29 28 28 29 28 28 27 26 26 24 23 21 20 19 19 19 18 18 18 18 17 17 17 17 17 17 17 17 17 17 17 17 18 18 18 18 18 18 18 18 18 18
36 35 35 35 34 33 31 30 30 30 30 29 28 28 28 27 25 24 22 21 21 21 21 20 20 20 19 19 19 19 18 18 18 18 18 19 19 19 19 19 19 20 20 20 20 20 20 20 20
36 36 36 36 35 33 31 30 30 31 31 30 29 29 29 28 26 25 23 22 22 22 23 23 22 21 21 20 20 20 20 19 19 20 20 20 20 20 21 21 21 21 21 21 22 22 22 22 22
37 37 38 37 35 32 32 31 31 32 32 31 31 30 29 28 27 26 25 24 24 24 24 24 23 23 22 22 22 22 21 21 21 21 21 21 22 22 22 22 22 23 23 23 23 23 23 24 24
37 38 38 37 34 32 32 32 33 33 32 32 32 31 30 29 28 27 26 25 25 25 25 25 24 24 24 24 23 23 23 23 23 23 23 23 23 23 23 23 23 24 24 24 24 25 25 25 25
37 37 37 35 33 33 33 33 34 34 33 32 32 32 31 30 29 29 28 27 26 25 25 25 25 25 25 25 25 25 24 24 24 24 24 24 24 24 24 24 25 25 25 25 26 26 26 27 27
37 37 37 36 35 34 34 34 34 33 32 32 32 32 32 31 30 30 29 28 27 27 26 26 26 26 26 25 25 25 25 25 25 25 25 25 25 25 25 25 25 26 26 26 27 27 27 28 28
37 37 37 35 35 34 35 35 34 34 33 33 32 32 31 31 31 31 30 29 28 28 28 27 27 27 26 26 26 25 25 25 26 26 26 26 26 26 26 26 26 26 27 28 28 29 29 29 30
38 38 36 34 34 34 36 36 35 34 33 33 32 32 31 31 31 30 30 30 29 29 28 28 27 27 27 26 26 26 26 26 26 26 26 26 26 26 27 27 27 27 28 29 30 30 31 31 32
39 38 36 35 35 35 35 36 35 34 33 32 32 31 31 31 30 30 30 30 30 29 29 28 28 28 27 27 27 27 27 27 27 27 27 27 27 27 28 28 28 29 30 31 31 32 33 33 34
39 37 36 36 36 36 35 35 35 34 33 32 32 31 31 30 30 30 29 30 30 30 29 29 28 28 28 28 28 28 28 27 27 27 28 28 28 28 29 29 30 31 31 32 33 34 34 35 36
40 38 37 37 37 37 36 35 35 34 33 33 33 32 32 31 30 29 30 30 30 30 30 30 29 29 29 29 29 29 28 28 28 28 28 29 29 30 30 30 31 32 32 33 34 35 36 36 37
39 38 38 38 38 38 37 36 35 34 33 34 34 34 33 32 31 30 30 30 31 31 31 31 31 30 30 30 30 30 30 29 29 29 29 30 30 30 31 31 32 33 34 34 35 36 36 37 38
39 39 39 39 39 38 38 37 36 34 34 33 33 33 33 32 32 32 31 31 31 31 31 32 32 31 31 31 31 30 30 30 31 31 31 31 31 31 32 33 33 34 34 35 36 36 37 38 38
39 39 39 39 39 38 39 38 36 34 35 34 33 32 32 32 32 32 31 31 31 31 31 32 32 32 32 32 32 31 31 31 32 32 32 32 32 33 33 34 34 34 35 36 37 37 38 38 39
39 39 39 38 39 39 40 38 36 36 36 35 34 33 32 32 32 32 32 31 31 31 32 32 32 32 32 32 32 32 32 32 32 33 33 33 34 34 34 34 35 35 36 37 37 37 38 38 38
40 39 38 38 38 39 40 39 37 38 37 36 35 34 33 32 32 32 33 32 32 31 31 32 32 32 32 32 32 32 32 32 33 33 33 34 34 35 35 35 36 36 36 36 37 37 37 37 37
39 39 38 39 39 39 39 39 38 38 38 37 36 35 34 32 31 32 33 32 32 31 31 32 32 32 31 31 32 32 32 32 33 33 33 34 35 35 35 36 36 36 36 36 36 36 37 37 37
39 39 39 38 38 39 39 39 38 38 38 38 37 36 35 33 32 32 32 32 31 31 30 30 31 31 31 31 31 32 32 32 33 33 33 34 35 35 36 36 36 36 36 36 37 36 36 37 37
39 39 39 38 38 39 39 39 39 38 38 37 37 36 35 34 33 32 32 31 31 30 30 30 30 31 31 31 31 31 32 32 32 33 33 34 35 35 35 36 36 36 36 37 37 37 37 38 39
40 39 39 39 39 39 39 39 39 38 38 37 37 36 35 34 33 33 32 31 31 31 30 30 30 31 31 31 31 31 32 32 32 32 33 34 35 35 36 36 36 36 36 37 37 37 38 39 39
40 39 39 39 39 39 39 40 39 38 38 37 36 35 35 34 34 33 32 32 31 31 31 31 31 31 31 31 31 31 31 31 32 32 33 33 34 35 36 36 36 36 37 37 37 38 39 39 39
39 38 39 39 40 40 39 40 38 38 37 36 36 35 35 35 34 34 33 32 32 32 32 31 31 31 31 31 31 31 31 31 31 32 32 33 34 34 35 36 36 36 36 37 37 38 38 39 39
38 39 39 39 40 41 39 40 39 37 36 36 36 35 35 34 34 34 33 33 32 32 32 32 31 31 31 31 31 31 32 31 31 32 32 33 34 34 35 36 36 36 36 37 37 37 38 38 38
37 38 39 40 41 41 39 40 39 37 36 35 35 35 35 34 34 33 33 33 33 32 32 32 32 32 32 32 32 32 32 32 32 32 33 33 34 34 35 35 36 35 35 35 36 37 37 37 38
35 36 37 39 41 39 38 39 37 36 36 35 34 34 34 34 34 33 33 32 32 32 33 33 33 33 32 32 32 33 33 33 33 33 33 34 34 34 35 35 35 34 34 34 35 36 36 37 37
33 35 36 36 38 39 38 37 36 36 35 35 34 34 34 34 33 33 33 32 32 32 32 33 33 33 33 32 32 33 33 33 34 34 34 34 34 34 34 34 33 34 34 34 35 35 36 36 35
32 33 35 36 37 38 38 37 36 35 34 34 34 34 34 33 33 33 33 33 32 32 32 33 33 33 33 33 33 33 33 33 34 34 33 33 34 33 33 34 34 34 34 35 35 35 35 35 34
32 32 34 35 36 36 36 36 35 35 34 33 33 33 33 33 33 33 33 33 33 33 33 33 32 33 33 33 33 33 33 33 33 33 33 33 33 33 34 34 34 34 34 34 34 34 34 33 33
32 31 32 33 35 35 34 34 33 34 33 33 32 32 32 33 32 32 32 32 32 32 32 32 32 32 32 33 33 33 33 33 33 33 33 33 33 33 33 33 33 33 33 33 33 33 32 32 32

GEFSSGP_500_meanwind_210.txt.gz
Wind_Speed
36 36 36 37 37 37 35 32 30 29 29 30 29 28 26 25 24 23 21 20 20 19 18 18 17 17 16 15 15 15 14 13 13 13 13 13 13 14 14 14 15 15 15 16 16 17 17 17 17
36 37 38 38 38 37 34 31 31 31 31 31 30 29 28 27 26 24 23 22 21 21 20 19 19 18 18 17 17 16 16 16 15 15 15 15 15 15 16 16 17 17 17 17 18 18 18 19 19
37 38 39 39 39 36 33 32 31 32 32 31 30 29 29 28 27 26 25 24 23 22 22 21 20 20 19 19 19 18 17 17 17 17 17 17 17 18 18 18 18 19 19 19 20 20 20 20 21
37 38 39 40 37 35 33 33 33 32 32 32 31 31 30 29 28 27 26 25 24 24 23 22 22 22 21 21 20 20 19 19 19 18 18 19 19 19 20 20 20 20 21 21 21 21 22 22 22
37 38 39 38 36 34 34 34 35 34 33 33 32 31 31 30 29 28 28 27 26 25 24 24 23 23 23 22 22 21 21 21 20 20 20 20 21 21 21 21 22 22 22 22 22 23 23 23 23
39 39 38 36 35 34 35 35 36 35 34 34 33 33 31 30 30 29 29 28 28 27 26 25 25 24 24 24 23 23 22 22 22 22 22 22 22 22 22 22 22 23 23 23 23 24 24 24 25
39 39 38 36 35 35 35 36 36 36 35 35 34 34 32 32 31 31 30 30 29 29 28 27 27 26 25 25 25 24 24 24 23 23 23 23 23 23 23 23 24 24 24 24 24 24 25 25 26
39 40 39 36 35 35 36 36 37 37 36 36 35 34 33 32 32 32 31 31 31 30 29 29 28 27 26 26 25 25 24 24 24 24 24 24 24 24 24 25 24 24 24 25 25 25 25 26 27
40 41 39 36 35 35 36 37 37 38 37 36 35 35 34 33 33 33 32 32 32 31 30 30 29 29 27 26 26 25 25 25 25 25 25 25 25 25 25 25 25 25 25 26 26 26 27 28 29
41 41 38 36 36 36 37 37 37 37 37 37 36 35 35 34 33 33 33 32 32 32 31 30 30 29 28 28 27 27 26 26 26 26 25 25 25 25 26 26 26 26 27 27 28 28 29 29 30
42 40 38 38 38 38 38 38 38 38 37 37 37 36 35 34 33 33 33 33 32 32 31 30 30 29 29 28 28 28 28 27 27 27 27 26 27 27 27 27 27 28 28 29 30 30 31 31 32
41 41 40 39 39 40 39 39 38 38 37 37 38 37 36 34 33 33 33 33 32 32 31 30 30 30 30 30 29 29 29 28 28 28 28 27 27 27 28 28 29 30 30 30 31 31 32 33 33
42 41 41 41 41 40 40 40 40 39 38 38 37 37 37 36 35 34 34 33 33 32 32 31 31 31 31 30 30 30 29 29 29 28 28 28 28 28 29 29 30 30 31 31 32 33 33 34 35
42 41 41 41 41 41 41 41 41 39 39 38 38 37 37 37 36 35 35 34 33 33 32 32 32 32 31 31 31 31 30 30 30 29 29 29 29 29 29 30 30 30 31 32 33 33 34 35 36
41 42 42 42 42 42 42 42 41 40 40 39 38 38 37 37 36 36 35 35 34 33 33 33 33 33 32 32 32 32 32 31 31 31 31 30 30 30 30 30 31 32 32 33 34 34 35 36 37
41 42 42 42 42 42 43 42 41 41 41 40 39 38 37 36 36 36 36 35 35 34 33 34 33 33 33 33 33 33 33 32 32 31 31 31 31 31 31 31 32 33 33 34 34 35 36 36 37
42 42 41 41 42 42 43 41 40 41 41 40 40 39 38 37 36 35 35 35 35 34 34 34 34 34 33 33 33 33 33 33 32 32 31 32 32 32 32 32 33 34 34 34 34 35 35 36 36
41 41 41 41 41 42 42 41 41 41 41 40 40 39 38 38 37 36 35 35 35 35 34 34 34 34 33 33 33 33 33 33 32 32 32 32 32 32 33 33 34 34 34 34 34 35 36 36 36
40 41 40 40 41 42 42 42 41 41 41 40 40 40 39 38 38 37 36 35 35 35 34 34 33 33 33 33 32 32 32 32 32 32 32 32 32 33 33 33 34 34 34 35 35 36 36 36 36
40 40 40 39 40 41 41 42 42 41 40 40 40 40 40 39 38 38 37 36 35 34 34 34 33 33 33 32 32 32 32 32 32 32 32 32 33 33 33 34 34 34 35 35 36 36 36 36 36
39 39 40 40 39 40 41 41 41 41 41 40 40 40 40 40 39 38 38 37 36 35 34 33 33 33 33 32 32 32 31 31 31 31 31 32 33 33 33 34 34 34 35 35 35 35 35 36 36
37 37 38 40 40 41 42 42 41 41 41 40 40 40 40 40 40 39 38 37 36 35 34 33 33 33 33 32 32 31 31 31 31 31 32 32 33 33 33 33 34 34 34 34 35 35 35 35 36
35 35 36 38 39 41 42 42 40 40 40 40 39 39 40 40 40 39 38 37 36 35 34 34 33 33 32 32 32 32 31 32 32 32 32 33 33 33 33 33 34 34 34 35 34 34 34 35 36
34 34 36 36 38 41 40 41 40 39 39 39 39 39 38 39 39 39 38 37 37 36 35 34 33 33 33 32 32 32 32 32 32 32 33 33 33 33 33 34 34 34 34 34 34 35 35 35 35
33 34 34 36 38 39 39 40 40 38 38 38 38 38 38 38 39 38 38 37 36 36 35 34 34 33 33 33 32 32 32 32 32 33 33 33 33 34 34 34 34 35 35 34 34 35 35 34 34
32 33 33 34 36 36 37 38 38 37 37 37 37 37 38 38 38 39 38 38 37 36 35 35 34 34 34 33 33 33 33 33 33 33 33 33 33 34 34 34 35 35 35 35 34 35 34 34 33
30 32 32 33 34 35 36 36 35 34 34 35 35 36 37 37 38 39 38 38 37 36 36 35 35 35 34 34 34 34 33 33 33 33 33 33 34 34 34 34 34 34 34 34 34 34 34 34 34
29 31 32 32 33 34 35 35 34 33 32 33 34 35 36 37 37 38 38 38 38 37 36 36 36 35 35 35 35 34 34 33 33 33 33 34 34 34 34 33 33 34 34 34 34 33 33 34 34
28 30 32 31 31 33 34 34 33 32 32 33 33 33 35 36 36 37 38 38 37 37 36 36 36 36 35 35 35 34 34 34 33 33 33 33 33 33 33 33 33 33 33 34 34 33 33 34 34
27 29 30 30 30 31 32 32 31 31 32 32 32 32 33 35 35 36 37 37 37 37 36 36 36 36 35 35 35 35 34 34 34 34 33 33 33 33 33 33 33 33 33 34 34 33 33 33 33

GEFSSGP_500_meanwind_216.txt.gz
Wind_Speed
37 37 37 37 38 38 36 33 30 29 29 30 29 28 26 25 24 24 22 20 20 19 19 18 18 17 17 16 16 15 14 14 13 13 13 12 12 12 12 12 12 12 13 13 13 13 14 14 15
37 38 39 39 39 38 35 32 31 31 31 31 30 29 28 27 26 25 24 22 21 20 20 19 19 18 18 17 17 16 16 15 15 15 14 14 14 14 14 14 14 14 15 15 15 16 16 16 17
38 39 40 41 40 37 35 33 33 33 32 32 31 30 30 28 27 26 25 24 23 22 21 21 20 19 19 18 18 18 17 17 17 17 16 16 16 16 16 16 16 17 17 17 17 18 18 18 19
38 40 41 41 39 37 36 34 34 34 33 33 32 31 30 29 28 27 27 25 24 23 23 22 21 21 20 20 19 19 19 19 18 18 18 18 18 18 18 18 18 19 19 19 19 19 20 20 20
39 40 41 41 39 38 36 35 35 35 34 34 33 32 31 30 29 29 28 27 26 25 24 23 23 22 22 21 21 20 20 20 20 20 20 20 20 20 20 20 20 20 20 21 21 21 21 21 21
40 41 41 40 38 38 37 37 36 35 35 35 34 33 32 31 30 30 30 29 28 27 26 25 24 24 23 23 22 22 22 21 21 21 21 21 21 21 21 21 21 22 22 22 22 22 22 23 23
40 41 41 39 39 38 38 37 37 36 36 35 35 34 33 33 32 31 31 30 29 28 27 27 26 25 25 24 24 23 23 22 22 22 22 22 22 22 22 22 23 23 23 23 23 23 23 24 24
40 41 41 40 39 38 38 38 38 37 37 36 36 35 34 33 33 32 32 31 31 30 29 28 27 27 26 26 25 24 24 24 23 23 23 23 23 23 23 23 24 24 24 24 24 24 24 25 25
40 41 41 40 40 39 39 39 39 39 38 37 37 36 35 34 34 33 33 33 32 31 30 29 29 28 28 27 27 26 26 25 25 24 24 24 24 24 24 24 24 24 24 24 24 25 26 26 27
41 41 40 40 40 40 39 40 40 39 39 38 37 37 36 35 35 34 34 33 33 32 32 31 30 30 29 29 28 27 27 26 26 26 25 25 25 26 26 25 25 25 26 26 26 26 27 28 28
42 41 40 41 40 40 41 41 41 41 40 39 38 37 37 36 36 35 35 34 34 33 33 32 31 31 30 30 29 29 28 27 27 27 27 27 27 27 27 26 26 26 27 27 27 28 29 29 30
42 41 41 41 41 41 41 41 41 41 40 39 39 39 38 37 37 36 35 35 35 34 34 33 32 32 31 31 30 30 29 28 28 28 28 28 28 28 27 27 27 28 28 28 29 30 31 31 32
41 41 42 42 42 42 42 42 42 41 41 41 40 39 39 38 37 37 37 36 35 35 34 34 33 32 32 31 31 30 29 29 29 29 29 29 29 29 29 29 29 29 29 30 31 31 32 32 32
40 41 42 42 42 42 43 43 43 42 41 41 41 40 40 39 38 37 37 36 36 36 35 34 34 33 33 32 32 31 30 30 30 30 30 30 31 30 30 30 30 30 31 31 31 31 32 32 32
39 41 42 43 43 43 44 44 43 42 42 41 41 41 41 40 39 39 38 37 37 36 35 35 34 33 33 33 32 32 31 31 31 31 31 31 31 31 31 31 31 31 31 31 32 32 32 32 33
40 42 42 42 43 43 45 44 43 43 43 42 41 41 41 40 40 39 38 38 37 36 36 35 34 34 34 33 33 33 32 32 32 32 32 32 32 32 32 32 32 32 32 32 33 33 33 33 34
40 41 41 42 42 43 45 44 44 43 43 43 42 41 41 40 40 39 38 38 38 37 37 36 36 35 35 34 34 33 33 33 32 32 32 32 32 32 32 33 33 33 33 33 33 33 34 34 35
38 39 40 41 41 42 43 44 44 44 43 43 42 41 41 41 40 39 39 38 38 38 37 37 36 36 36 35 35 34 33 33 32 32 32 32 32 33 33 33 33 32 33 33 34 34 34 35 35
36 38 39 41 40 41 42 43 44 44 44 44 43 42 41 41 41 40 39 38 38 38 37 37 37 36 36 35 35 35 34 34 33 33 33 32 32 33 33 33 33 32 33 33 33 34 34 35 35
34 36 38 39 40 41 42 42 43 43 44 43 43 43 42 41 41 40 39 39 38 38 38 37 37 36 36 35 35 35 35 34 34 34 33 33 33 33 32 31 32 33 33 33 34 34 35 35 35
31 34 35 37 38 40 41 42 42 42 43 43 43 42 42 42 41 40 39 39 39 38 38 37 37 36 36 35 35 35 35 35 34 34 34 34 34 34 33 33 32 32 33 34 34 34 34 34 34
29 31 33 34 36 38 40 41 41 41 41 41 41 41 42 42 41 40 40 39 39 39 38 37 37 37 36 36 35 35 34 34 34 34 34 34 33 33 33 33 34 33 33 34 33 33 32 32 33
29 29 30 31 33 36 37 39 40 39 39 39 39 39 40 41 41 41 41 41 40 39 38 38 37 37 37 36 35 35 35 34 34 33 33 33 33 33 34 34 34 34 34 33 32 32 32 32 32
27 28 29 30 32 34 35 36 37 38 37 37 37 37 38 40 40 41 41 41 41 40 39 39 38 37 37 36 35 35 35 34 34 34 33 32 33 33 33 33 34 34 34 33 32 32 33 33 33
27 27 27 29 30 32 32 33 34 35 36 36 37 37 38 38 39 40 40 40 40 40 40 39 39 38 37 36 36 35 35 34 33 33 33 32 33 33 33 33 34 34 34 33 33 33 32 33 33
26 27 28 29 30 30 31 32 32 33 34 35 35 36 37 37 37 38 39 40 40 40 40 39 38 38 37 37 36 36 35 34 33 33 33 32 33 33 33 33 34 34 33 33 33 33 32 32 32
25 25 27 27 28 29 30 30 31 31 32 34 34 35 36 36 37 37 37 38 38 38 39 39 38 38 37 37 36 36 35 35 34 34 33 33 33 33 34 33 33 34 34 33 33 32 33 33 33
24 24 25 26 26 27 28 28 29 29 29 30 32 34 35 35 36 37 37 37 37 37 38 38 38 37 37 37 36 36 35 35 35 34 34 33 33 33 33 33 33 33 33 33 33 33 33 33 33
22 24 24 24 25 26 27 27 27 27 27 28 29 31 33 34 35 36 36 37 37 37 37 38 38 37 37 37 36 36 35 35 35 34 34 33 33 32 32 32 32 33 33 33 33 33 33 33 33
22 23 23 24 25 25 26 27 26 26 26 26 28 29 30 32 34 35 36 36 37 37 38 38 38 38 38 37 37 36 36 35 35 35 34 34 33 32 32 32 32 33 33 33 34 34 34 33 33

GEFSSGP_500_meanwind_222.txt.gz
Wind_Speed
36 37 38 38 39 38 36 33 33 32 31 31 30 29 28 28 27 27 25 23 21 21 20 20 18 17 17 16 15 14 14 13 12 12 12 11 11 11 11 11 11 12 12 12 13 13 13 14 14
37 38 39 40 40 38 35 34 34 34 33 32 31 30 29 30 29 28 26 24 23 22 22 21 20 19 18 18 17 16 15 15 14 14 13 13 13 13 13 13 13 14 14 14 14 15 15 16 16
38 39 40 41 41 38 35 36 36 35 35 33 32 32 31 31 30 29 27 26 25 24 23 22 21 20 20 19 19 18 17 16 16 16 15 15 14 14 14 15 15 15 16 16 16 17 17 17 18
37 39 41 42 40 38 38 38 38 37 35 34 34 33 33 32 30 29 28 28 26 26 25 24 23 22 21 21 20 19 18 18 17 17 17 16 16 16 16 16 16 17 17 17 18 18 18 19 19
38 39 41 42 40 39 40 39 38 38 37 35 35 35 35 33 32 31 30 29 28 27 26 26 25 24 23 22 21 20 20 20 19 18 18 17 17 17 17 18 18 18 19 19 19 19 20 20 20
38 40 41 41 40 40 41 40 39 40 38 37 37 36 36 35 33 33 32 31 30 29 28 27 26 25 24 23 22 22 21 21 20 19 19 19 19 19 19 19 20 20 20 20 21 21 21 22 22
37 39 40 40 40 40 41 41 41 40 40 39 38 38 37 36 35 34 33 32 31 30 29 28 27 26 25 25 24 23 23 22 21 21 20 20 20 20 20 21 21 21 22 22 22 22 23 23 23
38 39 39 40 40 41 41 42 42 41 41 40 40 39 38 37 36 35 34 33 32 31 30 29 29 28 27 26 26 25 24 23 23 22 22 21 21 21 21 22 22 22 23 23 23 23 23 23 24
39 40 40 39 40 40 41 42 42 42 41 41 40 40 38 37 36 36 35 34 33 32 32 31 30 29 29 28 27 26 25 25 24 23 23 23 23 23 23 23 23 23 24 24 24 24 24 25 25
39 40 39 39 40 41 41 43 43 43 42 41 40 40 40 38 37 37 36 35 35 34 33 32 31 31 30 29 28 27 26 26 25 25 24 24 24 24 24 24 25 25 25 25 25 25 26 26 26
39 39 39 40 41 41 42 43 43 44 43 42 41 40 40 39 39 38 37 36 35 35 34 33 32 32 31 30 29 28 28 27 27 26 26 25 25 26 26 26 26 26 26 26 26 26 27 27 28
38 39 40 40 41 42 42 42 43 44 44 42 41 42 41 41 40 39 38 37 36 35 35 34 33 32 31 31 30 29 29 28 28 27 27 27 27 27 27 27 27 27 27 27 27 27 28 28 28
38 38 40 41 42 42 43 43 43 43 43 43 42 42 42 42 41 40 39 38 37 37 36 35 34 34 33 32 31 31 30 29 28 28 28 28 28 28 28 28 29 28 28 28 28 28 29 29 30
36 38 39 39 40 41 42 43 43 43 43 44 43 43 42 41 41 41 40 39 39 38 37 36 35 34 34 33 31 31 31 30 30 29 29 29 29 29 29 29 29 29 29 29 29 30 31 31 32
34 36 37 38 40 41 42 42 42 42 43 44 44 43 42 41 41 41 41 40 40 39 38 37 36 35 34 33 32 32 32 31 30 30 30 30 29 29 29 30 30 30 30 30 30 31 32 32 32
35 36 36 36 39 40 41 41 41 42 43 43 44 44 43 43 42 42 41 41 40 40 39 38 37 36 35 34 33 32 32 31 30 30 30 30 29 29 29 30 29 29 29 30 30 31 32 32 32
34 34 34 34 36 38 40 40 41 43 43 43 43 44 44 44 44 43 42 41 41 40 39 38 38 37 36 35 35 33 32 32 32 31 31 31 30 29 29 29 29 29 29 30 31 32 32 33 33
31 32 33 34 34 36 38 39 40 42 42 43 44 44 44 44 45 44 44 42 41 41 40 39 38 38 37 36 36 35 34 32 32 32 31 31 31 30 30 30 30 30 31 31 32 32 33 33 33
30 31 33 33 34 36 37 38 39 41 42 43 44 43 43 44 45 45 44 43 42 41 40 40 39 38 38 37 37 36 34 33 33 33 32 31 31 31 31 32 33 32 32 32 32 32 32 33 32
28 30 31 32 33 35 36 37 39 40 40 41 42 43 43 44 45 44 43 43 42 41 40 40 40 39 39 38 38 37 36 35 34 34 33 32 32 32 33 33 33 33 33 33 33 32 32 32 32
28 29 30 30 31 33 34 35 37 39 40 40 41 43 44 44 44 44 43 43 42 41 41 40 40 39 39 39 38 38 37 36 35 34 34 34 34 33 33 32 33 33 33 33 33 32 32 32 32
27 28 28 29 30 31 32 33 35 36 39 40 40 41 43 43 42 42 43 42 42 42 41 41 40 40 39 39 39 38 37 37 36 35 35 35 35 34 34 33 33 33 33 33 33 32 33 33 32
26 26 27 28 29 30 31 33 33 35 36 37 38 39 40 42 42 41 42 43 42 42 42 41 41 40 40 40 39 39 38 37 36 36 35 35 35 35 34 34 34 33 33 33 33 33 33 33 33
24 25 25 26 27 29 29 32 33 33 34 34 36 37 38 39 40 41 42 42 43 42 41 41 41 41 40 40 40 39 39 38 37 36 36 35 35 35 34 34 34 34 33 34 33 34 34 34 34
22 24 23 24 26 28 28 30 31 31 32 33 34 35 36 37 38 39 40 40 41 41 41 41 41 41 41 40 40 40 39 39 38 37 37 36 35 35 34 33 33 33 33 34 34 34 34 34 34
20 22 23 24 26 28 29 30 29 30 31 32 33 34 35 36 37 37 38 39 39 40 41 41 41 41 41 41 41 40 40 39 38 37 37 37 36 35 34 34 33 33 33 34 34 34 33 33 33
19 20 22 23 24 25 27 28 28 28 30 31 32 33 33 35 36 35 36 38 38 39 40 40 40 41 41 41 41 40 40 40 39 38 37 37 37 36 35 34 34 34 33 33 33 33 32 32 33
18 19 21 23 24 25 25 26 28 28 29 29 30 31 32 34 34 35 35 36 37 38 39 40 40 40 40 40 40 40 40 40 39 38 38 37 37 36 36 35 34 34 34 33 33 33 33 33 32
17 19 21 23 23 24 24 25 26 27 28 29 29 30 31 33 34 34 35 35 36 37 38 39 40 40 40 40 40 39 40 39 39 39 38 37 37 37 36 35 34 34 34 33 33 33 32 33 33
17 18 20 21 22 23 24 25 24 25 27 29 29 29 30 32 33 33 34 34 35 36 37 38 39 40 40 39 39 39 39 40 39 39 38 38 38 37 36 36 35 34 34 33 33 33 32 32 33

GEFSSGP_500_meanwind_228.txt.gz
Wind_Speed
34 35 36 37 38 39 37 35 33 33 32 31 30 29 29 27 26 25 24 23 22 21 20 19 18 17 16 15 14 14 14 13 12 12 11 11 11 10 10 10 10 10 10 10 10 11 11 12 13
35 36 37 39 40 40 37 35 35 34 34 33 32 31 31 29 27 26 25 24 23 23 22 20 20 19 18 17 16 16 15 14 13 13 12 12 12 11 11 12 12 11 11 12 12 12 13 13 14
36 37 38 40 41 39 37 36 36 36 36 35 34 33 32 30 29 28 27 26 25 24 23 22 21 20 20 19 18 17 16 16 15 14 14 13 13 13 12 13 13 12 13 13 13 14 15 15 15
36 38 39 41 40 38 37 37 38 38 38 37 36 35 33 32 30 29 28 28 26 26 25 24 23 22 21 21 20 19 18 17 16 16 15 15 14 13 13 13 14 14 14 15 15 16 16 17 17
37 39 40 41 40 38 38 39 40 40 39 39 38 37 35 33 32 31 30 29 28 27 26 26 25 24 23 23 22 21 20 19 18 17 17 16 16 15 15 15 15 16 16 17 17 17 18 18 18
37 39 40 40 38 38 39 39 41 41 41 40 39 38 37 35 34 32 32 31 29 28 28 27 27 26 25 24 23 22 21 20 19 19 18 18 18 17 17 17 17 17 17 18 18 19 19 19 20
37 38 39 38 37 38 39 40 41 41 42 41 41 39 38 36 35 34 33 33 31 30 29 28 28 28 27 25 24 23 22 21 21 20 20 19 19 19 18 18 18 18 19 20 20 20 21 21 21
36 37 38 38 38 38 39 41 41 42 42 42 42 41 39 38 37 36 35 34 33 32 31 30 29 29 28 27 25 25 24 23 22 22 21 21 20 20 20 20 20 20 21 21 21 21 21 22 22
35 38 38 37 37 38 39 42 42 43 43 43 42 42 40 39 38 37 36 35 34 33 32 31 31 30 29 28 27 26 26 25 24 23 23 22 22 21 21 21 21 22 22 22 22 22 22 23 23
35 37 37 36 37 38 39 41 42 43 43 43 42 42 41 40 39 38 37 36 35 34 33 32 31 31 30 29 28 28 27 26 25 25 24 23 23 23 22 23 23 23 23 24 24 24 23 24 24
35 36 36 37 37 39 40 41 42 43 43 43 42 42 42 41 40 39 38 37 36 35 34 33 33 32 31 30 29 29 28 27 27 26 25 24 24 24 24 24 24 25 25 25 25 25 24 25 25
34 35 36 36 37 38 40 41 42 43 43 43 43 43 43 42 41 40 39 38 37 36 35 35 34 33 33 31 31 30 29 28 28 27 26 26 26 26 26 26 26 26 26 26 26 26 26 26 26
31 33 34 35 36 37 38 40 42 42 42 43 44 44 43 43 42 41 40 39 38 38 37 36 35 35 34 33 32 31 31 30 29 29 28 27 27 27 27 27 27 27 27 27 27 27 27 27 28
29 31 32 33 35 36 37 38 41 42 42 42 43 44 44 43 42 41 40 39 39 39 38 37 37 36 35 34 33 33 32 31 31 30 29 29 28 28 28 28 28 28 28 28 28 28 28 28 29
27 29 30 30 34 35 37 38 40 41 42 42 42 43 44 43 43 42 41 39 39 39 39 38 38 37 36 35 33 33 33 32 31 31 31 30 30 29 29 28 28 29 29 29 29 29 29 29 30
25 27 29 29 31 34 36 37 38 39 41 42 42 42 43 43 43 42 42 41 40 40 39 39 39 38 37 36 35 34 33 33 32 31 31 31 31 30 30 30 29 29 30 30 29 30 30 30 30
24 26 27 28 30 32 35 36 37 38 38 40 41 42 43 43 43 43 43 42 41 40 39 40 40 39 38 37 37 36 35 34 33 32 31 31 31 31 31 31 30 30 30 30 30 30 29 30 31
22 25 26 27 28 32 33 34 34 37 37 37 38 40 42 43 43 43 43 43 42 41 40 40 41 41 40 38 38 37 36 35 34 33 32 32 32 32 32 31 31 31 31 31 31 30 30 30 31
19 22 24 25 27 29 31 32 32 34 36 36 36 37 40 42 42 42 43 44 44 43 41 40 41 41 41 40 38 38 37 36 35 34 33 33 33 32 31 31 31 31 31 30 30 31 31 32 32
19 21 23 24 25 28 30 31 32 33 34 35 35 36 37 40 41 41 42 43 44 43 43 42 41 41 41 40 39 38 38 37 36 35 34 34 33 32 32 32 31 31 31 30 31 32 32 32 32
17 19 21 23 24 26 28 30 31 32 33 34 34 34 36 37 39 41 41 42 43 43 43 43 42 41 41 41 40 39 38 38 37 37 36 34 34 33 33 33 32 32 32 32 32 32 32 32 32
14 17 20 22 24 26 26 28 30 31 33 34 34 34 35 36 38 39 40 41 41 42 43 43 43 42 41 41 41 41 40 39 38 37 37 36 35 34 34 33 33 33 33 33 33 33 33 33 32
14 15 18 20 23 25 26 27 28 30 32 33 34 34 34 35 37 38 38 39 40 41 42 42 42 42 42 41 41 41 41 40 39 38 38 37 36 36 36 35 34 34 34 33 34 33 33 33 33
14 15 17 19 21 23 24 27 28 29 29 30 32 32 33 34 35 36 38 38 39 40 41 41 42 42 43 42 41 41 41 40 40 39 39 39 38 37 36 36 35 35 35 35 34 34 34 34 34
15 15 15 17 19 21 23 25 26 27 27 29 30 31 31 33 34 36 37 38 38 39 40 40 41 42 42 42 41 41 41 41 40 40 40 40 39 38 37 37 36 36 35 35 35 34 34 34 33
13 15 16 17 19 21 22 25 25 25 27 28 29 30 31 32 33 35 36 37 38 38 38 39 40 40 41 42 42 41 41 41 41 41 40 40 39 39 39 38 37 36 36 35 34 34 34 33 32
13 14 15 17 18 20 21 23 24 24 26 27 28 29 30 31 32 33 34 36 37 38 37 38 39 39 40 41 42 41 41 41 41 41 40 40 39 39 39 39 38 37 36 35 34 34 33 33 32
14 14 15 16 18 19 20 21 22 23 23 25 27 28 29 30 32 33 33 34 36 37 37 37 38 38 39 40 41 42 41 41 41 41 41 40 40 40 39 39 38 37 37 36 36 35 34 34 33
14 14 15 16 18 20 20 20 21 21 22 24 25 27 28 29 31 33 34 34 35 35 36 36 37 37 38 39 39 40 41 41 41 41 41 40 40 40 40 40 39 39 38 37 36 35 35 34 33
15 16 16 18 19 19 21 20 20 21 21 22 24 26 28 29 29 32 34 35 35 35 35 35 36 36 37 38 39 39 39 40 41 40 41 41 40 40 40 40 40 39 38 37 36 35 34 34 33

GEFSSGP_500_meanwind_234.txt.gz
Wind_Speed
35 35 36 37 37 37 35 32 31 31 31 31 30 29 28 28 27 26 24 23 22 21 20 19 18 17 16 15 14 14 13 12 11 10 10 9 9 8 8 8 8 8 8 9 9 9 10 10 11
36 37 38 39 40 39 35 32 32 32 33 33 32 31 30 29 29 28 26 25 24 23 22 21 20 19 18 17 16 15 14 13 13 12 11 11 10 10 9 9 9 9 9 9 10 11 11 12 12
37 38 40 41 41 39 35 33 33 34 35 35 34 33 33 31 30 29 28 27 26 25 24 23 22 21 20 19 18 17 16 15 14 13 12 12 12 11 10 10 10 10 11 11 12 13 13 13 13
36 38 41 43 41 38 35 35 36 36 36 36 36 35 34 33 32 31 30 29 28 27 26 25 24 23 22 21 20 19 18 17 16 15 14 13 13 12 12 12 12 12 12 13 13 14 14 14 15
36 38 41 42 41 38 37 37 37 38 38 37 37 37 36 35 34 33 32 31 30 29 29 28 26 24 23 23 22 21 19 18 17 16 15 14 14 14 13 13 13 13 14 14 15 15 15 15 16
37 38 41 41 39 38 37 38 39 39 39 39 38 38 37 37 35 34 34 33 31 31 30 30 28 27 25 24 24 23 21 20 19 18 17 16 16 15 15 15 14 15 15 15 16 16 16 17 17
36 37 39 39 39 39 38 39 40 40 40 39 39 39 38 38 37 36 36 34 33 32 31 31 30 29 27 26 25 24 23 22 21 20 19 18 17 17 17 16 16 16 16 17 17 17 18 18 19
34 36 37 38 39 38 38 40 40 40 40 40 40 40 39 39 38 38 37 36 35 34 33 32 32 31 29 28 27 26 25 24 23 22 21 20 19 18 18 18 18 18 18 18 18 19 19 20 20
34 35 36 36 37 37 37 38 40 41 41 41 41 41 40 40 40 39 39 38 37 35 34 33 33 32 31 29 28 27 26 25 24 24 22 21 21 20 20 20 20 19 19 20 20 20 20 21 21
32 34 33 33 33 35 35 37 39 40 41 42 42 42 42 42 41 40 40 39 38 37 36 35 34 33 33 31 29 28 28 27 26 25 24 23 22 22 22 21 21 21 21 21 21 22 22 22 22
30 31 31 30 31 32 34 35 37 39 40 41 41 42 43 43 42 41 41 40 39 38 37 36 36 35 34 33 31 29 29 28 27 26 25 24 24 23 23 23 22 22 22 22 23 23 23 23 24
27 29 30 30 30 30 31 33 36 37 37 38 40 42 43 44 43 42 41 40 40 38 38 37 36 36 35 34 33 31 30 29 29 28 27 26 26 25 25 24 24 24 24 24 24 24 24 25 25
24 26 28 29 30 30 30 31 34 36 36 37 39 41 43 44 44 43 43 41 41 39 39 38 38 37 36 35 34 33 31 30 30 29 28 27 27 27 26 25 25 25 25 26 26 26 26 26 26
23 25 27 28 28 28 29 30 32 34 36 37 38 40 41 43 43 44 43 42 41 40 39 39 39 38 36 35 35 34 33 32 31 30 30 29 29 28 28 27 27 27 27 27 27 27 27 27 27
22 25 27 27 27 27 28 29 29 30 34 36 37 38 40 41 42 43 44 44 42 41 40 40 39 39 38 36 35 35 34 33 31 31 31 30 30 29 29 29 29 29 29 29 29 28 29 29 29
20 23 27 27 26 26 28 28 27 28 31 34 35 36 38 39 41 42 43 44 44 43 41 40 40 39 38 38 37 36 35 35 33 31 32 31 31 31 31 30 30 30 30 30 30 30 30 30 30
20 22 24 25 26 26 27 27 28 28 28 31 33 34 36 37 39 40 41 42 44 44 43 42 41 40 39 39 39 38 38 37 36 34 32 33 32 32 32 32 32 32 32 31 31 32 32 31 31
19 20 22 23 25 26 27 27 27 28 29 30 31 32 34 35 37 38 39 40 41 43 44 43 42 41 41 41 40 40 40 38 37 36 35 34 33 33 32 33 33 33 33 33 32 33 33 33 33
18 19 20 21 22 25 26 27 27 28 29 29 31 32 33 34 36 37 38 38 38 39 42 42 42 41 41 41 41 40 40 40 38 38 36 35 34 34 34 34 33 33 33 33 33 33 33 33 33
16 17 18 19 21 23 25 27 27 27 27 29 30 30 32 33 35 37 37 38 37 37 39 41 42 42 41 41 42 41 40 40 40 39 38 36 35 35 35 35 36 36 36 35 35 35 34 34 34
14 15 17 19 20 21 23 25 26 27 28 28 28 30 31 33 35 36 37 37 38 37 38 39 41 41 42 42 42 42 41 41 41 40 39 38 37 36 36 36 35 36 37 36 35 35 35 35 34
13 14 16 18 19 20 23 25 26 26 28 28 28 29 30 31 33 34 36 37 38 38 38 39 39 40 41 42 42 43 42 41 41 41 40 39 39 37 36 37 36 36 36 36 35 34 35 34 34
13 13 15 16 17 20 21 24 24 26 27 28 28 28 30 30 31 32 33 36 37 38 39 39 40 40 41 41 42 43 42 42 42 41 41 39 39 38 36 36 36 36 35 35 35 34 33 33 33
13 13 13 14 16 18 20 23 23 24 26 27 28 28 30 30 31 32 32 34 36 37 39 39 39 40 40 41 42 43 43 42 42 42 41 39 38 39 38 38 37 35 34 34 35 34 34 34 33
12 14 15 16 17 18 19 21 21 22 24 25 27 28 29 30 31 31 32 32 34 36 38 38 39 39 40 41 42 42 43 44 43 41 41 41 39 39 39 39 37 35 34 33 33 33 33 34 33
12 13 15 16 18 18 19 20 20 21 23 24 26 27 28 29 31 31 32 32 33 35 37 38 38 38 39 40 41 42 43 44 44 42 41 41 40 40 39 38 38 38 36 34 34 34 34 34 33
13 13 15 17 18 19 20 20 20 21 22 23 24 26 27 29 30 31 31 33 34 35 36 37 38 38 38 40 41 41 41 43 43 43 41 41 41 40 40 39 38 38 37 37 36 36 35 35 35
13 13 15 17 19 20 21 20 21 22 23 24 25 26 28 29 30 30 31 32 33 34 36 37 37 38 38 40 41 41 41 42 42 43 42 41 41 41 40 40 38 39 37 36 35 35 35 34 34
14 15 15 17 18 20 21 20 21 22 23 25 25 27 28 29 30 31 31 31 32 33 35 36 37 38 39 39 40 40 40 41 42 42 42 42 41 41 40 40 40 39 38 37 36 35 35 35 34
16 16 17 18 18 20 21 20 20 22 23 25 26 27 28 29 29 30 31 32 33 34 35 36 37 38 38 39 39 40 40 41 41 41 42 42 41 41 41 41 41 41 40 39 37 36 35 35 35